<?xml version="1.0" encoding="UTF-8" standalone="no" ?>
<gpx xmlns="http://www.topografix.com/GPX/1/1" xmlns:xsi="http://www.w3.org/2001/XMLSchema-instance" xsi:schemaLocation="http://www.topografix.com/GPX/1/1 http://www.topografix.com/GPX/1/1/gpx.xsd" version="1.1" creator="VisuGPX - https://www.visugpx.com">
  <metadata>
    <name>2024-07-18  VTT TwoNav</name>
    <desc><![CDATA[2024-07-18_130458.trk]]></desc>
  </metadata>
  <trk>
    <name><![CDATA[2024-07-18  VTT TwoNav_1]]></name>
    <trkseg>
      <trkpt lat="48.05033" lon="6.85692">
        <ele>813.5</ele>
        <time>2024-07-18T11:04:58Z</time>
      </trkpt>
      <trkpt lat="48.05033" lon="6.85692">
        <ele>813.5</ele>
        <time>2024-07-18T11:04:59Z</time>
      </trkpt>
      <trkpt lat="48.05033" lon="6.85692">
        <ele>813.5</ele>
        <time>2024-07-18T11:05:00Z</time>
      </trkpt>
      <trkpt lat="48.05034" lon="6.85692">
        <ele>813.5</ele>
        <time>2024-07-18T11:05:11Z</time>
      </trkpt>
      <trkpt lat="48.05034" lon="6.85691">
        <ele>813.5</ele>
        <time>2024-07-18T11:05:12Z</time>
      </trkpt>
      <trkpt lat="48.05031" lon="6.85706">
        <ele>813.8</ele>
        <time>2024-07-18T11:05:26Z</time>
      </trkpt>
      <trkpt lat="48.05021" lon="6.85711">
        <ele>814.7</ele>
        <time>2024-07-18T11:05:30Z</time>
      </trkpt>
      <trkpt lat="48.05011" lon="6.85718">
        <ele>815.7</ele>
        <time>2024-07-18T11:05:34Z</time>
      </trkpt>
      <trkpt lat="48.05001" lon="6.85726">
        <ele>816.6</ele>
        <time>2024-07-18T11:05:38Z</time>
      </trkpt>
      <trkpt lat="48.04993" lon="6.85731">
        <ele>817.2</ele>
        <time>2024-07-18T11:05:42Z</time>
      </trkpt>
      <trkpt lat="48.04983" lon="6.85737">
        <ele>817.8</ele>
        <time>2024-07-18T11:05:46Z</time>
      </trkpt>
      <trkpt lat="48.04983" lon="6.85737">
        <ele>817.8</ele>
        <time>2024-07-18T11:05:46Z</time>
      </trkpt>
      <trkpt lat="48.04972" lon="6.85739">
        <ele>818.5</ele>
        <time>2024-07-18T11:05:50Z</time>
      </trkpt>
      <trkpt lat="48.04963" lon="6.85743">
        <ele>819.1</ele>
        <time>2024-07-18T11:05:53Z</time>
      </trkpt>
      <trkpt lat="48.04954" lon="6.85748">
        <ele>819.6</ele>
        <time>2024-07-18T11:05:56Z</time>
      </trkpt>
      <trkpt lat="48.04943" lon="6.85752">
        <ele>820.1</ele>
        <time>2024-07-18T11:05:59Z</time>
      </trkpt>
      <trkpt lat="48.04932" lon="6.85756">
        <ele>820.5</ele>
        <time>2024-07-18T11:06:01Z</time>
      </trkpt>
      <trkpt lat="48.04923" lon="6.85763">
        <ele>820.7</ele>
        <time>2024-07-18T11:06:03Z</time>
      </trkpt>
      <trkpt lat="48.04911" lon="6.85768">
        <ele>820.7</ele>
        <time>2024-07-18T11:06:06Z</time>
      </trkpt>
      <trkpt lat="48.04899" lon="6.85773">
        <ele>820.8</ele>
        <time>2024-07-18T11:06:09Z</time>
      </trkpt>
      <trkpt lat="48.04889" lon="6.85775">
        <ele>820.9</ele>
        <time>2024-07-18T11:06:13Z</time>
      </trkpt>
      <trkpt lat="48.04879" lon="6.85771">
        <ele>821</ele>
        <time>2024-07-18T11:06:16Z</time>
      </trkpt>
      <trkpt lat="48.04869" lon="6.85764">
        <ele>821.1</ele>
        <time>2024-07-18T11:06:19Z</time>
      </trkpt>
      <trkpt lat="48.04858" lon="6.85756">
        <ele>821</ele>
        <time>2024-07-18T11:06:22Z</time>
      </trkpt>
      <trkpt lat="48.04847" lon="6.85749">
        <ele>820.6</ele>
        <time>2024-07-18T11:06:25Z</time>
      </trkpt>
      <trkpt lat="48.04836" lon="6.85741">
        <ele>820.3</ele>
        <time>2024-07-18T11:06:28Z</time>
      </trkpt>
      <trkpt lat="48.04827" lon="6.85733">
        <ele>820</ele>
        <time>2024-07-18T11:06:31Z</time>
      </trkpt>
      <trkpt lat="48.04818" lon="6.85726">
        <ele>819.9</ele>
        <time>2024-07-18T11:06:34Z</time>
      </trkpt>
      <trkpt lat="48.04807" lon="6.85716">
        <ele>819.6</ele>
        <time>2024-07-18T11:06:37Z</time>
      </trkpt>
      <trkpt lat="48.048" lon="6.85708">
        <ele>819.4</ele>
        <time>2024-07-18T11:06:39Z</time>
      </trkpt>
      <trkpt lat="48.04792" lon="6.85699">
        <ele>819.2</ele>
        <time>2024-07-18T11:06:41Z</time>
      </trkpt>
      <trkpt lat="48.04783" lon="6.85689">
        <ele>819</ele>
        <time>2024-07-18T11:06:44Z</time>
      </trkpt>
      <trkpt lat="48.04776" lon="6.85681">
        <ele>818.8</ele>
        <time>2024-07-18T11:06:46Z</time>
      </trkpt>
      <trkpt lat="48.04769" lon="6.85672">
        <ele>818.5</ele>
        <time>2024-07-18T11:06:48Z</time>
      </trkpt>
      <trkpt lat="48.04759" lon="6.85664">
        <ele>818.2</ele>
        <time>2024-07-18T11:06:50Z</time>
      </trkpt>
      <trkpt lat="48.0475" lon="6.85659">
        <ele>818.1</ele>
        <time>2024-07-18T11:06:52Z</time>
      </trkpt>
      <trkpt lat="48.04742" lon="6.85653">
        <ele>817.9</ele>
        <time>2024-07-18T11:06:54Z</time>
      </trkpt>
      <trkpt lat="48.04737" lon="6.85638">
        <ele>817.4</ele>
        <time>2024-07-18T11:06:57Z</time>
      </trkpt>
      <trkpt lat="48.04729" lon="6.85622">
        <ele>816.8</ele>
        <time>2024-07-18T11:07:00Z</time>
      </trkpt>
      <trkpt lat="48.04723" lon="6.85612">
        <ele>816.4</ele>
        <time>2024-07-18T11:07:02Z</time>
      </trkpt>
      <trkpt lat="48.04717" lon="6.85601">
        <ele>816</ele>
        <time>2024-07-18T11:07:04Z</time>
      </trkpt>
      <trkpt lat="48.0471" lon="6.85587">
        <ele>815.7</ele>
        <time>2024-07-18T11:07:06Z</time>
      </trkpt>
      <trkpt lat="48.04702" lon="6.85575">
        <ele>815.3</ele>
        <time>2024-07-18T11:07:08Z</time>
      </trkpt>
      <trkpt lat="48.04696" lon="6.85562">
        <ele>815.1</ele>
        <time>2024-07-18T11:07:10Z</time>
      </trkpt>
      <trkpt lat="48.04691" lon="6.85551">
        <ele>814.8</ele>
        <time>2024-07-18T11:07:12Z</time>
      </trkpt>
      <trkpt lat="48.04689" lon="6.85537">
        <ele>814.6</ele>
        <time>2024-07-18T11:07:14Z</time>
      </trkpt>
      <trkpt lat="48.04688" lon="6.85522">
        <ele>814.3</ele>
        <time>2024-07-18T11:07:16Z</time>
      </trkpt>
      <trkpt lat="48.04688" lon="6.85507">
        <ele>814</ele>
        <time>2024-07-18T11:07:18Z</time>
      </trkpt>
      <trkpt lat="48.04687" lon="6.85491">
        <ele>813.7</ele>
        <time>2024-07-18T11:07:20Z</time>
      </trkpt>
      <trkpt lat="48.04679" lon="6.85474">
        <ele>813.2</ele>
        <time>2024-07-18T11:07:23Z</time>
      </trkpt>
      <trkpt lat="48.04671" lon="6.85465">
        <ele>812.9</ele>
        <time>2024-07-18T11:07:25Z</time>
      </trkpt>
      <trkpt lat="48.04663" lon="6.85454">
        <ele>812.6</ele>
        <time>2024-07-18T11:07:27Z</time>
      </trkpt>
      <trkpt lat="48.04654" lon="6.85443">
        <ele>812.2</ele>
        <time>2024-07-18T11:07:29Z</time>
      </trkpt>
      <trkpt lat="48.04647" lon="6.85433">
        <ele>811.8</ele>
        <time>2024-07-18T11:07:31Z</time>
      </trkpt>
      <trkpt lat="48.04638" lon="6.85426">
        <ele>811.5</ele>
        <time>2024-07-18T11:07:33Z</time>
      </trkpt>
      <trkpt lat="48.0463" lon="6.85416">
        <ele>811.1</ele>
        <time>2024-07-18T11:07:35Z</time>
      </trkpt>
      <trkpt lat="48.04622" lon="6.85405">
        <ele>810.8</ele>
        <time>2024-07-18T11:07:37Z</time>
      </trkpt>
      <trkpt lat="48.04618" lon="6.85389">
        <ele>810.4</ele>
        <time>2024-07-18T11:07:39Z</time>
      </trkpt>
      <trkpt lat="48.04617" lon="6.8537">
        <ele>809.9</ele>
        <time>2024-07-18T11:07:41Z</time>
      </trkpt>
      <trkpt lat="48.04623" lon="6.85351">
        <ele>809.4</ele>
        <time>2024-07-18T11:07:43Z</time>
      </trkpt>
      <trkpt lat="48.04627" lon="6.85332">
        <ele>808.9</ele>
        <time>2024-07-18T11:07:45Z</time>
      </trkpt>
      <trkpt lat="48.04628" lon="6.85313">
        <ele>808.4</ele>
        <time>2024-07-18T11:07:47Z</time>
      </trkpt>
      <trkpt lat="48.04629" lon="6.85297">
        <ele>807.9</ele>
        <time>2024-07-18T11:07:49Z</time>
      </trkpt>
      <trkpt lat="48.0463" lon="6.85278">
        <ele>807.2</ele>
        <time>2024-07-18T11:07:51Z</time>
      </trkpt>
      <trkpt lat="48.04632" lon="6.85259">
        <ele>806.5</ele>
        <time>2024-07-18T11:07:53Z</time>
      </trkpt>
      <trkpt lat="48.04639" lon="6.85241">
        <ele>806</ele>
        <time>2024-07-18T11:07:55Z</time>
      </trkpt>
      <trkpt lat="48.0465" lon="6.85229">
        <ele>805.8</ele>
        <time>2024-07-18T11:07:57Z</time>
      </trkpt>
      <trkpt lat="48.04665" lon="6.85221">
        <ele>805.9</ele>
        <time>2024-07-18T11:07:59Z</time>
      </trkpt>
      <trkpt lat="48.0468" lon="6.85216">
        <ele>806.4</ele>
        <time>2024-07-18T11:08:01Z</time>
      </trkpt>
      <trkpt lat="48.0469" lon="6.85214">
        <ele>806.8</ele>
        <time>2024-07-18T11:08:04Z</time>
      </trkpt>
      <trkpt lat="48.04701" lon="6.85205">
        <ele>807.4</ele>
        <time>2024-07-18T11:08:07Z</time>
      </trkpt>
      <trkpt lat="48.0471" lon="6.85192">
        <ele>808</ele>
        <time>2024-07-18T11:08:10Z</time>
      </trkpt>
      <trkpt lat="48.04718" lon="6.85184">
        <ele>808.4</ele>
        <time>2024-07-18T11:08:12Z</time>
      </trkpt>
      <trkpt lat="48.04729" lon="6.85173">
        <ele>809</ele>
        <time>2024-07-18T11:08:15Z</time>
      </trkpt>
      <trkpt lat="48.04738" lon="6.85163">
        <ele>809.7</ele>
        <time>2024-07-18T11:08:18Z</time>
      </trkpt>
      <trkpt lat="48.0474" lon="6.85146">
        <ele>810.4</ele>
        <time>2024-07-18T11:08:21Z</time>
      </trkpt>
      <trkpt lat="48.04737" lon="6.85127">
        <ele>811.1</ele>
        <time>2024-07-18T11:08:24Z</time>
      </trkpt>
      <trkpt lat="48.04731" lon="6.85109">
        <ele>811.9</ele>
        <time>2024-07-18T11:08:27Z</time>
      </trkpt>
      <trkpt lat="48.04725" lon="6.85093">
        <ele>812.7</ele>
        <time>2024-07-18T11:08:30Z</time>
      </trkpt>
      <trkpt lat="48.04718" lon="6.8508">
        <ele>813.3</ele>
        <time>2024-07-18T11:08:33Z</time>
      </trkpt>
      <trkpt lat="48.0471" lon="6.85068">
        <ele>813.9</ele>
        <time>2024-07-18T11:08:36Z</time>
      </trkpt>
      <trkpt lat="48.04708" lon="6.85052">
        <ele>814.4</ele>
        <time>2024-07-18T11:08:39Z</time>
      </trkpt>
      <trkpt lat="48.04711" lon="6.85039">
        <ele>814.9</ele>
        <time>2024-07-18T11:08:42Z</time>
      </trkpt>
      <trkpt lat="48.04716" lon="6.85025">
        <ele>815.5</ele>
        <time>2024-07-18T11:08:46Z</time>
      </trkpt>
      <trkpt lat="48.04716" lon="6.85011">
        <ele>816</ele>
        <time>2024-07-18T11:08:49Z</time>
      </trkpt>
      <trkpt lat="48.04714" lon="6.84995">
        <ele>816.5</ele>
        <time>2024-07-18T11:08:52Z</time>
      </trkpt>
      <trkpt lat="48.04713" lon="6.8498">
        <ele>817</ele>
        <time>2024-07-18T11:08:55Z</time>
      </trkpt>
      <trkpt lat="48.04711" lon="6.84966">
        <ele>817.4</ele>
        <time>2024-07-18T11:08:58Z</time>
      </trkpt>
      <trkpt lat="48.0471" lon="6.84952">
        <ele>817.8</ele>
        <time>2024-07-18T11:09:01Z</time>
      </trkpt>
      <trkpt lat="48.0471" lon="6.84938">
        <ele>818.2</ele>
        <time>2024-07-18T11:09:05Z</time>
      </trkpt>
      <trkpt lat="48.04712" lon="6.84921">
        <ele>818.7</ele>
        <time>2024-07-18T11:09:09Z</time>
      </trkpt>
      <trkpt lat="48.04713" lon="6.84903">
        <ele>819.3</ele>
        <time>2024-07-18T11:09:13Z</time>
      </trkpt>
      <trkpt lat="48.04712" lon="6.84887">
        <ele>819.9</ele>
        <time>2024-07-18T11:09:17Z</time>
      </trkpt>
      <trkpt lat="48.04709" lon="6.84874">
        <ele>820.5</ele>
        <time>2024-07-18T11:09:21Z</time>
      </trkpt>
      <trkpt lat="48.04704" lon="6.84863">
        <ele>821.1</ele>
        <time>2024-07-18T11:09:25Z</time>
      </trkpt>
      <trkpt lat="48.04696" lon="6.84856">
        <ele>821.6</ele>
        <time>2024-07-18T11:09:29Z</time>
      </trkpt>
      <trkpt lat="48.04685" lon="6.8485">
        <ele>822.3</ele>
        <time>2024-07-18T11:09:33Z</time>
      </trkpt>
      <trkpt lat="48.04676" lon="6.84846">
        <ele>822.9</ele>
        <time>2024-07-18T11:09:37Z</time>
      </trkpt>
      <trkpt lat="48.04668" lon="6.84838">
        <ele>823.4</ele>
        <time>2024-07-18T11:09:43Z</time>
      </trkpt>
      <trkpt lat="48.04659" lon="6.8483">
        <ele>823.9</ele>
        <time>2024-07-18T11:09:48Z</time>
      </trkpt>
      <trkpt lat="48.0465" lon="6.84824">
        <ele>824.5</ele>
        <time>2024-07-18T11:09:53Z</time>
      </trkpt>
      <trkpt lat="48.04642" lon="6.84817">
        <ele>825.1</ele>
        <time>2024-07-18T11:09:56Z</time>
      </trkpt>
      <trkpt lat="48.04633" lon="6.84808">
        <ele>825.7</ele>
        <time>2024-07-18T11:10:01Z</time>
      </trkpt>
      <trkpt lat="48.04623" lon="6.84803">
        <ele>826.3</ele>
        <time>2024-07-18T11:10:05Z</time>
      </trkpt>
      <trkpt lat="48.04618" lon="6.84791">
        <ele>826.8</ele>
        <time>2024-07-18T11:10:10Z</time>
      </trkpt>
      <trkpt lat="48.0461" lon="6.84782">
        <ele>827.2</ele>
        <time>2024-07-18T11:10:14Z</time>
      </trkpt>
      <trkpt lat="48.04603" lon="6.84771">
        <ele>827.7</ele>
        <time>2024-07-18T11:10:18Z</time>
      </trkpt>
      <trkpt lat="48.04594" lon="6.84758">
        <ele>828.2</ele>
        <time>2024-07-18T11:10:22Z</time>
      </trkpt>
      <trkpt lat="48.04586" lon="6.84749">
        <ele>828.8</ele>
        <time>2024-07-18T11:10:26Z</time>
      </trkpt>
      <trkpt lat="48.04578" lon="6.84737">
        <ele>829.3</ele>
        <time>2024-07-18T11:10:30Z</time>
      </trkpt>
      <trkpt lat="48.04571" lon="6.84727">
        <ele>829.8</ele>
        <time>2024-07-18T11:10:34Z</time>
      </trkpt>
      <trkpt lat="48.04565" lon="6.84715">
        <ele>830.4</ele>
        <time>2024-07-18T11:10:38Z</time>
      </trkpt>
      <trkpt lat="48.04558" lon="6.84702">
        <ele>831</ele>
        <time>2024-07-18T11:10:43Z</time>
      </trkpt>
      <trkpt lat="48.04552" lon="6.84689">
        <ele>831.5</ele>
        <time>2024-07-18T11:10:47Z</time>
      </trkpt>
      <trkpt lat="48.04546" lon="6.84678">
        <ele>832.1</ele>
        <time>2024-07-18T11:10:51Z</time>
      </trkpt>
      <trkpt lat="48.04536" lon="6.84668">
        <ele>832.7</ele>
        <time>2024-07-18T11:10:56Z</time>
      </trkpt>
      <trkpt lat="48.04528" lon="6.84659">
        <ele>833.6</ele>
        <time>2024-07-18T11:11:01Z</time>
      </trkpt>
      <trkpt lat="48.04519" lon="6.84654">
        <ele>834.3</ele>
        <time>2024-07-18T11:11:06Z</time>
      </trkpt>
      <trkpt lat="48.04508" lon="6.84654">
        <ele>835.1</ele>
        <time>2024-07-18T11:11:11Z</time>
      </trkpt>
      <trkpt lat="48.04499" lon="6.84649">
        <ele>835.6</ele>
        <time>2024-07-18T11:11:15Z</time>
      </trkpt>
      <trkpt lat="48.04489" lon="6.84641">
        <ele>836.2</ele>
        <time>2024-07-18T11:11:18Z</time>
      </trkpt>
      <trkpt lat="48.04483" lon="6.8463">
        <ele>836.7</ele>
        <time>2024-07-18T11:11:22Z</time>
      </trkpt>
      <trkpt lat="48.04478" lon="6.84618">
        <ele>837.1</ele>
        <time>2024-07-18T11:11:26Z</time>
      </trkpt>
      <trkpt lat="48.04472" lon="6.84605">
        <ele>837.4</ele>
        <time>2024-07-18T11:11:30Z</time>
      </trkpt>
      <trkpt lat="48.04465" lon="6.84595">
        <ele>837.5</ele>
        <time>2024-07-18T11:11:33Z</time>
      </trkpt>
      <trkpt lat="48.04457" lon="6.84584">
        <ele>837.6</ele>
        <time>2024-07-18T11:11:36Z</time>
      </trkpt>
      <trkpt lat="48.04452" lon="6.84572">
        <ele>837.6</ele>
        <time>2024-07-18T11:11:39Z</time>
      </trkpt>
      <trkpt lat="48.04451" lon="6.84557">
        <ele>837.6</ele>
        <time>2024-07-18T11:11:42Z</time>
      </trkpt>
      <trkpt lat="48.04447" lon="6.84542">
        <ele>837.6</ele>
        <time>2024-07-18T11:11:45Z</time>
      </trkpt>
      <trkpt lat="48.0444" lon="6.8453">
        <ele>837.5</ele>
        <time>2024-07-18T11:11:48Z</time>
      </trkpt>
      <trkpt lat="48.04431" lon="6.84519">
        <ele>837.5</ele>
        <time>2024-07-18T11:11:51Z</time>
      </trkpt>
      <trkpt lat="48.04422" lon="6.84508">
        <ele>837.5</ele>
        <time>2024-07-18T11:11:54Z</time>
      </trkpt>
      <trkpt lat="48.04413" lon="6.84497">
        <ele>837.6</ele>
        <time>2024-07-18T11:11:57Z</time>
      </trkpt>
      <trkpt lat="48.04405" lon="6.84487">
        <ele>837.6</ele>
        <time>2024-07-18T11:12:00Z</time>
      </trkpt>
      <trkpt lat="48.04396" lon="6.8448">
        <ele>837.6</ele>
        <time>2024-07-18T11:12:03Z</time>
      </trkpt>
      <trkpt lat="48.04385" lon="6.84473">
        <ele>837.6</ele>
        <time>2024-07-18T11:12:07Z</time>
      </trkpt>
      <trkpt lat="48.04373" lon="6.84467">
        <ele>837.6</ele>
        <time>2024-07-18T11:12:10Z</time>
      </trkpt>
      <trkpt lat="48.04362" lon="6.8446">
        <ele>837.6</ele>
        <time>2024-07-18T11:12:13Z</time>
      </trkpt>
      <trkpt lat="48.04352" lon="6.8445">
        <ele>837.6</ele>
        <time>2024-07-18T11:12:16Z</time>
      </trkpt>
      <trkpt lat="48.04342" lon="6.84439">
        <ele>837.7</ele>
        <time>2024-07-18T11:12:19Z</time>
      </trkpt>
      <trkpt lat="48.04334" lon="6.84427">
        <ele>837.6</ele>
        <time>2024-07-18T11:12:22Z</time>
      </trkpt>
      <trkpt lat="48.04334" lon="6.84412">
        <ele>837.6</ele>
        <time>2024-07-18T11:12:24Z</time>
      </trkpt>
      <trkpt lat="48.04344" lon="6.84404">
        <ele>837.6</ele>
        <time>2024-07-18T11:12:28Z</time>
      </trkpt>
      <trkpt lat="48.04352" lon="6.84398">
        <ele>837.6</ele>
        <time>2024-07-18T11:12:31Z</time>
      </trkpt>
      <trkpt lat="48.04362" lon="6.84386">
        <ele>837.6</ele>
        <time>2024-07-18T11:12:35Z</time>
      </trkpt>
      <trkpt lat="48.04368" lon="6.84374">
        <ele>837.6</ele>
        <time>2024-07-18T11:12:38Z</time>
      </trkpt>
      <trkpt lat="48.04375" lon="6.84358">
        <ele>837.7</ele>
        <time>2024-07-18T11:12:41Z</time>
      </trkpt>
      <trkpt lat="48.04383" lon="6.84345">
        <ele>837.8</ele>
        <time>2024-07-18T11:12:44Z</time>
      </trkpt>
      <trkpt lat="48.04391" lon="6.8433">
        <ele>837.9</ele>
        <time>2024-07-18T11:12:47Z</time>
      </trkpt>
      <trkpt lat="48.04396" lon="6.84316">
        <ele>838</ele>
        <time>2024-07-18T11:12:50Z</time>
      </trkpt>
      <trkpt lat="48.04402" lon="6.84301">
        <ele>838.1</ele>
        <time>2024-07-18T11:12:53Z</time>
      </trkpt>
      <trkpt lat="48.04398" lon="6.84281">
        <ele>838.2</ele>
        <time>2024-07-18T11:12:56Z</time>
      </trkpt>
      <trkpt lat="48.04393" lon="6.84263">
        <ele>838.3</ele>
        <time>2024-07-18T11:12:59Z</time>
      </trkpt>
      <trkpt lat="48.04386" lon="6.84247">
        <ele>838.5</ele>
        <time>2024-07-18T11:13:02Z</time>
      </trkpt>
      <trkpt lat="48.0438" lon="6.84234">
        <ele>838.6</ele>
        <time>2024-07-18T11:13:04Z</time>
      </trkpt>
      <trkpt lat="48.04375" lon="6.84223">
        <ele>838.7</ele>
        <time>2024-07-18T11:13:06Z</time>
      </trkpt>
      <trkpt lat="48.04373" lon="6.84204">
        <ele>838.9</ele>
        <time>2024-07-18T11:13:09Z</time>
      </trkpt>
      <trkpt lat="48.04371" lon="6.84191">
        <ele>839.1</ele>
        <time>2024-07-18T11:13:11Z</time>
      </trkpt>
      <trkpt lat="48.04373" lon="6.84175">
        <ele>839.4</ele>
        <time>2024-07-18T11:13:14Z</time>
      </trkpt>
      <trkpt lat="48.04368" lon="6.84161">
        <ele>839.8</ele>
        <time>2024-07-18T11:13:17Z</time>
      </trkpt>
      <trkpt lat="48.04361" lon="6.84149">
        <ele>840.4</ele>
        <time>2024-07-18T11:13:21Z</time>
      </trkpt>
      <trkpt lat="48.04354" lon="6.8414">
        <ele>840.9</ele>
        <time>2024-07-18T11:13:25Z</time>
      </trkpt>
      <trkpt lat="48.04347" lon="6.84131">
        <ele>841.4</ele>
        <time>2024-07-18T11:13:29Z</time>
      </trkpt>
      <trkpt lat="48.04345" lon="6.84115">
        <ele>841.9</ele>
        <time>2024-07-18T11:13:34Z</time>
      </trkpt>
      <trkpt lat="48.04348" lon="6.84101">
        <ele>842.4</ele>
        <time>2024-07-18T11:13:39Z</time>
      </trkpt>
      <trkpt lat="48.04358" lon="6.84094">
        <ele>842.8</ele>
        <time>2024-07-18T11:13:44Z</time>
      </trkpt>
      <trkpt lat="48.04368" lon="6.84092">
        <ele>843.2</ele>
        <time>2024-07-18T11:13:49Z</time>
      </trkpt>
      <trkpt lat="48.04378" lon="6.8409">
        <ele>843.7</ele>
        <time>2024-07-18T11:13:54Z</time>
      </trkpt>
      <trkpt lat="48.04387" lon="6.84087">
        <ele>844.2</ele>
        <time>2024-07-18T11:13:58Z</time>
      </trkpt>
      <trkpt lat="48.04395" lon="6.84081">
        <ele>844.7</ele>
        <time>2024-07-18T11:14:03Z</time>
      </trkpt>
      <trkpt lat="48.04401" lon="6.8407">
        <ele>845.1</ele>
        <time>2024-07-18T11:14:08Z</time>
      </trkpt>
      <trkpt lat="48.04405" lon="6.84054">
        <ele>845</ele>
        <time>2024-07-18T11:14:13Z</time>
      </trkpt>
      <trkpt lat="48.04403" lon="6.84039">
        <ele>844.4</ele>
        <time>2024-07-18T11:14:16Z</time>
      </trkpt>
      <trkpt lat="48.04398" lon="6.84027">
        <ele>843.9</ele>
        <time>2024-07-18T11:14:18Z</time>
      </trkpt>
      <trkpt lat="48.04393" lon="6.84015">
        <ele>843.3</ele>
        <time>2024-07-18T11:14:20Z</time>
      </trkpt>
      <trkpt lat="48.04387" lon="6.84003">
        <ele>842.6</ele>
        <time>2024-07-18T11:14:22Z</time>
      </trkpt>
      <trkpt lat="48.0438" lon="6.83989">
        <ele>841.9</ele>
        <time>2024-07-18T11:14:24Z</time>
      </trkpt>
      <trkpt lat="48.04372" lon="6.83974">
        <ele>841.1</ele>
        <time>2024-07-18T11:14:26Z</time>
      </trkpt>
      <trkpt lat="48.04363" lon="6.8396">
        <ele>840.3</ele>
        <time>2024-07-18T11:14:28Z</time>
      </trkpt>
      <trkpt lat="48.04353" lon="6.83947">
        <ele>839.4</ele>
        <time>2024-07-18T11:14:30Z</time>
      </trkpt>
      <trkpt lat="48.04343" lon="6.83938">
        <ele>838.6</ele>
        <time>2024-07-18T11:14:32Z</time>
      </trkpt>
      <trkpt lat="48.04333" lon="6.8393">
        <ele>837.7</ele>
        <time>2024-07-18T11:14:34Z</time>
      </trkpt>
      <trkpt lat="48.04325" lon="6.83922">
        <ele>836.8</ele>
        <time>2024-07-18T11:14:36Z</time>
      </trkpt>
      <trkpt lat="48.04314" lon="6.83914">
        <ele>835.8</ele>
        <time>2024-07-18T11:14:39Z</time>
      </trkpt>
      <trkpt lat="48.04305" lon="6.839">
        <ele>835.2</ele>
        <time>2024-07-18T11:14:42Z</time>
      </trkpt>
      <trkpt lat="48.04305" lon="6.83883">
        <ele>834.9</ele>
        <time>2024-07-18T11:14:44Z</time>
      </trkpt>
      <trkpt lat="48.04308" lon="6.83868">
        <ele>834.8</ele>
        <time>2024-07-18T11:14:46Z</time>
      </trkpt>
      <trkpt lat="48.04313" lon="6.83852">
        <ele>834.8</ele>
        <time>2024-07-18T11:14:48Z</time>
      </trkpt>
      <trkpt lat="48.04317" lon="6.83838">
        <ele>834.8</ele>
        <time>2024-07-18T11:14:50Z</time>
      </trkpt>
      <trkpt lat="48.04321" lon="6.83826">
        <ele>834.9</ele>
        <time>2024-07-18T11:14:52Z</time>
      </trkpt>
      <trkpt lat="48.04331" lon="6.83815">
        <ele>834.6</ele>
        <time>2024-07-18T11:14:55Z</time>
      </trkpt>
      <trkpt lat="48.04341" lon="6.83811">
        <ele>834.3</ele>
        <time>2024-07-18T11:14:58Z</time>
      </trkpt>
      <trkpt lat="48.04354" lon="6.8381">
        <ele>834</ele>
        <time>2024-07-18T11:15:01Z</time>
      </trkpt>
      <trkpt lat="48.04363" lon="6.8381">
        <ele>833.9</ele>
        <time>2024-07-18T11:15:03Z</time>
      </trkpt>
      <trkpt lat="48.04377" lon="6.83808">
        <ele>833.7</ele>
        <time>2024-07-18T11:15:06Z</time>
      </trkpt>
      <trkpt lat="48.04386" lon="6.83806">
        <ele>833.5</ele>
        <time>2024-07-18T11:15:08Z</time>
      </trkpt>
      <trkpt lat="48.04399" lon="6.83803">
        <ele>833.2</ele>
        <time>2024-07-18T11:15:11Z</time>
      </trkpt>
      <trkpt lat="48.04412" lon="6.83797">
        <ele>832.8</ele>
        <time>2024-07-18T11:15:14Z</time>
      </trkpt>
      <trkpt lat="48.04422" lon="6.83787">
        <ele>832.7</ele>
        <time>2024-07-18T11:15:17Z</time>
      </trkpt>
      <trkpt lat="48.04429" lon="6.83776">
        <ele>833.5</ele>
        <time>2024-07-18T11:15:20Z</time>
      </trkpt>
      <trkpt lat="48.04435" lon="6.83766">
        <ele>834.7</ele>
        <time>2024-07-18T11:15:23Z</time>
      </trkpt>
      <trkpt lat="48.04442" lon="6.83755">
        <ele>836.1</ele>
        <time>2024-07-18T11:15:27Z</time>
      </trkpt>
      <trkpt lat="48.04449" lon="6.83745">
        <ele>837.6</ele>
        <time>2024-07-18T11:15:31Z</time>
      </trkpt>
      <trkpt lat="48.04456" lon="6.83733">
        <ele>839.1</ele>
        <time>2024-07-18T11:15:36Z</time>
      </trkpt>
      <trkpt lat="48.04463" lon="6.83722">
        <ele>840.4</ele>
        <time>2024-07-18T11:15:41Z</time>
      </trkpt>
      <trkpt lat="48.04473" lon="6.83717">
        <ele>840.8</ele>
        <time>2024-07-18T11:15:46Z</time>
      </trkpt>
      <trkpt lat="48.04483" lon="6.83717">
        <ele>840.7</ele>
        <time>2024-07-18T11:15:50Z</time>
      </trkpt>
      <trkpt lat="48.04492" lon="6.83719">
        <ele>840.2</ele>
        <time>2024-07-18T11:15:53Z</time>
      </trkpt>
      <trkpt lat="48.04502" lon="6.83727">
        <ele>839.4</ele>
        <time>2024-07-18T11:15:56Z</time>
      </trkpt>
      <trkpt lat="48.0451" lon="6.83735">
        <ele>838.7</ele>
        <time>2024-07-18T11:15:58Z</time>
      </trkpt>
      <trkpt lat="48.04519" lon="6.83746">
        <ele>837.6</ele>
        <time>2024-07-18T11:16:00Z</time>
      </trkpt>
      <trkpt lat="48.0453" lon="6.83759">
        <ele>836.4</ele>
        <time>2024-07-18T11:16:02Z</time>
      </trkpt>
      <trkpt lat="48.04543" lon="6.83774">
        <ele>835.3</ele>
        <time>2024-07-18T11:16:04Z</time>
      </trkpt>
      <trkpt lat="48.04558" lon="6.83786">
        <ele>835.1</ele>
        <time>2024-07-18T11:16:06Z</time>
      </trkpt>
      <trkpt lat="48.04572" lon="6.83795">
        <ele>835.7</ele>
        <time>2024-07-18T11:16:08Z</time>
      </trkpt>
      <trkpt lat="48.04583" lon="6.838">
        <ele>836.6</ele>
        <time>2024-07-18T11:16:10Z</time>
      </trkpt>
      <trkpt lat="48.04594" lon="6.83802">
        <ele>837.6</ele>
        <time>2024-07-18T11:16:13Z</time>
      </trkpt>
      <trkpt lat="48.04604" lon="6.83806">
        <ele>838.6</ele>
        <time>2024-07-18T11:16:18Z</time>
      </trkpt>
      <trkpt lat="48.04615" lon="6.83805">
        <ele>839.7</ele>
        <time>2024-07-18T11:16:22Z</time>
      </trkpt>
      <trkpt lat="48.04624" lon="6.83801">
        <ele>840.7</ele>
        <time>2024-07-18T11:16:25Z</time>
      </trkpt>
      <trkpt lat="48.04635" lon="6.83796">
        <ele>841.9</ele>
        <time>2024-07-18T11:16:29Z</time>
      </trkpt>
      <trkpt lat="48.04644" lon="6.83792">
        <ele>842.9</ele>
        <time>2024-07-18T11:16:32Z</time>
      </trkpt>
      <trkpt lat="48.04654" lon="6.8379">
        <ele>844</ele>
        <time>2024-07-18T11:16:36Z</time>
      </trkpt>
      <trkpt lat="48.04663" lon="6.83787">
        <ele>845</ele>
        <time>2024-07-18T11:16:41Z</time>
      </trkpt>
      <trkpt lat="48.04673" lon="6.83784">
        <ele>846.1</ele>
        <time>2024-07-18T11:16:48Z</time>
      </trkpt>
      <trkpt lat="48.04682" lon="6.83785">
        <ele>846.9</ele>
        <time>2024-07-18T11:16:53Z</time>
      </trkpt>
      <trkpt lat="48.04692" lon="6.83787">
        <ele>847.9</ele>
        <time>2024-07-18T11:16:59Z</time>
      </trkpt>
      <trkpt lat="48.04702" lon="6.83789">
        <ele>848.9</ele>
        <time>2024-07-18T11:17:05Z</time>
      </trkpt>
      <trkpt lat="48.04712" lon="6.8379">
        <ele>849.9</ele>
        <time>2024-07-18T11:17:11Z</time>
      </trkpt>
      <trkpt lat="48.04723" lon="6.83792">
        <ele>851</ele>
        <time>2024-07-18T11:17:17Z</time>
      </trkpt>
      <trkpt lat="48.04732" lon="6.83795">
        <ele>852.2</ele>
        <time>2024-07-18T11:17:23Z</time>
      </trkpt>
      <trkpt lat="48.04742" lon="6.83798">
        <ele>853.4</ele>
        <time>2024-07-18T11:17:29Z</time>
      </trkpt>
      <trkpt lat="48.04751" lon="6.83801">
        <ele>854.5</ele>
        <time>2024-07-18T11:17:34Z</time>
      </trkpt>
      <trkpt lat="48.0476" lon="6.83806">
        <ele>855.6</ele>
        <time>2024-07-18T11:17:40Z</time>
      </trkpt>
      <trkpt lat="48.04769" lon="6.83809">
        <ele>856.6</ele>
        <time>2024-07-18T11:17:46Z</time>
      </trkpt>
      <trkpt lat="48.04779" lon="6.83811">
        <ele>857.7</ele>
        <time>2024-07-18T11:17:53Z</time>
      </trkpt>
      <trkpt lat="48.04788" lon="6.83812">
        <ele>858.7</ele>
        <time>2024-07-18T11:17:59Z</time>
      </trkpt>
      <trkpt lat="48.04798" lon="6.83812">
        <ele>859.8</ele>
        <time>2024-07-18T11:18:09Z</time>
      </trkpt>
      <trkpt lat="48.04808" lon="6.83812">
        <ele>861</ele>
        <time>2024-07-18T11:18:15Z</time>
      </trkpt>
      <trkpt lat="48.04818" lon="6.83814">
        <ele>862.2</ele>
        <time>2024-07-18T11:18:22Z</time>
      </trkpt>
      <trkpt lat="48.04828" lon="6.83812">
        <ele>863.7</ele>
        <time>2024-07-18T11:18:30Z</time>
      </trkpt>
      <trkpt lat="48.04838" lon="6.83814">
        <ele>865.1</ele>
        <time>2024-07-18T11:18:42Z</time>
      </trkpt>
      <trkpt lat="48.04846" lon="6.83808">
        <ele>866.4</ele>
        <time>2024-07-18T11:18:53Z</time>
      </trkpt>
      <trkpt lat="48.04854" lon="6.83799">
        <ele>867.6</ele>
        <time>2024-07-18T11:19:01Z</time>
      </trkpt>
      <trkpt lat="48.04862" lon="6.83791">
        <ele>868.8</ele>
        <time>2024-07-18T11:19:12Z</time>
      </trkpt>
      <trkpt lat="48.0487" lon="6.83782">
        <ele>869.9</ele>
        <time>2024-07-18T11:19:20Z</time>
      </trkpt>
      <trkpt lat="48.04878" lon="6.83773">
        <ele>870.8</ele>
        <time>2024-07-18T11:19:27Z</time>
      </trkpt>
      <trkpt lat="48.04885" lon="6.83764">
        <ele>871.6</ele>
        <time>2024-07-18T11:19:33Z</time>
      </trkpt>
      <trkpt lat="48.04892" lon="6.83755">
        <ele>872.4</ele>
        <time>2024-07-18T11:19:41Z</time>
      </trkpt>
      <trkpt lat="48.049" lon="6.83747">
        <ele>873.2</ele>
        <time>2024-07-18T11:19:49Z</time>
      </trkpt>
      <trkpt lat="48.04903" lon="6.83734">
        <ele>873.9</ele>
        <time>2024-07-18T11:19:58Z</time>
      </trkpt>
      <trkpt lat="48.04908" lon="6.83721">
        <ele>874.7</ele>
        <time>2024-07-18T11:20:04Z</time>
      </trkpt>
      <trkpt lat="48.04917" lon="6.83719">
        <ele>875</ele>
        <time>2024-07-18T11:20:14Z</time>
      </trkpt>
      <trkpt lat="48.04917" lon="6.83719">
        <ele>875</ele>
        <time>2024-07-18T11:20:15Z</time>
      </trkpt>
      <trkpt lat="48.04917" lon="6.83718">
        <ele>875</ele>
        <time>2024-07-18T11:20:16Z</time>
      </trkpt>
      <trkpt lat="48.04918" lon="6.83716">
        <ele>875</ele>
        <time>2024-07-18T11:20:17Z</time>
      </trkpt>
      <trkpt lat="48.04927" lon="6.83709">
        <ele>875.2</ele>
        <time>2024-07-18T11:20:28Z</time>
      </trkpt>
      <trkpt lat="48.04939" lon="6.83709">
        <ele>875.4</ele>
        <time>2024-07-18T11:20:33Z</time>
      </trkpt>
      <trkpt lat="48.04949" lon="6.83707">
        <ele>875.5</ele>
        <time>2024-07-18T11:20:36Z</time>
      </trkpt>
      <trkpt lat="48.04958" lon="6.83708">
        <ele>875.4</ele>
        <time>2024-07-18T11:20:39Z</time>
      </trkpt>
      <trkpt lat="48.04967" lon="6.83708">
        <ele>875.1</ele>
        <time>2024-07-18T11:20:42Z</time>
      </trkpt>
      <trkpt lat="48.04979" lon="6.83712">
        <ele>874.5</ele>
        <time>2024-07-18T11:20:45Z</time>
      </trkpt>
      <trkpt lat="48.04992" lon="6.83719">
        <ele>873.7</ele>
        <time>2024-07-18T11:20:48Z</time>
      </trkpt>
      <trkpt lat="48.05003" lon="6.83727">
        <ele>873.1</ele>
        <time>2024-07-18T11:20:50Z</time>
      </trkpt>
      <trkpt lat="48.05015" lon="6.83736">
        <ele>872.8</ele>
        <time>2024-07-18T11:20:52Z</time>
      </trkpt>
      <trkpt lat="48.05025" lon="6.83744">
        <ele>872.9</ele>
        <time>2024-07-18T11:20:54Z</time>
      </trkpt>
      <trkpt lat="48.05034" lon="6.83752">
        <ele>873.2</ele>
        <time>2024-07-18T11:20:56Z</time>
      </trkpt>
      <trkpt lat="48.05044" lon="6.83761">
        <ele>873.7</ele>
        <time>2024-07-18T11:20:59Z</time>
      </trkpt>
      <trkpt lat="48.05052" lon="6.8377">
        <ele>874.3</ele>
        <time>2024-07-18T11:21:02Z</time>
      </trkpt>
      <trkpt lat="48.05061" lon="6.83778">
        <ele>875.1</ele>
        <time>2024-07-18T11:21:06Z</time>
      </trkpt>
      <trkpt lat="48.05068" lon="6.83787">
        <ele>876</ele>
        <time>2024-07-18T11:21:09Z</time>
      </trkpt>
      <trkpt lat="48.05075" lon="6.83796">
        <ele>876.9</ele>
        <time>2024-07-18T11:21:12Z</time>
      </trkpt>
      <trkpt lat="48.05081" lon="6.8381">
        <ele>877.8</ele>
        <time>2024-07-18T11:21:15Z</time>
      </trkpt>
      <trkpt lat="48.05085" lon="6.83824">
        <ele>878.8</ele>
        <time>2024-07-18T11:21:19Z</time>
      </trkpt>
      <trkpt lat="48.05089" lon="6.83841">
        <ele>879.9</ele>
        <time>2024-07-18T11:21:23Z</time>
      </trkpt>
      <trkpt lat="48.05091" lon="6.83855">
        <ele>880.9</ele>
        <time>2024-07-18T11:21:26Z</time>
      </trkpt>
      <trkpt lat="48.05095" lon="6.83871">
        <ele>882.2</ele>
        <time>2024-07-18T11:21:30Z</time>
      </trkpt>
      <trkpt lat="48.05101" lon="6.83882">
        <ele>883.3</ele>
        <time>2024-07-18T11:21:34Z</time>
      </trkpt>
      <trkpt lat="48.05109" lon="6.83891">
        <ele>884.6</ele>
        <time>2024-07-18T11:21:38Z</time>
      </trkpt>
      <trkpt lat="48.05117" lon="6.83898">
        <ele>885.9</ele>
        <time>2024-07-18T11:21:49Z</time>
      </trkpt>
      <trkpt lat="48.05126" lon="6.83897">
        <ele>887</ele>
        <time>2024-07-18T11:21:57Z</time>
      </trkpt>
      <trkpt lat="48.05135" lon="6.83893">
        <ele>888.1</ele>
        <time>2024-07-18T11:22:05Z</time>
      </trkpt>
      <trkpt lat="48.05144" lon="6.83889">
        <ele>888.9</ele>
        <time>2024-07-18T11:22:14Z</time>
      </trkpt>
      <trkpt lat="48.05154" lon="6.83887">
        <ele>889.6</ele>
        <time>2024-07-18T11:22:23Z</time>
      </trkpt>
      <trkpt lat="48.05158" lon="6.83886">
        <ele>889.7</ele>
        <time>2024-07-18T11:22:31Z</time>
      </trkpt>
      <trkpt lat="48.05158" lon="6.83886">
        <ele>889.8</ele>
        <time>2024-07-18T11:22:32Z</time>
      </trkpt>
      <trkpt lat="48.05159" lon="6.83886">
        <ele>889.8</ele>
        <time>2024-07-18T11:22:33Z</time>
      </trkpt>
      <trkpt lat="48.0516" lon="6.83886">
        <ele>889.8</ele>
        <time>2024-07-18T11:22:34Z</time>
      </trkpt>
      <trkpt lat="48.05162" lon="6.83885">
        <ele>889.9</ele>
        <time>2024-07-18T11:22:35Z</time>
      </trkpt>
      <trkpt lat="48.05172" lon="6.8388">
        <ele>890.2</ele>
        <time>2024-07-18T11:22:39Z</time>
      </trkpt>
      <trkpt lat="48.05183" lon="6.83878">
        <ele>890.3</ele>
        <time>2024-07-18T11:22:44Z</time>
      </trkpt>
      <trkpt lat="48.05192" lon="6.83877">
        <ele>890.2</ele>
        <time>2024-07-18T11:22:48Z</time>
      </trkpt>
      <trkpt lat="48.05202" lon="6.83875">
        <ele>889.9</ele>
        <time>2024-07-18T11:22:52Z</time>
      </trkpt>
      <trkpt lat="48.05212" lon="6.83875">
        <ele>889.5</ele>
        <time>2024-07-18T11:22:55Z</time>
      </trkpt>
      <trkpt lat="48.05224" lon="6.83877">
        <ele>889.1</ele>
        <time>2024-07-18T11:22:58Z</time>
      </trkpt>
      <trkpt lat="48.05234" lon="6.83875">
        <ele>888.8</ele>
        <time>2024-07-18T11:23:01Z</time>
      </trkpt>
      <trkpt lat="48.05244" lon="6.8387">
        <ele>888.4</ele>
        <time>2024-07-18T11:23:05Z</time>
      </trkpt>
      <trkpt lat="48.05256" lon="6.83866">
        <ele>888</ele>
        <time>2024-07-18T11:23:08Z</time>
      </trkpt>
      <trkpt lat="48.05265" lon="6.83865">
        <ele>887.5</ele>
        <time>2024-07-18T11:23:10Z</time>
      </trkpt>
      <trkpt lat="48.05277" lon="6.83864">
        <ele>886.9</ele>
        <time>2024-07-18T11:23:12Z</time>
      </trkpt>
      <trkpt lat="48.0529" lon="6.83863">
        <ele>885.8</ele>
        <time>2024-07-18T11:23:14Z</time>
      </trkpt>
      <trkpt lat="48.05304" lon="6.83863">
        <ele>884.6</ele>
        <time>2024-07-18T11:23:16Z</time>
      </trkpt>
      <trkpt lat="48.05319" lon="6.83862">
        <ele>883.2</ele>
        <time>2024-07-18T11:23:18Z</time>
      </trkpt>
      <trkpt lat="48.05337" lon="6.83861">
        <ele>881.5</ele>
        <time>2024-07-18T11:23:20Z</time>
      </trkpt>
      <trkpt lat="48.05348" lon="6.83862">
        <ele>880.5</ele>
        <time>2024-07-18T11:23:21Z</time>
      </trkpt>
      <trkpt lat="48.05358" lon="6.83866">
        <ele>879.7</ele>
        <time>2024-07-18T11:23:22Z</time>
      </trkpt>
      <trkpt lat="48.05366" lon="6.83871">
        <ele>878.9</ele>
        <time>2024-07-18T11:23:23Z</time>
      </trkpt>
      <trkpt lat="48.05382" lon="6.83882">
        <ele>877.3</ele>
        <time>2024-07-18T11:23:25Z</time>
      </trkpt>
      <trkpt lat="48.05397" lon="6.83892">
        <ele>875.4</ele>
        <time>2024-07-18T11:23:27Z</time>
      </trkpt>
      <trkpt lat="48.05412" lon="6.839">
        <ele>873.6</ele>
        <time>2024-07-18T11:23:29Z</time>
      </trkpt>
      <trkpt lat="48.05424" lon="6.83906">
        <ele>872.1</ele>
        <time>2024-07-18T11:23:31Z</time>
      </trkpt>
      <trkpt lat="48.05435" lon="6.83915">
        <ele>870.6</ele>
        <time>2024-07-18T11:23:33Z</time>
      </trkpt>
      <trkpt lat="48.05445" lon="6.83929">
        <ele>869</ele>
        <time>2024-07-18T11:23:35Z</time>
      </trkpt>
      <trkpt lat="48.05454" lon="6.83946">
        <ele>867.4</ele>
        <time>2024-07-18T11:23:37Z</time>
      </trkpt>
      <trkpt lat="48.05461" lon="6.83965">
        <ele>865.9</ele>
        <time>2024-07-18T11:23:39Z</time>
      </trkpt>
      <trkpt lat="48.05462" lon="6.83983">
        <ele>864.7</ele>
        <time>2024-07-18T11:23:40Z</time>
      </trkpt>
      <trkpt lat="48.05464" lon="6.83999">
        <ele>863.7</ele>
        <time>2024-07-18T11:23:41Z</time>
      </trkpt>
      <trkpt lat="48.05466" lon="6.84017">
        <ele>862.6</ele>
        <time>2024-07-18T11:23:42Z</time>
      </trkpt>
      <trkpt lat="48.05468" lon="6.84035">
        <ele>861.5</ele>
        <time>2024-07-18T11:23:43Z</time>
      </trkpt>
      <trkpt lat="48.0547" lon="6.84053">
        <ele>860.5</ele>
        <time>2024-07-18T11:23:44Z</time>
      </trkpt>
      <trkpt lat="48.05472" lon="6.84073">
        <ele>859.2</ele>
        <time>2024-07-18T11:23:45Z</time>
      </trkpt>
      <trkpt lat="48.05474" lon="6.84092">
        <ele>857.9</ele>
        <time>2024-07-18T11:23:46Z</time>
      </trkpt>
      <trkpt lat="48.05476" lon="6.84111">
        <ele>856.4</ele>
        <time>2024-07-18T11:23:47Z</time>
      </trkpt>
      <trkpt lat="48.05477" lon="6.84131">
        <ele>855</ele>
        <time>2024-07-18T11:23:48Z</time>
      </trkpt>
      <trkpt lat="48.05478" lon="6.8415">
        <ele>853.6</ele>
        <time>2024-07-18T11:23:49Z</time>
      </trkpt>
      <trkpt lat="48.05479" lon="6.84168">
        <ele>852.2</ele>
        <time>2024-07-18T11:23:50Z</time>
      </trkpt>
      <trkpt lat="48.05481" lon="6.84185">
        <ele>850.8</ele>
        <time>2024-07-18T11:23:51Z</time>
      </trkpt>
      <trkpt lat="48.05481" lon="6.84201">
        <ele>849.6</ele>
        <time>2024-07-18T11:23:52Z</time>
      </trkpt>
      <trkpt lat="48.05482" lon="6.84216">
        <ele>848.4</ele>
        <time>2024-07-18T11:23:53Z</time>
      </trkpt>
      <trkpt lat="48.05482" lon="6.84232">
        <ele>847.2</ele>
        <time>2024-07-18T11:23:54Z</time>
      </trkpt>
      <trkpt lat="48.05482" lon="6.84247">
        <ele>845.9</ele>
        <time>2024-07-18T11:23:55Z</time>
      </trkpt>
      <trkpt lat="48.05485" lon="6.84262">
        <ele>844.8</ele>
        <time>2024-07-18T11:23:56Z</time>
      </trkpt>
      <trkpt lat="48.05489" lon="6.84277">
        <ele>843.6</ele>
        <time>2024-07-18T11:23:57Z</time>
      </trkpt>
      <trkpt lat="48.05494" lon="6.84291">
        <ele>842.4</ele>
        <time>2024-07-18T11:23:58Z</time>
      </trkpt>
      <trkpt lat="48.05498" lon="6.84306">
        <ele>841.3</ele>
        <time>2024-07-18T11:23:59Z</time>
      </trkpt>
      <trkpt lat="48.05502" lon="6.8432">
        <ele>840.3</ele>
        <time>2024-07-18T11:24:00Z</time>
      </trkpt>
      <trkpt lat="48.0551" lon="6.8434">
        <ele>838.8</ele>
        <time>2024-07-18T11:24:02Z</time>
      </trkpt>
      <trkpt lat="48.05517" lon="6.84356">
        <ele>837.6</ele>
        <time>2024-07-18T11:24:04Z</time>
      </trkpt>
      <trkpt lat="48.05524" lon="6.84366">
        <ele>836.8</ele>
        <time>2024-07-18T11:24:06Z</time>
      </trkpt>
      <trkpt lat="48.05533" lon="6.84368">
        <ele>837.6</ele>
        <time>2024-07-18T11:24:08Z</time>
      </trkpt>
      <trkpt lat="48.05543" lon="6.84366">
        <ele>838.4</ele>
        <time>2024-07-18T11:24:11Z</time>
      </trkpt>
      <trkpt lat="48.05553" lon="6.8436">
        <ele>839.2</ele>
        <time>2024-07-18T11:24:15Z</time>
      </trkpt>
      <trkpt lat="48.05563" lon="6.84356">
        <ele>840</ele>
        <time>2024-07-18T11:24:19Z</time>
      </trkpt>
      <trkpt lat="48.05573" lon="6.84355">
        <ele>840.8</ele>
        <time>2024-07-18T11:24:23Z</time>
      </trkpt>
      <trkpt lat="48.05583" lon="6.8435">
        <ele>841.8</ele>
        <time>2024-07-18T11:24:27Z</time>
      </trkpt>
      <trkpt lat="48.05592" lon="6.84345">
        <ele>842.8</ele>
        <time>2024-07-18T11:24:31Z</time>
      </trkpt>
      <trkpt lat="48.05601" lon="6.84337">
        <ele>843.8</ele>
        <time>2024-07-18T11:24:36Z</time>
      </trkpt>
      <trkpt lat="48.0561" lon="6.84327">
        <ele>844.6</ele>
        <time>2024-07-18T11:24:40Z</time>
      </trkpt>
      <trkpt lat="48.05619" lon="6.84321">
        <ele>845</ele>
        <time>2024-07-18T11:24:43Z</time>
      </trkpt>
      <trkpt lat="48.0563" lon="6.84316">
        <ele>845.6</ele>
        <time>2024-07-18T11:24:47Z</time>
      </trkpt>
      <trkpt lat="48.0564" lon="6.84315">
        <ele>846.2</ele>
        <time>2024-07-18T11:24:50Z</time>
      </trkpt>
      <trkpt lat="48.0565" lon="6.84314">
        <ele>847</ele>
        <time>2024-07-18T11:24:53Z</time>
      </trkpt>
      <trkpt lat="48.0566" lon="6.84309">
        <ele>847.9</ele>
        <time>2024-07-18T11:24:58Z</time>
      </trkpt>
      <trkpt lat="48.05669" lon="6.84302">
        <ele>848.7</ele>
        <time>2024-07-18T11:25:02Z</time>
      </trkpt>
      <trkpt lat="48.05679" lon="6.84296">
        <ele>849.6</ele>
        <time>2024-07-18T11:25:07Z</time>
      </trkpt>
      <trkpt lat="48.05688" lon="6.84294">
        <ele>850.2</ele>
        <time>2024-07-18T11:25:12Z</time>
      </trkpt>
      <trkpt lat="48.05699" lon="6.84296">
        <ele>851</ele>
        <time>2024-07-18T11:25:19Z</time>
      </trkpt>
      <trkpt lat="48.05707" lon="6.84291">
        <ele>851.6</ele>
        <time>2024-07-18T11:25:22Z</time>
      </trkpt>
      <trkpt lat="48.05718" lon="6.84288">
        <ele>852.3</ele>
        <time>2024-07-18T11:25:26Z</time>
      </trkpt>
      <trkpt lat="48.05729" lon="6.84285">
        <ele>853</ele>
        <time>2024-07-18T11:25:30Z</time>
      </trkpt>
      <trkpt lat="48.05739" lon="6.84282">
        <ele>853.6</ele>
        <time>2024-07-18T11:25:34Z</time>
      </trkpt>
      <trkpt lat="48.05749" lon="6.8428">
        <ele>854.1</ele>
        <time>2024-07-18T11:25:39Z</time>
      </trkpt>
      <trkpt lat="48.05759" lon="6.84278">
        <ele>854.6</ele>
        <time>2024-07-18T11:25:44Z</time>
      </trkpt>
      <trkpt lat="48.05768" lon="6.84278">
        <ele>855.1</ele>
        <time>2024-07-18T11:25:50Z</time>
      </trkpt>
      <trkpt lat="48.05778" lon="6.84275">
        <ele>855.7</ele>
        <time>2024-07-18T11:25:55Z</time>
      </trkpt>
      <trkpt lat="48.05788" lon="6.84274">
        <ele>856.5</ele>
        <time>2024-07-18T11:26:01Z</time>
      </trkpt>
      <trkpt lat="48.05798" lon="6.84271">
        <ele>857.5</ele>
        <time>2024-07-18T11:26:07Z</time>
      </trkpt>
      <trkpt lat="48.05807" lon="6.84271">
        <ele>858.6</ele>
        <time>2024-07-18T11:26:25Z</time>
      </trkpt>
      <trkpt lat="48.05816" lon="6.84265">
        <ele>859.8</ele>
        <time>2024-07-18T11:26:33Z</time>
      </trkpt>
      <trkpt lat="48.05825" lon="6.84262">
        <ele>861</ele>
        <time>2024-07-18T11:26:43Z</time>
      </trkpt>
      <trkpt lat="48.05831" lon="6.84259">
        <ele>861.8</ele>
        <time>2024-07-18T11:26:56Z</time>
      </trkpt>
      <trkpt lat="48.05831" lon="6.84259">
        <ele>861.8</ele>
        <time>2024-07-18T11:26:57Z</time>
      </trkpt>
      <trkpt lat="48.05831" lon="6.84259">
        <ele>861.8</ele>
        <time>2024-07-18T11:26:58Z</time>
      </trkpt>
      <trkpt lat="48.05831" lon="6.84261">
        <ele>861.9</ele>
        <time>2024-07-18T11:27:03Z</time>
      </trkpt>
      <trkpt lat="48.05831" lon="6.84261">
        <ele>861.9</ele>
        <time>2024-07-18T11:27:04Z</time>
      </trkpt>
      <trkpt lat="48.05831" lon="6.84261">
        <ele>861.9</ele>
        <time>2024-07-18T11:27:05Z</time>
      </trkpt>
      <trkpt lat="48.05831" lon="6.84261">
        <ele>861.9</ele>
        <time>2024-07-18T11:27:06Z</time>
      </trkpt>
      <trkpt lat="48.05831" lon="6.84261">
        <ele>861.9</ele>
        <time>2024-07-18T11:27:07Z</time>
      </trkpt>
      <trkpt lat="48.05831" lon="6.84261">
        <ele>861.9</ele>
        <time>2024-07-18T11:27:08Z</time>
      </trkpt>
      <trkpt lat="48.05832" lon="6.8426">
        <ele>862.2</ele>
        <time>2024-07-18T11:27:11Z</time>
      </trkpt>
      <trkpt lat="48.05833" lon="6.84259">
        <ele>862.4</ele>
        <time>2024-07-18T11:27:12Z</time>
      </trkpt>
      <trkpt lat="48.05833" lon="6.84258">
        <ele>862.6</ele>
        <time>2024-07-18T11:27:13Z</time>
      </trkpt>
      <trkpt lat="48.0584" lon="6.84249">
        <ele>865</ele>
        <time>2024-07-18T11:27:25Z</time>
      </trkpt>
      <trkpt lat="48.05844" lon="6.84236">
        <ele>867.1</ele>
        <time>2024-07-18T11:27:34Z</time>
      </trkpt>
      <trkpt lat="48.05845" lon="6.84222">
        <ele>868.6</ele>
        <time>2024-07-18T11:27:42Z</time>
      </trkpt>
      <trkpt lat="48.05844" lon="6.84208">
        <ele>869.9</ele>
        <time>2024-07-18T11:27:50Z</time>
      </trkpt>
      <trkpt lat="48.05844" lon="6.84193">
        <ele>871.3</ele>
        <time>2024-07-18T11:28:00Z</time>
      </trkpt>
      <trkpt lat="48.05843" lon="6.84179">
        <ele>872.4</ele>
        <time>2024-07-18T11:28:09Z</time>
      </trkpt>
      <trkpt lat="48.05844" lon="6.84164">
        <ele>873.3</ele>
        <time>2024-07-18T11:28:16Z</time>
      </trkpt>
      <trkpt lat="48.05846" lon="6.84151">
        <ele>873.8</ele>
        <time>2024-07-18T11:28:23Z</time>
      </trkpt>
      <trkpt lat="48.05847" lon="6.84137">
        <ele>874.1</ele>
        <time>2024-07-18T11:28:36Z</time>
      </trkpt>
      <trkpt lat="48.05852" lon="6.84121">
        <ele>873</ele>
        <time>2024-07-18T11:28:41Z</time>
      </trkpt>
      <trkpt lat="48.05858" lon="6.84103">
        <ele>871.7</ele>
        <time>2024-07-18T11:28:44Z</time>
      </trkpt>
      <trkpt lat="48.05861" lon="6.84085">
        <ele>870.2</ele>
        <time>2024-07-18T11:28:46Z</time>
      </trkpt>
      <trkpt lat="48.0586" lon="6.84062">
        <ele>868.3</ele>
        <time>2024-07-18T11:28:48Z</time>
      </trkpt>
      <trkpt lat="48.05856" lon="6.84037">
        <ele>866.7</ele>
        <time>2024-07-18T11:28:50Z</time>
      </trkpt>
      <trkpt lat="48.05855" lon="6.84016">
        <ele>866</ele>
        <time>2024-07-18T11:28:52Z</time>
      </trkpt>
      <trkpt lat="48.05859" lon="6.83998">
        <ele>865.6</ele>
        <time>2024-07-18T11:28:54Z</time>
      </trkpt>
      <trkpt lat="48.05859" lon="6.8398">
        <ele>865.4</ele>
        <time>2024-07-18T11:28:56Z</time>
      </trkpt>
      <trkpt lat="48.05855" lon="6.83965">
        <ele>865.3</ele>
        <time>2024-07-18T11:28:58Z</time>
      </trkpt>
      <trkpt lat="48.05851" lon="6.83951">
        <ele>865.1</ele>
        <time>2024-07-18T11:29:00Z</time>
      </trkpt>
      <trkpt lat="48.0585" lon="6.83936">
        <ele>864.8</ele>
        <time>2024-07-18T11:29:02Z</time>
      </trkpt>
      <trkpt lat="48.0585" lon="6.8392">
        <ele>864.3</ele>
        <time>2024-07-18T11:29:04Z</time>
      </trkpt>
      <trkpt lat="48.0585" lon="6.83904">
        <ele>863.9</ele>
        <time>2024-07-18T11:29:06Z</time>
      </trkpt>
      <trkpt lat="48.05849" lon="6.83889">
        <ele>863.4</ele>
        <time>2024-07-18T11:29:08Z</time>
      </trkpt>
      <trkpt lat="48.05848" lon="6.83874">
        <ele>863.1</ele>
        <time>2024-07-18T11:29:10Z</time>
      </trkpt>
      <trkpt lat="48.05847" lon="6.83856">
        <ele>862.9</ele>
        <time>2024-07-18T11:29:12Z</time>
      </trkpt>
      <trkpt lat="48.05847" lon="6.83837">
        <ele>862.9</ele>
        <time>2024-07-18T11:29:14Z</time>
      </trkpt>
      <trkpt lat="48.0585" lon="6.8382">
        <ele>863.2</ele>
        <time>2024-07-18T11:29:16Z</time>
      </trkpt>
      <trkpt lat="48.05852" lon="6.83804">
        <ele>863.6</ele>
        <time>2024-07-18T11:29:18Z</time>
      </trkpt>
      <trkpt lat="48.05854" lon="6.83788">
        <ele>864.1</ele>
        <time>2024-07-18T11:29:21Z</time>
      </trkpt>
      <trkpt lat="48.05859" lon="6.83774">
        <ele>864.7</ele>
        <time>2024-07-18T11:29:26Z</time>
      </trkpt>
      <trkpt lat="48.05865" lon="6.83765">
        <ele>865</ele>
        <time>2024-07-18T11:29:31Z</time>
      </trkpt>
      <trkpt lat="48.05874" lon="6.83768">
        <ele>865.3</ele>
        <time>2024-07-18T11:29:39Z</time>
      </trkpt>
      <trkpt lat="48.05879" lon="6.83764">
        <ele>865.8</ele>
        <time>2024-07-18T11:29:50Z</time>
      </trkpt>
      <trkpt lat="48.05879" lon="6.83764">
        <ele>865.8</ele>
        <time>2024-07-18T11:29:51Z</time>
      </trkpt>
      <trkpt lat="48.05878" lon="6.83763">
        <ele>865.8</ele>
        <time>2024-07-18T11:29:52Z</time>
      </trkpt>
      <trkpt lat="48.05878" lon="6.83763">
        <ele>865.8</ele>
        <time>2024-07-18T11:29:53Z</time>
      </trkpt>
      <trkpt lat="48.05879" lon="6.83762">
        <ele>865.9</ele>
        <time>2024-07-18T11:29:54Z</time>
      </trkpt>
      <trkpt lat="48.05876" lon="6.83757">
        <ele>866.3</ele>
        <time>2024-07-18T11:30:04Z</time>
      </trkpt>
      <trkpt lat="48.05876" lon="6.83758">
        <ele>866.4</ele>
        <time>2024-07-18T11:30:05Z</time>
      </trkpt>
      <trkpt lat="48.05878" lon="6.83763">
        <ele>866.8</ele>
        <time>2024-07-18T11:30:15Z</time>
      </trkpt>
      <trkpt lat="48.05878" lon="6.83763">
        <ele>866.8</ele>
        <time>2024-07-18T11:30:16Z</time>
      </trkpt>
      <trkpt lat="48.05878" lon="6.83763">
        <ele>866.8</ele>
        <time>2024-07-18T11:30:17Z</time>
      </trkpt>
      <trkpt lat="48.05876" lon="6.83764">
        <ele>867</ele>
        <time>2024-07-18T11:30:23Z</time>
      </trkpt>
      <trkpt lat="48.05883" lon="6.83757">
        <ele>867.7</ele>
        <time>2024-07-18T12:48:09Z</time>
      </trkpt>
      <trkpt lat="48.05879" lon="6.83754">
        <ele>868.2</ele>
        <time>2024-07-18T12:48:29Z</time>
      </trkpt>
      <trkpt lat="48.05879" lon="6.83754">
        <ele>868.2</ele>
        <time>2024-07-18T12:48:30Z</time>
      </trkpt>
      <trkpt lat="48.05879" lon="6.83754">
        <ele>868.2</ele>
        <time>2024-07-18T12:48:38Z</time>
      </trkpt>
      <trkpt lat="48.05879" lon="6.83754">
        <ele>868.2</ele>
        <time>2024-07-18T12:48:39Z</time>
      </trkpt>
      <trkpt lat="48.05879" lon="6.83754">
        <ele>868.2</ele>
        <time>2024-07-18T12:48:40Z</time>
      </trkpt>
      <trkpt lat="48.05878" lon="6.83754">
        <ele>868.3</ele>
        <time>2024-07-18T12:48:43Z</time>
      </trkpt>
      <trkpt lat="48.05878" lon="6.83754">
        <ele>868.3</ele>
        <time>2024-07-18T12:48:44Z</time>
      </trkpt>
      <trkpt lat="48.05878" lon="6.83753">
        <ele>868.3</ele>
        <time>2024-07-18T12:48:45Z</time>
      </trkpt>
      <trkpt lat="48.05878" lon="6.83753">
        <ele>868.4</ele>
        <time>2024-07-18T12:48:46Z</time>
      </trkpt>
      <trkpt lat="48.05878" lon="6.83753">
        <ele>868.4</ele>
        <time>2024-07-18T12:48:47Z</time>
      </trkpt>
      <trkpt lat="48.05879" lon="6.83752">
        <ele>868.5</ele>
        <time>2024-07-18T12:48:50Z</time>
      </trkpt>
      <trkpt lat="48.05879" lon="6.83752">
        <ele>868.5</ele>
        <time>2024-07-18T12:48:51Z</time>
      </trkpt>
      <trkpt lat="48.0588" lon="6.83752">
        <ele>868.6</ele>
        <time>2024-07-18T12:48:52Z</time>
      </trkpt>
      <trkpt lat="48.0588" lon="6.83753">
        <ele>868.7</ele>
        <time>2024-07-18T12:48:53Z</time>
      </trkpt>
      <trkpt lat="48.0588" lon="6.83752">
        <ele>868.7</ele>
        <time>2024-07-18T12:48:54Z</time>
      </trkpt>
      <trkpt lat="48.05881" lon="6.83753">
        <ele>868.8</ele>
        <time>2024-07-18T12:48:58Z</time>
      </trkpt>
      <trkpt lat="48.05881" lon="6.83753">
        <ele>868.8</ele>
        <time>2024-07-18T12:48:59Z</time>
      </trkpt>
      <trkpt lat="48.05881" lon="6.83753">
        <ele>868.8</ele>
        <time>2024-07-18T12:49:05Z</time>
      </trkpt>
      <trkpt lat="48.05881" lon="6.83754">
        <ele>868.8</ele>
        <time>2024-07-18T12:49:06Z</time>
      </trkpt>
      <trkpt lat="48.05881" lon="6.83753">
        <ele>868.9</ele>
        <time>2024-07-18T12:49:07Z</time>
      </trkpt>
      <trkpt lat="48.05881" lon="6.83753">
        <ele>868.9</ele>
        <time>2024-07-18T12:49:08Z</time>
      </trkpt>
      <trkpt lat="48.05881" lon="6.83753">
        <ele>868.9</ele>
        <time>2024-07-18T12:49:09Z</time>
      </trkpt>
      <trkpt lat="48.05881" lon="6.83753">
        <ele>868.9</ele>
        <time>2024-07-18T12:49:10Z</time>
      </trkpt>
      <trkpt lat="48.05882" lon="6.83753">
        <ele>868.9</ele>
        <time>2024-07-18T12:49:11Z</time>
      </trkpt>
      <trkpt lat="48.05882" lon="6.83753">
        <ele>868.9</ele>
        <time>2024-07-18T12:49:12Z</time>
      </trkpt>
      <trkpt lat="48.05882" lon="6.83753">
        <ele>868.9</ele>
        <time>2024-07-18T12:49:13Z</time>
      </trkpt>
      <trkpt lat="48.05882" lon="6.83753">
        <ele>868.9</ele>
        <time>2024-07-18T12:49:14Z</time>
      </trkpt>
      <trkpt lat="48.05882" lon="6.83753">
        <ele>868.9</ele>
        <time>2024-07-18T12:49:18Z</time>
      </trkpt>
      <trkpt lat="48.05881" lon="6.83753">
        <ele>869</ele>
        <time>2024-07-18T12:49:19Z</time>
      </trkpt>
      <trkpt lat="48.05881" lon="6.83752">
        <ele>869</ele>
        <time>2024-07-18T12:49:23Z</time>
      </trkpt>
      <trkpt lat="48.05881" lon="6.83752">
        <ele>869</ele>
        <time>2024-07-18T12:49:24Z</time>
      </trkpt>
      <trkpt lat="48.05881" lon="6.83752">
        <ele>869</ele>
        <time>2024-07-18T12:49:25Z</time>
      </trkpt>
      <trkpt lat="48.05881" lon="6.83751">
        <ele>869.1</ele>
        <time>2024-07-18T12:49:26Z</time>
      </trkpt>
      <trkpt lat="48.05881" lon="6.8375">
        <ele>869.1</ele>
        <time>2024-07-18T12:49:27Z</time>
      </trkpt>
      <trkpt lat="48.05872" lon="6.83746">
        <ele>870.3</ele>
        <time>2024-07-18T12:49:34Z</time>
      </trkpt>
      <trkpt lat="48.05863" lon="6.83741">
        <ele>871.4</ele>
        <time>2024-07-18T12:49:49Z</time>
      </trkpt>
      <trkpt lat="48.05871" lon="6.83731">
        <ele>872.6</ele>
        <time>2024-07-18T12:49:56Z</time>
      </trkpt>
      <trkpt lat="48.05877" lon="6.83721">
        <ele>873.7</ele>
        <time>2024-07-18T12:50:02Z</time>
      </trkpt>
      <trkpt lat="48.05883" lon="6.8371">
        <ele>874.7</ele>
        <time>2024-07-18T12:50:08Z</time>
      </trkpt>
      <trkpt lat="48.05889" lon="6.83698">
        <ele>875.7</ele>
        <time>2024-07-18T12:50:13Z</time>
      </trkpt>
      <trkpt lat="48.05895" lon="6.83686">
        <ele>876.8</ele>
        <time>2024-07-18T12:50:20Z</time>
      </trkpt>
      <trkpt lat="48.05902" lon="6.83676">
        <ele>877.9</ele>
        <time>2024-07-18T12:50:26Z</time>
      </trkpt>
      <trkpt lat="48.05905" lon="6.83661">
        <ele>879.1</ele>
        <time>2024-07-18T12:50:31Z</time>
      </trkpt>
      <trkpt lat="48.05906" lon="6.83647">
        <ele>880.2</ele>
        <time>2024-07-18T12:50:38Z</time>
      </trkpt>
      <trkpt lat="48.05913" lon="6.83638">
        <ele>881.3</ele>
        <time>2024-07-18T12:50:46Z</time>
      </trkpt>
      <trkpt lat="48.0592" lon="6.83628">
        <ele>882.5</ele>
        <time>2024-07-18T12:50:55Z</time>
      </trkpt>
      <trkpt lat="48.05926" lon="6.83617">
        <ele>883.7</ele>
        <time>2024-07-18T12:51:05Z</time>
      </trkpt>
      <trkpt lat="48.05932" lon="6.83607">
        <ele>884.8</ele>
        <time>2024-07-18T12:51:14Z</time>
      </trkpt>
      <trkpt lat="48.05939" lon="6.83596">
        <ele>886</ele>
        <time>2024-07-18T12:51:23Z</time>
      </trkpt>
      <trkpt lat="48.05941" lon="6.83582">
        <ele>887.2</ele>
        <time>2024-07-18T12:51:31Z</time>
      </trkpt>
      <trkpt lat="48.05939" lon="6.83567">
        <ele>888.7</ele>
        <time>2024-07-18T12:51:39Z</time>
      </trkpt>
      <trkpt lat="48.0593" lon="6.83558">
        <ele>890.3</ele>
        <time>2024-07-18T12:51:45Z</time>
      </trkpt>
      <trkpt lat="48.05923" lon="6.83549">
        <ele>891.5</ele>
        <time>2024-07-18T12:51:52Z</time>
      </trkpt>
      <trkpt lat="48.05914" lon="6.83542">
        <ele>892.5</ele>
        <time>2024-07-18T12:52:05Z</time>
      </trkpt>
      <trkpt lat="48.0591" lon="6.83535">
        <ele>893.1</ele>
        <time>2024-07-18T12:52:14Z</time>
      </trkpt>
      <trkpt lat="48.05909" lon="6.83534">
        <ele>893.2</ele>
        <time>2024-07-18T12:52:15Z</time>
      </trkpt>
      <trkpt lat="48.05908" lon="6.83531">
        <ele>893.3</ele>
        <time>2024-07-18T12:52:16Z</time>
      </trkpt>
      <trkpt lat="48.05908" lon="6.83529">
        <ele>893.4</ele>
        <time>2024-07-18T12:52:17Z</time>
      </trkpt>
      <trkpt lat="48.05902" lon="6.83517">
        <ele>894.2</ele>
        <time>2024-07-18T12:52:23Z</time>
      </trkpt>
      <trkpt lat="48.05894" lon="6.83506">
        <ele>895</ele>
        <time>2024-07-18T12:52:29Z</time>
      </trkpt>
      <trkpt lat="48.05889" lon="6.83492">
        <ele>896</ele>
        <time>2024-07-18T12:52:35Z</time>
      </trkpt>
      <trkpt lat="48.05886" lon="6.83478">
        <ele>896.9</ele>
        <time>2024-07-18T12:52:39Z</time>
      </trkpt>
      <trkpt lat="48.05885" lon="6.83465">
        <ele>897.9</ele>
        <time>2024-07-18T12:52:44Z</time>
      </trkpt>
      <trkpt lat="48.05883" lon="6.83451">
        <ele>898.9</ele>
        <time>2024-07-18T12:52:49Z</time>
      </trkpt>
      <trkpt lat="48.05881" lon="6.83436">
        <ele>899.8</ele>
        <time>2024-07-18T12:52:55Z</time>
      </trkpt>
      <trkpt lat="48.05879" lon="6.83421">
        <ele>900.2</ele>
        <time>2024-07-18T12:53:01Z</time>
      </trkpt>
      <trkpt lat="48.05876" lon="6.83407">
        <ele>900.8</ele>
        <time>2024-07-18T12:53:06Z</time>
      </trkpt>
      <trkpt lat="48.05874" lon="6.83392">
        <ele>901.4</ele>
        <time>2024-07-18T12:53:12Z</time>
      </trkpt>
      <trkpt lat="48.05872" lon="6.83378">
        <ele>902.1</ele>
        <time>2024-07-18T12:53:17Z</time>
      </trkpt>
      <trkpt lat="48.05868" lon="6.83363">
        <ele>902.8</ele>
        <time>2024-07-18T12:53:23Z</time>
      </trkpt>
      <trkpt lat="48.05864" lon="6.83351">
        <ele>903.4</ele>
        <time>2024-07-18T12:53:28Z</time>
      </trkpt>
      <trkpt lat="48.05858" lon="6.83337">
        <ele>904.1</ele>
        <time>2024-07-18T12:53:34Z</time>
      </trkpt>
      <trkpt lat="48.05852" lon="6.83324">
        <ele>904.8</ele>
        <time>2024-07-18T12:53:40Z</time>
      </trkpt>
      <trkpt lat="48.05846" lon="6.83313">
        <ele>905.5</ele>
        <time>2024-07-18T12:53:47Z</time>
      </trkpt>
      <trkpt lat="48.05839" lon="6.83303">
        <ele>906.3</ele>
        <time>2024-07-18T12:53:51Z</time>
      </trkpt>
      <trkpt lat="48.05832" lon="6.83292">
        <ele>907.2</ele>
        <time>2024-07-18T12:53:56Z</time>
      </trkpt>
      <trkpt lat="48.05824" lon="6.83282">
        <ele>908.2</ele>
        <time>2024-07-18T12:54:01Z</time>
      </trkpt>
      <trkpt lat="48.05816" lon="6.83271">
        <ele>909.2</ele>
        <time>2024-07-18T12:54:07Z</time>
      </trkpt>
      <trkpt lat="48.05809" lon="6.83262">
        <ele>910.1</ele>
        <time>2024-07-18T12:54:11Z</time>
      </trkpt>
      <trkpt lat="48.05801" lon="6.83252">
        <ele>911.2</ele>
        <time>2024-07-18T12:54:21Z</time>
      </trkpt>
      <trkpt lat="48.05794" lon="6.83242">
        <ele>912</ele>
        <time>2024-07-18T12:54:27Z</time>
      </trkpt>
      <trkpt lat="48.05785" lon="6.83231">
        <ele>913</ele>
        <time>2024-07-18T12:54:32Z</time>
      </trkpt>
      <trkpt lat="48.05777" lon="6.83224">
        <ele>913.9</ele>
        <time>2024-07-18T12:54:38Z</time>
      </trkpt>
      <trkpt lat="48.05768" lon="6.83219">
        <ele>914.8</ele>
        <time>2024-07-18T12:54:44Z</time>
      </trkpt>
      <trkpt lat="48.0576" lon="6.83211">
        <ele>915.6</ele>
        <time>2024-07-18T12:54:50Z</time>
      </trkpt>
      <trkpt lat="48.05753" lon="6.83202">
        <ele>916.4</ele>
        <time>2024-07-18T12:54:56Z</time>
      </trkpt>
      <trkpt lat="48.05746" lon="6.8319">
        <ele>917.3</ele>
        <time>2024-07-18T12:55:03Z</time>
      </trkpt>
      <trkpt lat="48.05738" lon="6.83184">
        <ele>918</ele>
        <time>2024-07-18T12:55:08Z</time>
      </trkpt>
      <trkpt lat="48.05728" lon="6.83179">
        <ele>918.3</ele>
        <time>2024-07-18T12:55:14Z</time>
      </trkpt>
      <trkpt lat="48.05719" lon="6.83175">
        <ele>918.4</ele>
        <time>2024-07-18T12:55:19Z</time>
      </trkpt>
      <trkpt lat="48.05711" lon="6.8317">
        <ele>918.9</ele>
        <time>2024-07-18T12:55:24Z</time>
      </trkpt>
      <trkpt lat="48.05703" lon="6.83163">
        <ele>919.4</ele>
        <time>2024-07-18T12:55:30Z</time>
      </trkpt>
      <trkpt lat="48.05696" lon="6.83154">
        <ele>919.9</ele>
        <time>2024-07-18T12:55:36Z</time>
      </trkpt>
      <trkpt lat="48.05689" lon="6.83145">
        <ele>920.4</ele>
        <time>2024-07-18T12:55:41Z</time>
      </trkpt>
      <trkpt lat="48.05681" lon="6.83136">
        <ele>921</ele>
        <time>2024-07-18T12:55:45Z</time>
      </trkpt>
      <trkpt lat="48.05673" lon="6.83129">
        <ele>921.6</ele>
        <time>2024-07-18T12:55:49Z</time>
      </trkpt>
      <trkpt lat="48.05664" lon="6.8312">
        <ele>922.4</ele>
        <time>2024-07-18T12:55:54Z</time>
      </trkpt>
      <trkpt lat="48.05655" lon="6.83114">
        <ele>922.9</ele>
        <time>2024-07-18T12:55:58Z</time>
      </trkpt>
      <trkpt lat="48.05642" lon="6.83119">
        <ele>921.6</ele>
        <time>2024-07-18T12:56:02Z</time>
      </trkpt>
      <trkpt lat="48.05632" lon="6.83118">
        <ele>920.5</ele>
        <time>2024-07-18T12:56:04Z</time>
      </trkpt>
      <trkpt lat="48.05621" lon="6.83118">
        <ele>919.6</ele>
        <time>2024-07-18T12:56:06Z</time>
      </trkpt>
      <trkpt lat="48.05608" lon="6.83118">
        <ele>918.8</ele>
        <time>2024-07-18T12:56:08Z</time>
      </trkpt>
      <trkpt lat="48.05596" lon="6.83117">
        <ele>918.1</ele>
        <time>2024-07-18T12:56:10Z</time>
      </trkpt>
      <trkpt lat="48.05583" lon="6.83118">
        <ele>917.6</ele>
        <time>2024-07-18T12:56:12Z</time>
      </trkpt>
      <trkpt lat="48.05572" lon="6.83122">
        <ele>917.2</ele>
        <time>2024-07-18T12:56:14Z</time>
      </trkpt>
      <trkpt lat="48.05562" lon="6.83128">
        <ele>916.8</ele>
        <time>2024-07-18T12:56:16Z</time>
      </trkpt>
      <trkpt lat="48.05553" lon="6.83133">
        <ele>916.4</ele>
        <time>2024-07-18T12:56:18Z</time>
      </trkpt>
      <trkpt lat="48.0554" lon="6.83141">
        <ele>915.7</ele>
        <time>2024-07-18T12:56:21Z</time>
      </trkpt>
      <trkpt lat="48.05531" lon="6.83148">
        <ele>915</ele>
        <time>2024-07-18T12:56:23Z</time>
      </trkpt>
      <trkpt lat="48.05521" lon="6.83154">
        <ele>914.1</ele>
        <time>2024-07-18T12:56:25Z</time>
      </trkpt>
      <trkpt lat="48.05511" lon="6.83162">
        <ele>913.3</ele>
        <time>2024-07-18T12:56:27Z</time>
      </trkpt>
      <trkpt lat="48.055" lon="6.83169">
        <ele>912.3</ele>
        <time>2024-07-18T12:56:29Z</time>
      </trkpt>
      <trkpt lat="48.05491" lon="6.83175">
        <ele>911.3</ele>
        <time>2024-07-18T12:56:31Z</time>
      </trkpt>
      <trkpt lat="48.05481" lon="6.83186">
        <ele>909.8</ele>
        <time>2024-07-18T12:56:34Z</time>
      </trkpt>
      <trkpt lat="48.05478" lon="6.83201">
        <ele>909</ele>
        <time>2024-07-18T12:56:36Z</time>
      </trkpt>
      <trkpt lat="48.0548" lon="6.83221">
        <ele>907.8</ele>
        <time>2024-07-18T12:56:38Z</time>
      </trkpt>
      <trkpt lat="48.05483" lon="6.83243">
        <ele>906.5</ele>
        <time>2024-07-18T12:56:40Z</time>
      </trkpt>
      <trkpt lat="48.05483" lon="6.83269">
        <ele>905.2</ele>
        <time>2024-07-18T12:56:42Z</time>
      </trkpt>
      <trkpt lat="48.05484" lon="6.83283">
        <ele>904.6</ele>
        <time>2024-07-18T12:56:43Z</time>
      </trkpt>
      <trkpt lat="48.05484" lon="6.83307">
        <ele>903.6</ele>
        <time>2024-07-18T12:56:45Z</time>
      </trkpt>
      <trkpt lat="48.05487" lon="6.83326">
        <ele>902.8</ele>
        <time>2024-07-18T12:56:47Z</time>
      </trkpt>
      <trkpt lat="48.05484" lon="6.83343">
        <ele>902.3</ele>
        <time>2024-07-18T12:56:49Z</time>
      </trkpt>
      <trkpt lat="48.05477" lon="6.83362">
        <ele>902.3</ele>
        <time>2024-07-18T12:56:51Z</time>
      </trkpt>
      <trkpt lat="48.05474" lon="6.83378">
        <ele>902.4</ele>
        <time>2024-07-18T12:56:53Z</time>
      </trkpt>
      <trkpt lat="48.05475" lon="6.83392">
        <ele>902.5</ele>
        <time>2024-07-18T12:56:55Z</time>
      </trkpt>
      <trkpt lat="48.05476" lon="6.83406">
        <ele>902.7</ele>
        <time>2024-07-18T12:56:57Z</time>
      </trkpt>
      <trkpt lat="48.05474" lon="6.83424">
        <ele>903.2</ele>
        <time>2024-07-18T12:57:00Z</time>
      </trkpt>
      <trkpt lat="48.0547" lon="6.8344">
        <ele>903.6</ele>
        <time>2024-07-18T12:57:03Z</time>
      </trkpt>
      <trkpt lat="48.0547" lon="6.83457">
        <ele>904.6</ele>
        <time>2024-07-18T12:57:07Z</time>
      </trkpt>
      <trkpt lat="48.0547" lon="6.83472">
        <ele>905.5</ele>
        <time>2024-07-18T12:57:10Z</time>
      </trkpt>
      <trkpt lat="48.05469" lon="6.83486">
        <ele>906.1</ele>
        <time>2024-07-18T12:57:13Z</time>
      </trkpt>
      <trkpt lat="48.05469" lon="6.83502">
        <ele>906.5</ele>
        <time>2024-07-18T12:57:16Z</time>
      </trkpt>
      <trkpt lat="48.05469" lon="6.8352">
        <ele>906.8</ele>
        <time>2024-07-18T12:57:19Z</time>
      </trkpt>
      <trkpt lat="48.05469" lon="6.8354">
        <ele>907</ele>
        <time>2024-07-18T12:57:22Z</time>
      </trkpt>
      <trkpt lat="48.05468" lon="6.83559">
        <ele>907.2</ele>
        <time>2024-07-18T12:57:25Z</time>
      </trkpt>
      <trkpt lat="48.05469" lon="6.83574">
        <ele>907.5</ele>
        <time>2024-07-18T12:57:28Z</time>
      </trkpt>
      <trkpt lat="48.05467" lon="6.83587">
        <ele>907.9</ele>
        <time>2024-07-18T12:57:32Z</time>
      </trkpt>
      <trkpt lat="48.0546" lon="6.83598">
        <ele>908.3</ele>
        <time>2024-07-18T12:57:36Z</time>
      </trkpt>
      <trkpt lat="48.05455" lon="6.83612">
        <ele>908.9</ele>
        <time>2024-07-18T12:57:40Z</time>
      </trkpt>
      <trkpt lat="48.05451" lon="6.83626">
        <ele>909.5</ele>
        <time>2024-07-18T12:57:44Z</time>
      </trkpt>
      <trkpt lat="48.05442" lon="6.83636">
        <ele>910.3</ele>
        <time>2024-07-18T12:57:48Z</time>
      </trkpt>
      <trkpt lat="48.05434" lon="6.83645">
        <ele>911</ele>
        <time>2024-07-18T12:57:52Z</time>
      </trkpt>
      <trkpt lat="48.05424" lon="6.8365">
        <ele>911.6</ele>
        <time>2024-07-18T12:57:56Z</time>
      </trkpt>
      <trkpt lat="48.05415" lon="6.8365">
        <ele>912.1</ele>
        <time>2024-07-18T12:58:00Z</time>
      </trkpt>
      <trkpt lat="48.05406" lon="6.8365">
        <ele>912.6</ele>
        <time>2024-07-18T12:58:04Z</time>
      </trkpt>
      <trkpt lat="48.05395" lon="6.83652">
        <ele>913.2</ele>
        <time>2024-07-18T12:58:10Z</time>
      </trkpt>
      <trkpt lat="48.05386" lon="6.83656">
        <ele>914.1</ele>
        <time>2024-07-18T12:58:15Z</time>
      </trkpt>
      <trkpt lat="48.05376" lon="6.83662">
        <ele>915.3</ele>
        <time>2024-07-18T12:58:23Z</time>
      </trkpt>
      <trkpt lat="48.05366" lon="6.83668">
        <ele>916.7</ele>
        <time>2024-07-18T12:58:29Z</time>
      </trkpt>
      <trkpt lat="48.05358" lon="6.83675">
        <ele>917.8</ele>
        <time>2024-07-18T12:58:35Z</time>
      </trkpt>
      <trkpt lat="48.05349" lon="6.83684">
        <ele>918.8</ele>
        <time>2024-07-18T12:58:41Z</time>
      </trkpt>
      <trkpt lat="48.05343" lon="6.83697">
        <ele>919.7</ele>
        <time>2024-07-18T12:58:47Z</time>
      </trkpt>
      <trkpt lat="48.05335" lon="6.83705">
        <ele>920.3</ele>
        <time>2024-07-18T12:58:52Z</time>
      </trkpt>
      <trkpt lat="48.05327" lon="6.83712">
        <ele>920.8</ele>
        <time>2024-07-18T12:58:58Z</time>
      </trkpt>
      <trkpt lat="48.05317" lon="6.83719">
        <ele>921.2</ele>
        <time>2024-07-18T12:59:03Z</time>
      </trkpt>
      <trkpt lat="48.05308" lon="6.83722">
        <ele>921.4</ele>
        <time>2024-07-18T12:59:08Z</time>
      </trkpt>
      <trkpt lat="48.05296" lon="6.83722">
        <ele>921.6</ele>
        <time>2024-07-18T12:59:13Z</time>
      </trkpt>
      <trkpt lat="48.05287" lon="6.8372">
        <ele>921.7</ele>
        <time>2024-07-18T12:59:16Z</time>
      </trkpt>
      <trkpt lat="48.05278" lon="6.83718">
        <ele>921.6</ele>
        <time>2024-07-18T12:59:18Z</time>
      </trkpt>
      <trkpt lat="48.05267" lon="6.83717">
        <ele>921.5</ele>
        <time>2024-07-18T12:59:21Z</time>
      </trkpt>
      <trkpt lat="48.05257" lon="6.83715">
        <ele>921.4</ele>
        <time>2024-07-18T12:59:24Z</time>
      </trkpt>
      <trkpt lat="48.05245" lon="6.83713">
        <ele>921.2</ele>
        <time>2024-07-18T12:59:27Z</time>
      </trkpt>
      <trkpt lat="48.05236" lon="6.8371">
        <ele>920.9</ele>
        <time>2024-07-18T12:59:30Z</time>
      </trkpt>
      <trkpt lat="48.05226" lon="6.83705">
        <ele>920.6</ele>
        <time>2024-07-18T12:59:33Z</time>
      </trkpt>
      <trkpt lat="48.05217" lon="6.837">
        <ele>920.4</ele>
        <time>2024-07-18T12:59:35Z</time>
      </trkpt>
      <trkpt lat="48.05209" lon="6.83692">
        <ele>920.6</ele>
        <time>2024-07-18T12:59:42Z</time>
      </trkpt>
      <trkpt lat="48.05219" lon="6.8369">
        <ele>921.6</ele>
        <time>2024-07-18T12:59:53Z</time>
      </trkpt>
      <trkpt lat="48.0523" lon="6.83693">
        <ele>922.7</ele>
        <time>2024-07-18T12:59:58Z</time>
      </trkpt>
      <trkpt lat="48.0524" lon="6.83691">
        <ele>923.7</ele>
        <time>2024-07-18T13:00:02Z</time>
      </trkpt>
      <trkpt lat="48.0525" lon="6.8369">
        <ele>924.6</ele>
        <time>2024-07-18T13:00:05Z</time>
      </trkpt>
      <trkpt lat="48.05261" lon="6.83691">
        <ele>925.7</ele>
        <time>2024-07-18T13:00:10Z</time>
      </trkpt>
      <trkpt lat="48.0527" lon="6.8369">
        <ele>926.6</ele>
        <time>2024-07-18T13:00:15Z</time>
      </trkpt>
      <trkpt lat="48.0528" lon="6.83684">
        <ele>927.6</ele>
        <time>2024-07-18T13:00:20Z</time>
      </trkpt>
      <trkpt lat="48.05285" lon="6.83672">
        <ele>928.4</ele>
        <time>2024-07-18T13:00:25Z</time>
      </trkpt>
      <trkpt lat="48.0529" lon="6.83661">
        <ele>929.2</ele>
        <time>2024-07-18T13:00:29Z</time>
      </trkpt>
      <trkpt lat="48.05293" lon="6.83649">
        <ele>930</ele>
        <time>2024-07-18T13:00:34Z</time>
      </trkpt>
      <trkpt lat="48.05297" lon="6.83635">
        <ele>930.8</ele>
        <time>2024-07-18T13:00:40Z</time>
      </trkpt>
      <trkpt lat="48.05301" lon="6.8362">
        <ele>931.9</ele>
        <time>2024-07-18T13:00:47Z</time>
      </trkpt>
      <trkpt lat="48.05306" lon="6.83608">
        <ele>932.8</ele>
        <time>2024-07-18T13:00:53Z</time>
      </trkpt>
      <trkpt lat="48.05312" lon="6.83597">
        <ele>933.7</ele>
        <time>2024-07-18T13:00:59Z</time>
      </trkpt>
      <trkpt lat="48.05318" lon="6.83585">
        <ele>934.6</ele>
        <time>2024-07-18T13:01:06Z</time>
      </trkpt>
      <trkpt lat="48.05319" lon="6.83571">
        <ele>935.5</ele>
        <time>2024-07-18T13:01:13Z</time>
      </trkpt>
      <trkpt lat="48.05319" lon="6.83557">
        <ele>936.4</ele>
        <time>2024-07-18T13:01:19Z</time>
      </trkpt>
      <trkpt lat="48.05318" lon="6.83541">
        <ele>937.4</ele>
        <time>2024-07-18T13:01:25Z</time>
      </trkpt>
      <trkpt lat="48.05316" lon="6.83526">
        <ele>938.3</ele>
        <time>2024-07-18T13:01:30Z</time>
      </trkpt>
      <trkpt lat="48.0531" lon="6.83515">
        <ele>939.3</ele>
        <time>2024-07-18T13:01:37Z</time>
      </trkpt>
      <trkpt lat="48.05302" lon="6.83507">
        <ele>940.1</ele>
        <time>2024-07-18T13:01:43Z</time>
      </trkpt>
      <trkpt lat="48.05293" lon="6.835">
        <ele>940.9</ele>
        <time>2024-07-18T13:01:49Z</time>
      </trkpt>
      <trkpt lat="48.05283" lon="6.83496">
        <ele>941.4</ele>
        <time>2024-07-18T13:01:54Z</time>
      </trkpt>
      <trkpt lat="48.05273" lon="6.83494">
        <ele>941.8</ele>
        <time>2024-07-18T13:02:00Z</time>
      </trkpt>
      <trkpt lat="48.05263" lon="6.8349">
        <ele>942.2</ele>
        <time>2024-07-18T13:02:04Z</time>
      </trkpt>
      <trkpt lat="48.05254" lon="6.83483">
        <ele>942.6</ele>
        <time>2024-07-18T13:02:08Z</time>
      </trkpt>
      <trkpt lat="48.05247" lon="6.83476">
        <ele>942.9</ele>
        <time>2024-07-18T13:02:12Z</time>
      </trkpt>
      <trkpt lat="48.05236" lon="6.8347">
        <ele>943.4</ele>
        <time>2024-07-18T13:02:17Z</time>
      </trkpt>
      <trkpt lat="48.05226" lon="6.83463">
        <ele>943.9</ele>
        <time>2024-07-18T13:02:21Z</time>
      </trkpt>
      <trkpt lat="48.05218" lon="6.83455">
        <ele>944.4</ele>
        <time>2024-07-18T13:02:25Z</time>
      </trkpt>
      <trkpt lat="48.05208" lon="6.83451">
        <ele>944.6</ele>
        <time>2024-07-18T13:02:29Z</time>
      </trkpt>
      <trkpt lat="48.05199" lon="6.83442">
        <ele>945.2</ele>
        <time>2024-07-18T13:02:34Z</time>
      </trkpt>
      <trkpt lat="48.0519" lon="6.83433">
        <ele>945.9</ele>
        <time>2024-07-18T13:02:39Z</time>
      </trkpt>
      <trkpt lat="48.05181" lon="6.83428">
        <ele>946.6</ele>
        <time>2024-07-18T13:02:44Z</time>
      </trkpt>
      <trkpt lat="48.0517" lon="6.83425">
        <ele>947.3</ele>
        <time>2024-07-18T13:02:48Z</time>
      </trkpt>
      <trkpt lat="48.05161" lon="6.83425">
        <ele>947.9</ele>
        <time>2024-07-18T13:02:51Z</time>
      </trkpt>
      <trkpt lat="48.05151" lon="6.83427">
        <ele>948.5</ele>
        <time>2024-07-18T13:02:55Z</time>
      </trkpt>
      <trkpt lat="48.05141" lon="6.83426">
        <ele>949</ele>
        <time>2024-07-18T13:02:59Z</time>
      </trkpt>
      <trkpt lat="48.05131" lon="6.83423">
        <ele>949.5</ele>
        <time>2024-07-18T13:03:03Z</time>
      </trkpt>
      <trkpt lat="48.05122" lon="6.83423">
        <ele>949.9</ele>
        <time>2024-07-18T13:03:07Z</time>
      </trkpt>
      <trkpt lat="48.05112" lon="6.8342">
        <ele>950.5</ele>
        <time>2024-07-18T13:03:11Z</time>
      </trkpt>
      <trkpt lat="48.051" lon="6.83417">
        <ele>951.1</ele>
        <time>2024-07-18T13:03:15Z</time>
      </trkpt>
      <trkpt lat="48.0509" lon="6.83412">
        <ele>951.8</ele>
        <time>2024-07-18T13:03:19Z</time>
      </trkpt>
      <trkpt lat="48.05079" lon="6.83406">
        <ele>952.5</ele>
        <time>2024-07-18T13:03:23Z</time>
      </trkpt>
      <trkpt lat="48.05069" lon="6.83399">
        <ele>953.2</ele>
        <time>2024-07-18T13:03:27Z</time>
      </trkpt>
      <trkpt lat="48.05058" lon="6.83394">
        <ele>953.9</ele>
        <time>2024-07-18T13:03:31Z</time>
      </trkpt>
      <trkpt lat="48.05048" lon="6.83386">
        <ele>954.6</ele>
        <time>2024-07-18T13:03:35Z</time>
      </trkpt>
      <trkpt lat="48.0504" lon="6.83378">
        <ele>955.1</ele>
        <time>2024-07-18T13:03:39Z</time>
      </trkpt>
      <trkpt lat="48.05033" lon="6.83368">
        <ele>955.9</ele>
        <time>2024-07-18T13:03:43Z</time>
      </trkpt>
      <trkpt lat="48.05026" lon="6.83357">
        <ele>956.7</ele>
        <time>2024-07-18T13:03:49Z</time>
      </trkpt>
      <trkpt lat="48.05019" lon="6.83347">
        <ele>957.4</ele>
        <time>2024-07-18T13:03:53Z</time>
      </trkpt>
      <trkpt lat="48.05014" lon="6.83334">
        <ele>958.2</ele>
        <time>2024-07-18T13:03:57Z</time>
      </trkpt>
      <trkpt lat="48.05006" lon="6.83323">
        <ele>958.9</ele>
        <time>2024-07-18T13:04:01Z</time>
      </trkpt>
      <trkpt lat="48.04997" lon="6.83314">
        <ele>959.6</ele>
        <time>2024-07-18T13:04:05Z</time>
      </trkpt>
      <trkpt lat="48.04988" lon="6.83307">
        <ele>959.9</ele>
        <time>2024-07-18T13:04:09Z</time>
      </trkpt>
      <trkpt lat="48.04979" lon="6.83302">
        <ele>960.1</ele>
        <time>2024-07-18T13:04:14Z</time>
      </trkpt>
      <trkpt lat="48.04969" lon="6.83302">
        <ele>960.3</ele>
        <time>2024-07-18T13:04:18Z</time>
      </trkpt>
      <trkpt lat="48.04959" lon="6.83299">
        <ele>960.5</ele>
        <time>2024-07-18T13:04:21Z</time>
      </trkpt>
      <trkpt lat="48.04949" lon="6.83293">
        <ele>960.7</ele>
        <time>2024-07-18T13:04:26Z</time>
      </trkpt>
      <trkpt lat="48.04942" lon="6.83284">
        <ele>961</ele>
        <time>2024-07-18T13:04:31Z</time>
      </trkpt>
      <trkpt lat="48.04933" lon="6.83277">
        <ele>961.5</ele>
        <time>2024-07-18T13:04:38Z</time>
      </trkpt>
      <trkpt lat="48.04927" lon="6.83263">
        <ele>962.3</ele>
        <time>2024-07-18T13:04:45Z</time>
      </trkpt>
      <trkpt lat="48.04922" lon="6.8325">
        <ele>963</ele>
        <time>2024-07-18T13:04:51Z</time>
      </trkpt>
      <trkpt lat="48.04916" lon="6.83239">
        <ele>963.7</ele>
        <time>2024-07-18T13:05:04Z</time>
      </trkpt>
      <trkpt lat="48.04911" lon="6.83226">
        <ele>964.3</ele>
        <time>2024-07-18T13:05:13Z</time>
      </trkpt>
      <trkpt lat="48.04905" lon="6.83216">
        <ele>964.9</ele>
        <time>2024-07-18T13:05:21Z</time>
      </trkpt>
      <trkpt lat="48.04898" lon="6.83206">
        <ele>965.6</ele>
        <time>2024-07-18T13:05:28Z</time>
      </trkpt>
      <trkpt lat="48.04892" lon="6.83193">
        <ele>966.4</ele>
        <time>2024-07-18T13:05:38Z</time>
      </trkpt>
      <trkpt lat="48.04885" lon="6.83182">
        <ele>967.3</ele>
        <time>2024-07-18T13:05:45Z</time>
      </trkpt>
      <trkpt lat="48.0488" lon="6.8317">
        <ele>968.1</ele>
        <time>2024-07-18T13:05:51Z</time>
      </trkpt>
      <trkpt lat="48.04879" lon="6.83156">
        <ele>968.9</ele>
        <time>2024-07-18T13:05:58Z</time>
      </trkpt>
      <trkpt lat="48.04877" lon="6.83142">
        <ele>969.7</ele>
        <time>2024-07-18T13:06:04Z</time>
      </trkpt>
      <trkpt lat="48.04874" lon="6.83128">
        <ele>970.4</ele>
        <time>2024-07-18T13:06:13Z</time>
      </trkpt>
      <trkpt lat="48.04877" lon="6.83126">
        <ele>970.6</ele>
        <time>2024-07-18T13:06:24Z</time>
      </trkpt>
      <trkpt lat="48.04878" lon="6.83125">
        <ele>970.7</ele>
        <time>2024-07-18T13:06:25Z</time>
      </trkpt>
      <trkpt lat="48.04881" lon="6.83123">
        <ele>970.9</ele>
        <time>2024-07-18T13:06:38Z</time>
      </trkpt>
      <trkpt lat="48.04881" lon="6.83123">
        <ele>970.9</ele>
        <time>2024-07-18T13:06:39Z</time>
      </trkpt>
      <trkpt lat="48.0488" lon="6.83123">
        <ele>970.9</ele>
        <time>2024-07-18T13:06:40Z</time>
      </trkpt>
      <trkpt lat="48.0488" lon="6.8312">
        <ele>971</ele>
        <time>2024-07-18T13:06:46Z</time>
      </trkpt>
      <trkpt lat="48.0488" lon="6.8312">
        <ele>971</ele>
        <time>2024-07-18T13:06:47Z</time>
      </trkpt>
      <trkpt lat="48.04879" lon="6.83119">
        <ele>971.1</ele>
        <time>2024-07-18T13:06:48Z</time>
      </trkpt>
      <trkpt lat="48.04879" lon="6.83119">
        <ele>971.1</ele>
        <time>2024-07-18T13:06:49Z</time>
      </trkpt>
      <trkpt lat="48.04879" lon="6.8312">
        <ele>971.1</ele>
        <time>2024-07-18T13:06:50Z</time>
      </trkpt>
      <trkpt lat="48.04873" lon="6.83107">
        <ele>971.4</ele>
        <time>2024-07-18T13:06:59Z</time>
      </trkpt>
      <trkpt lat="48.04868" lon="6.83096">
        <ele>971.6</ele>
        <time>2024-07-18T13:07:04Z</time>
      </trkpt>
      <trkpt lat="48.04862" lon="6.83084">
        <ele>971.7</ele>
        <time>2024-07-18T13:07:08Z</time>
      </trkpt>
      <trkpt lat="48.04854" lon="6.83075">
        <ele>971.8</ele>
        <time>2024-07-18T13:07:11Z</time>
      </trkpt>
      <trkpt lat="48.04844" lon="6.83066">
        <ele>971.7</ele>
        <time>2024-07-18T13:07:14Z</time>
      </trkpt>
      <trkpt lat="48.04837" lon="6.83054">
        <ele>971.6</ele>
        <time>2024-07-18T13:07:18Z</time>
      </trkpt>
      <trkpt lat="48.04829" lon="6.83044">
        <ele>971.4</ele>
        <time>2024-07-18T13:07:21Z</time>
      </trkpt>
      <trkpt lat="48.0482" lon="6.83037">
        <ele>971.2</ele>
        <time>2024-07-18T13:07:24Z</time>
      </trkpt>
      <trkpt lat="48.0481" lon="6.83032">
        <ele>971</ele>
        <time>2024-07-18T13:07:27Z</time>
      </trkpt>
      <trkpt lat="48.04799" lon="6.83028">
        <ele>970.7</ele>
        <time>2024-07-18T13:07:30Z</time>
      </trkpt>
      <trkpt lat="48.04788" lon="6.83023">
        <ele>970.1</ele>
        <time>2024-07-18T13:07:33Z</time>
      </trkpt>
      <trkpt lat="48.04779" lon="6.83019">
        <ele>969.5</ele>
        <time>2024-07-18T13:07:35Z</time>
      </trkpt>
      <trkpt lat="48.04768" lon="6.83015">
        <ele>968.9</ele>
        <time>2024-07-18T13:07:37Z</time>
      </trkpt>
      <trkpt lat="48.04759" lon="6.83012">
        <ele>968.6</ele>
        <time>2024-07-18T13:07:39Z</time>
      </trkpt>
      <trkpt lat="48.0475" lon="6.83002">
        <ele>969.1</ele>
        <time>2024-07-18T13:07:42Z</time>
      </trkpt>
      <trkpt lat="48.04746" lon="6.82989">
        <ele>969.6</ele>
        <time>2024-07-18T13:07:45Z</time>
      </trkpt>
      <trkpt lat="48.04746" lon="6.82974">
        <ele>970.2</ele>
        <time>2024-07-18T13:07:49Z</time>
      </trkpt>
      <trkpt lat="48.04743" lon="6.82961">
        <ele>970.7</ele>
        <time>2024-07-18T13:07:52Z</time>
      </trkpt>
      <trkpt lat="48.0474" lon="6.82948">
        <ele>971.2</ele>
        <time>2024-07-18T13:07:55Z</time>
      </trkpt>
      <trkpt lat="48.04734" lon="6.82936">
        <ele>971.8</ele>
        <time>2024-07-18T13:07:58Z</time>
      </trkpt>
      <trkpt lat="48.04728" lon="6.82924">
        <ele>972.4</ele>
        <time>2024-07-18T13:08:01Z</time>
      </trkpt>
      <trkpt lat="48.04722" lon="6.82911">
        <ele>973</ele>
        <time>2024-07-18T13:08:05Z</time>
      </trkpt>
      <trkpt lat="48.04716" lon="6.82897">
        <ele>973.6</ele>
        <time>2024-07-18T13:08:09Z</time>
      </trkpt>
      <trkpt lat="48.0471" lon="6.82885">
        <ele>974.1</ele>
        <time>2024-07-18T13:08:13Z</time>
      </trkpt>
      <trkpt lat="48.04705" lon="6.82872">
        <ele>974.7</ele>
        <time>2024-07-18T13:08:17Z</time>
      </trkpt>
      <trkpt lat="48.04699" lon="6.82861">
        <ele>975.3</ele>
        <time>2024-07-18T13:08:22Z</time>
      </trkpt>
      <trkpt lat="48.04693" lon="6.8285">
        <ele>976</ele>
        <time>2024-07-18T13:08:28Z</time>
      </trkpt>
      <trkpt lat="48.04689" lon="6.82838">
        <ele>976.7</ele>
        <time>2024-07-18T13:08:34Z</time>
      </trkpt>
      <trkpt lat="48.04683" lon="6.82825">
        <ele>977.5</ele>
        <time>2024-07-18T13:08:40Z</time>
      </trkpt>
      <trkpt lat="48.04675" lon="6.82815">
        <ele>978.1</ele>
        <time>2024-07-18T13:08:45Z</time>
      </trkpt>
      <trkpt lat="48.04667" lon="6.82807">
        <ele>978.7</ele>
        <time>2024-07-18T13:08:51Z</time>
      </trkpt>
      <trkpt lat="48.04659" lon="6.82801">
        <ele>979.2</ele>
        <time>2024-07-18T13:08:56Z</time>
      </trkpt>
      <trkpt lat="48.04651" lon="6.82793">
        <ele>979.8</ele>
        <time>2024-07-18T13:09:02Z</time>
      </trkpt>
      <trkpt lat="48.04643" lon="6.82785">
        <ele>980.5</ele>
        <time>2024-07-18T13:09:19Z</time>
      </trkpt>
      <trkpt lat="48.04638" lon="6.82773">
        <ele>981.4</ele>
        <time>2024-07-18T13:09:27Z</time>
      </trkpt>
      <trkpt lat="48.04631" lon="6.82761">
        <ele>982.5</ele>
        <time>2024-07-18T13:09:35Z</time>
      </trkpt>
      <trkpt lat="48.04628" lon="6.82747">
        <ele>983.4</ele>
        <time>2024-07-18T13:09:44Z</time>
      </trkpt>
      <trkpt lat="48.04621" lon="6.82738">
        <ele>984</ele>
        <time>2024-07-18T13:09:52Z</time>
      </trkpt>
      <trkpt lat="48.04618" lon="6.82725">
        <ele>984.4</ele>
        <time>2024-07-18T13:09:57Z</time>
      </trkpt>
      <trkpt lat="48.04615" lon="6.82712">
        <ele>984.8</ele>
        <time>2024-07-18T13:10:04Z</time>
      </trkpt>
      <trkpt lat="48.04612" lon="6.82698">
        <ele>985.1</ele>
        <time>2024-07-18T13:10:10Z</time>
      </trkpt>
      <trkpt lat="48.04608" lon="6.82686">
        <ele>985.5</ele>
        <time>2024-07-18T13:10:17Z</time>
      </trkpt>
      <trkpt lat="48.04603" lon="6.82674">
        <ele>985.8</ele>
        <time>2024-07-18T13:10:23Z</time>
      </trkpt>
      <trkpt lat="48.04599" lon="6.82661">
        <ele>985.9</ele>
        <time>2024-07-18T13:10:30Z</time>
      </trkpt>
      <trkpt lat="48.04596" lon="6.82646">
        <ele>985.8</ele>
        <time>2024-07-18T13:10:38Z</time>
      </trkpt>
      <trkpt lat="48.04597" lon="6.82632">
        <ele>985.7</ele>
        <time>2024-07-18T13:10:45Z</time>
      </trkpt>
      <trkpt lat="48.04598" lon="6.82616">
        <ele>985.5</ele>
        <time>2024-07-18T13:10:52Z</time>
      </trkpt>
      <trkpt lat="48.046" lon="6.82601">
        <ele>985.3</ele>
        <time>2024-07-18T13:10:59Z</time>
      </trkpt>
      <trkpt lat="48.04602" lon="6.82587">
        <ele>985</ele>
        <time>2024-07-18T13:11:06Z</time>
      </trkpt>
      <trkpt lat="48.04606" lon="6.82573">
        <ele>984.8</ele>
        <time>2024-07-18T13:11:13Z</time>
      </trkpt>
      <trkpt lat="48.0461" lon="6.82561">
        <ele>984.6</ele>
        <time>2024-07-18T13:11:20Z</time>
      </trkpt>
      <trkpt lat="48.04615" lon="6.82548">
        <ele>984.4</ele>
        <time>2024-07-18T13:11:27Z</time>
      </trkpt>
      <trkpt lat="48.0462" lon="6.82536">
        <ele>984.1</ele>
        <time>2024-07-18T13:11:34Z</time>
      </trkpt>
      <trkpt lat="48.04626" lon="6.82524">
        <ele>983.9</ele>
        <time>2024-07-18T13:11:41Z</time>
      </trkpt>
      <trkpt lat="48.04632" lon="6.82511">
        <ele>983.8</ele>
        <time>2024-07-18T13:11:48Z</time>
      </trkpt>
      <trkpt lat="48.04636" lon="6.82499">
        <ele>983.6</ele>
        <time>2024-07-18T13:11:55Z</time>
      </trkpt>
      <trkpt lat="48.0464" lon="6.82486">
        <ele>983.4</ele>
        <time>2024-07-18T13:12:02Z</time>
      </trkpt>
      <trkpt lat="48.04646" lon="6.82474">
        <ele>983.1</ele>
        <time>2024-07-18T13:12:09Z</time>
      </trkpt>
      <trkpt lat="48.04651" lon="6.82463">
        <ele>982.8</ele>
        <time>2024-07-18T13:12:15Z</time>
      </trkpt>
      <trkpt lat="48.04655" lon="6.8245">
        <ele>982.5</ele>
        <time>2024-07-18T13:12:22Z</time>
      </trkpt>
      <trkpt lat="48.04659" lon="6.82437">
        <ele>982.2</ele>
        <time>2024-07-18T13:12:29Z</time>
      </trkpt>
      <trkpt lat="48.04662" lon="6.82423">
        <ele>981.9</ele>
        <time>2024-07-18T13:12:36Z</time>
      </trkpt>
      <trkpt lat="48.04665" lon="6.8241">
        <ele>981.6</ele>
        <time>2024-07-18T13:12:43Z</time>
      </trkpt>
      <trkpt lat="48.04669" lon="6.82397">
        <ele>981.4</ele>
        <time>2024-07-18T13:12:50Z</time>
      </trkpt>
      <trkpt lat="48.04674" lon="6.82384">
        <ele>981.1</ele>
        <time>2024-07-18T13:12:57Z</time>
      </trkpt>
      <trkpt lat="48.04676" lon="6.82371">
        <ele>980.9</ele>
        <time>2024-07-18T13:13:04Z</time>
      </trkpt>
      <trkpt lat="48.04679" lon="6.82357">
        <ele>980.6</ele>
        <time>2024-07-18T13:13:11Z</time>
      </trkpt>
      <trkpt lat="48.04682" lon="6.82343">
        <ele>980.3</ele>
        <time>2024-07-18T13:13:19Z</time>
      </trkpt>
      <trkpt lat="48.04684" lon="6.8233">
        <ele>979.9</ele>
        <time>2024-07-18T13:13:26Z</time>
      </trkpt>
      <trkpt lat="48.04684" lon="6.82315">
        <ele>979.5</ele>
        <time>2024-07-18T13:13:34Z</time>
      </trkpt>
      <trkpt lat="48.04685" lon="6.82301">
        <ele>979</ele>
        <time>2024-07-18T13:13:42Z</time>
      </trkpt>
      <trkpt lat="48.04685" lon="6.82287">
        <ele>978.5</ele>
        <time>2024-07-18T13:13:49Z</time>
      </trkpt>
      <trkpt lat="48.04682" lon="6.82273">
        <ele>978</ele>
        <time>2024-07-18T13:13:56Z</time>
      </trkpt>
      <trkpt lat="48.04677" lon="6.82261">
        <ele>977.6</ele>
        <time>2024-07-18T13:14:03Z</time>
      </trkpt>
      <trkpt lat="48.04678" lon="6.82247">
        <ele>977.3</ele>
        <time>2024-07-18T13:14:10Z</time>
      </trkpt>
      <trkpt lat="48.04678" lon="6.82232">
        <ele>977.1</ele>
        <time>2024-07-18T13:14:17Z</time>
      </trkpt>
      <trkpt lat="48.04678" lon="6.82219">
        <ele>977.1</ele>
        <time>2024-07-18T13:14:24Z</time>
      </trkpt>
      <trkpt lat="48.04676" lon="6.82203">
        <ele>977.1</ele>
        <time>2024-07-18T13:14:30Z</time>
      </trkpt>
      <trkpt lat="48.04675" lon="6.82189">
        <ele>977.2</ele>
        <time>2024-07-18T13:14:37Z</time>
      </trkpt>
      <trkpt lat="48.04677" lon="6.82174">
        <ele>977.4</ele>
        <time>2024-07-18T13:14:45Z</time>
      </trkpt>
      <trkpt lat="48.04676" lon="6.82159">
        <ele>977.5</ele>
        <time>2024-07-18T13:14:52Z</time>
      </trkpt>
      <trkpt lat="48.04679" lon="6.82147">
        <ele>977.7</ele>
        <time>2024-07-18T13:14:59Z</time>
      </trkpt>
      <trkpt lat="48.04677" lon="6.82133">
        <ele>977.8</ele>
        <time>2024-07-18T13:15:06Z</time>
      </trkpt>
      <trkpt lat="48.04675" lon="6.8212">
        <ele>978</ele>
        <time>2024-07-18T13:15:13Z</time>
      </trkpt>
      <trkpt lat="48.04673" lon="6.82105">
        <ele>978.2</ele>
        <time>2024-07-18T13:15:20Z</time>
      </trkpt>
      <trkpt lat="48.04674" lon="6.82091">
        <ele>978.5</ele>
        <time>2024-07-18T13:15:26Z</time>
      </trkpt>
      <trkpt lat="48.04674" lon="6.82076">
        <ele>978.8</ele>
        <time>2024-07-18T13:15:33Z</time>
      </trkpt>
      <trkpt lat="48.04676" lon="6.82062">
        <ele>979.1</ele>
        <time>2024-07-18T13:15:38Z</time>
      </trkpt>
      <trkpt lat="48.04673" lon="6.82048">
        <ele>979.4</ele>
        <time>2024-07-18T13:15:46Z</time>
      </trkpt>
      <trkpt lat="48.04671" lon="6.82033">
        <ele>979.7</ele>
        <time>2024-07-18T13:15:53Z</time>
      </trkpt>
      <trkpt lat="48.04668" lon="6.82019">
        <ele>979.8</ele>
        <time>2024-07-18T13:16:00Z</time>
      </trkpt>
      <trkpt lat="48.04665" lon="6.82006">
        <ele>979.9</ele>
        <time>2024-07-18T13:16:08Z</time>
      </trkpt>
      <trkpt lat="48.04662" lon="6.81991">
        <ele>979.9</ele>
        <time>2024-07-18T13:16:16Z</time>
      </trkpt>
      <trkpt lat="48.04664" lon="6.81976">
        <ele>979.9</ele>
        <time>2024-07-18T13:16:22Z</time>
      </trkpt>
      <trkpt lat="48.04665" lon="6.81962">
        <ele>980</ele>
        <time>2024-07-18T13:16:28Z</time>
      </trkpt>
      <trkpt lat="48.04663" lon="6.81947">
        <ele>980.2</ele>
        <time>2024-07-18T13:16:35Z</time>
      </trkpt>
      <trkpt lat="48.04661" lon="6.81932">
        <ele>980.4</ele>
        <time>2024-07-18T13:16:44Z</time>
      </trkpt>
      <trkpt lat="48.04662" lon="6.81917">
        <ele>980.7</ele>
        <time>2024-07-18T13:16:51Z</time>
      </trkpt>
      <trkpt lat="48.04662" lon="6.81902">
        <ele>980.9</ele>
        <time>2024-07-18T13:16:58Z</time>
      </trkpt>
      <trkpt lat="48.04665" lon="6.81888">
        <ele>981.1</ele>
        <time>2024-07-18T13:17:05Z</time>
      </trkpt>
      <trkpt lat="48.0467" lon="6.81876">
        <ele>981.3</ele>
        <time>2024-07-18T13:17:15Z</time>
      </trkpt>
      <trkpt lat="48.04667" lon="6.81863">
        <ele>981.4</ele>
        <time>2024-07-18T13:17:26Z</time>
      </trkpt>
      <trkpt lat="48.04671" lon="6.81849">
        <ele>981.6</ele>
        <time>2024-07-18T13:17:34Z</time>
      </trkpt>
      <trkpt lat="48.04673" lon="6.81836">
        <ele>981.7</ele>
        <time>2024-07-18T13:17:44Z</time>
      </trkpt>
      <trkpt lat="48.04673" lon="6.81822">
        <ele>981.8</ele>
        <time>2024-07-18T13:17:53Z</time>
      </trkpt>
      <trkpt lat="48.04671" lon="6.81809">
        <ele>981.9</ele>
        <time>2024-07-18T13:18:05Z</time>
      </trkpt>
      <trkpt lat="48.0467" lon="6.81794">
        <ele>982</ele>
        <time>2024-07-18T13:18:14Z</time>
      </trkpt>
      <trkpt lat="48.04671" lon="6.81779">
        <ele>982</ele>
        <time>2024-07-18T13:18:24Z</time>
      </trkpt>
      <trkpt lat="48.04677" lon="6.81768">
        <ele>982.1</ele>
        <time>2024-07-18T13:18:32Z</time>
      </trkpt>
      <trkpt lat="48.04682" lon="6.81757">
        <ele>982.1</ele>
        <time>2024-07-18T13:18:41Z</time>
      </trkpt>
      <trkpt lat="48.04686" lon="6.81742">
        <ele>982.1</ele>
        <time>2024-07-18T13:18:50Z</time>
      </trkpt>
      <trkpt lat="48.04689" lon="6.81728">
        <ele>982.1</ele>
        <time>2024-07-18T13:18:57Z</time>
      </trkpt>
      <trkpt lat="48.04696" lon="6.81719">
        <ele>982.1</ele>
        <time>2024-07-18T13:19:03Z</time>
      </trkpt>
      <trkpt lat="48.04702" lon="6.81708">
        <ele>982.3</ele>
        <time>2024-07-18T13:19:09Z</time>
      </trkpt>
      <trkpt lat="48.04708" lon="6.81696">
        <ele>982.5</ele>
        <time>2024-07-18T13:19:16Z</time>
      </trkpt>
      <trkpt lat="48.04712" lon="6.81683">
        <ele>982.6</ele>
        <time>2024-07-18T13:19:23Z</time>
      </trkpt>
      <trkpt lat="48.04718" lon="6.81671">
        <ele>982.5</ele>
        <time>2024-07-18T13:19:30Z</time>
      </trkpt>
      <trkpt lat="48.04724" lon="6.8166">
        <ele>982.3</ele>
        <time>2024-07-18T13:19:37Z</time>
      </trkpt>
      <trkpt lat="48.04727" lon="6.81646">
        <ele>982.1</ele>
        <time>2024-07-18T13:19:45Z</time>
      </trkpt>
      <trkpt lat="48.04733" lon="6.81634">
        <ele>981.8</ele>
        <time>2024-07-18T13:19:52Z</time>
      </trkpt>
      <trkpt lat="48.04738" lon="6.81622">
        <ele>981.6</ele>
        <time>2024-07-18T13:19:59Z</time>
      </trkpt>
      <trkpt lat="48.04741" lon="6.81608">
        <ele>981.3</ele>
        <time>2024-07-18T13:20:06Z</time>
      </trkpt>
      <trkpt lat="48.04747" lon="6.81596">
        <ele>981.1</ele>
        <time>2024-07-18T13:20:14Z</time>
      </trkpt>
      <trkpt lat="48.04755" lon="6.81586">
        <ele>980.8</ele>
        <time>2024-07-18T13:20:21Z</time>
      </trkpt>
      <trkpt lat="48.04762" lon="6.81575">
        <ele>980.6</ele>
        <time>2024-07-18T13:20:28Z</time>
      </trkpt>
      <trkpt lat="48.04768" lon="6.81564">
        <ele>980.5</ele>
        <time>2024-07-18T13:20:35Z</time>
      </trkpt>
      <trkpt lat="48.04774" lon="6.81553">
        <ele>980.4</ele>
        <time>2024-07-18T13:20:42Z</time>
      </trkpt>
      <trkpt lat="48.04781" lon="6.81543">
        <ele>980.4</ele>
        <time>2024-07-18T13:20:49Z</time>
      </trkpt>
      <trkpt lat="48.04787" lon="6.81534">
        <ele>980.4</ele>
        <time>2024-07-18T13:20:56Z</time>
      </trkpt>
      <trkpt lat="48.04794" lon="6.81524">
        <ele>980.5</ele>
        <time>2024-07-18T13:21:04Z</time>
      </trkpt>
      <trkpt lat="48.04802" lon="6.81515">
        <ele>980.6</ele>
        <time>2024-07-18T13:21:10Z</time>
      </trkpt>
      <trkpt lat="48.04803" lon="6.81514">
        <ele>980.6</ele>
        <time>2024-07-18T13:21:23Z</time>
      </trkpt>
      <trkpt lat="48.04803" lon="6.81514">
        <ele>980.6</ele>
        <time>2024-07-18T13:21:24Z</time>
      </trkpt>
      <trkpt lat="48.04803" lon="6.81513">
        <ele>980.6</ele>
        <time>2024-07-18T13:21:25Z</time>
      </trkpt>
      <trkpt lat="48.04805" lon="6.81511">
        <ele>980.6</ele>
        <time>2024-07-18T13:21:26Z</time>
      </trkpt>
      <trkpt lat="48.04806" lon="6.8151">
        <ele>980.6</ele>
        <time>2024-07-18T13:21:27Z</time>
      </trkpt>
      <trkpt lat="48.04813" lon="6.81497">
        <ele>980.6</ele>
        <time>2024-07-18T13:21:33Z</time>
      </trkpt>
      <trkpt lat="48.04819" lon="6.81486">
        <ele>980.5</ele>
        <time>2024-07-18T13:21:39Z</time>
      </trkpt>
      <trkpt lat="48.04826" lon="6.81476">
        <ele>980.4</ele>
        <time>2024-07-18T13:21:43Z</time>
      </trkpt>
      <trkpt lat="48.04835" lon="6.81468">
        <ele>980.4</ele>
        <time>2024-07-18T13:21:46Z</time>
      </trkpt>
      <trkpt lat="48.04842" lon="6.81459">
        <ele>980.5</ele>
        <time>2024-07-18T13:21:49Z</time>
      </trkpt>
      <trkpt lat="48.04848" lon="6.8145">
        <ele>980.6</ele>
        <time>2024-07-18T13:21:52Z</time>
      </trkpt>
      <trkpt lat="48.04857" lon="6.8144">
        <ele>980.7</ele>
        <time>2024-07-18T13:21:55Z</time>
      </trkpt>
      <trkpt lat="48.04867" lon="6.81432">
        <ele>980.8</ele>
        <time>2024-07-18T13:21:59Z</time>
      </trkpt>
      <trkpt lat="48.04875" lon="6.81427">
        <ele>980.8</ele>
        <time>2024-07-18T13:22:02Z</time>
      </trkpt>
      <trkpt lat="48.04885" lon="6.81417">
        <ele>980.7</ele>
        <time>2024-07-18T13:22:05Z</time>
      </trkpt>
      <trkpt lat="48.04894" lon="6.81405">
        <ele>980.4</ele>
        <time>2024-07-18T13:22:08Z</time>
      </trkpt>
      <trkpt lat="48.04901" lon="6.81404">
        <ele>980.2</ele>
        <time>2024-07-18T13:22:16Z</time>
      </trkpt>
      <trkpt lat="48.04901" lon="6.81403">
        <ele>980.2</ele>
        <time>2024-07-18T13:22:17Z</time>
      </trkpt>
      <trkpt lat="48.04901" lon="6.81403">
        <ele>980.2</ele>
        <time>2024-07-18T13:22:18Z</time>
      </trkpt>
      <trkpt lat="48.04901" lon="6.81402">
        <ele>980.2</ele>
        <time>2024-07-18T13:22:19Z</time>
      </trkpt>
      <trkpt lat="48.049" lon="6.81401">
        <ele>980.1</ele>
        <time>2024-07-18T13:22:20Z</time>
      </trkpt>
      <trkpt lat="48.04894" lon="6.8139">
        <ele>979.8</ele>
        <time>2024-07-18T13:22:29Z</time>
      </trkpt>
      <trkpt lat="48.04888" lon="6.8138">
        <ele>979.6</ele>
        <time>2024-07-18T13:22:37Z</time>
      </trkpt>
      <trkpt lat="48.04881" lon="6.8137">
        <ele>979.6</ele>
        <time>2024-07-18T13:22:50Z</time>
      </trkpt>
      <trkpt lat="48.04878" lon="6.81356">
        <ele>979.9</ele>
        <time>2024-07-18T13:22:59Z</time>
      </trkpt>
      <trkpt lat="48.04874" lon="6.81343">
        <ele>980.2</ele>
        <time>2024-07-18T13:23:06Z</time>
      </trkpt>
      <trkpt lat="48.04871" lon="6.81328">
        <ele>980.6</ele>
        <time>2024-07-18T13:23:13Z</time>
      </trkpt>
      <trkpt lat="48.04867" lon="6.81316">
        <ele>980.8</ele>
        <time>2024-07-18T13:23:20Z</time>
      </trkpt>
      <trkpt lat="48.04863" lon="6.81303">
        <ele>980.8</ele>
        <time>2024-07-18T13:23:36Z</time>
      </trkpt>
      <trkpt lat="48.04861" lon="6.81289">
        <ele>980.6</ele>
        <time>2024-07-18T13:23:50Z</time>
      </trkpt>
      <trkpt lat="48.04855" lon="6.81278">
        <ele>980.3</ele>
        <time>2024-07-18T13:23:54Z</time>
      </trkpt>
      <trkpt lat="48.0485" lon="6.81265">
        <ele>979.8</ele>
        <time>2024-07-18T13:23:57Z</time>
      </trkpt>
      <trkpt lat="48.04845" lon="6.81252">
        <ele>979.3</ele>
        <time>2024-07-18T13:23:59Z</time>
      </trkpt>
      <trkpt lat="48.04841" lon="6.81238">
        <ele>978.9</ele>
        <time>2024-07-18T13:24:01Z</time>
      </trkpt>
      <trkpt lat="48.04839" lon="6.81225">
        <ele>978.7</ele>
        <time>2024-07-18T13:24:03Z</time>
      </trkpt>
      <trkpt lat="48.04832" lon="6.8121">
        <ele>978.6</ele>
        <time>2024-07-18T13:24:06Z</time>
      </trkpt>
      <trkpt lat="48.04828" lon="6.81196">
        <ele>978.6</ele>
        <time>2024-07-18T13:24:09Z</time>
      </trkpt>
      <trkpt lat="48.04823" lon="6.81182">
        <ele>978.6</ele>
        <time>2024-07-18T13:24:12Z</time>
      </trkpt>
      <trkpt lat="48.04818" lon="6.81165">
        <ele>978.6</ele>
        <time>2024-07-18T13:24:15Z</time>
      </trkpt>
      <trkpt lat="48.04812" lon="6.81149">
        <ele>978.6</ele>
        <time>2024-07-18T13:24:18Z</time>
      </trkpt>
      <trkpt lat="48.04805" lon="6.81136">
        <ele>978.6</ele>
        <time>2024-07-18T13:24:21Z</time>
      </trkpt>
      <trkpt lat="48.04801" lon="6.81122">
        <ele>978.6</ele>
        <time>2024-07-18T13:24:24Z</time>
      </trkpt>
      <trkpt lat="48.04798" lon="6.81109">
        <ele>978.6</ele>
        <time>2024-07-18T13:24:27Z</time>
      </trkpt>
      <trkpt lat="48.0479" lon="6.81093">
        <ele>978.5</ele>
        <time>2024-07-18T13:24:30Z</time>
      </trkpt>
      <trkpt lat="48.04782" lon="6.8108">
        <ele>978.2</ele>
        <time>2024-07-18T13:24:33Z</time>
      </trkpt>
      <trkpt lat="48.04773" lon="6.81067">
        <ele>977.7</ele>
        <time>2024-07-18T13:24:36Z</time>
      </trkpt>
      <trkpt lat="48.04766" lon="6.81056">
        <ele>977.3</ele>
        <time>2024-07-18T13:24:38Z</time>
      </trkpt>
      <trkpt lat="48.0476" lon="6.81044">
        <ele>977</ele>
        <time>2024-07-18T13:24:40Z</time>
      </trkpt>
      <trkpt lat="48.04753" lon="6.81033">
        <ele>976.9</ele>
        <time>2024-07-18T13:24:42Z</time>
      </trkpt>
      <trkpt lat="48.04747" lon="6.81023">
        <ele>977</ele>
        <time>2024-07-18T13:24:44Z</time>
      </trkpt>
      <trkpt lat="48.04741" lon="6.81011">
        <ele>977</ele>
        <time>2024-07-18T13:24:52Z</time>
      </trkpt>
      <trkpt lat="48.04739" lon="6.80997">
        <ele>976.9</ele>
        <time>2024-07-18T13:25:00Z</time>
      </trkpt>
      <trkpt lat="48.04736" lon="6.80983">
        <ele>976.8</ele>
        <time>2024-07-18T13:25:07Z</time>
      </trkpt>
      <trkpt lat="48.04737" lon="6.80983">
        <ele>976.8</ele>
        <time>2024-07-18T13:25:11Z</time>
      </trkpt>
      <trkpt lat="48.04737" lon="6.80982">
        <ele>976.8</ele>
        <time>2024-07-18T13:25:12Z</time>
      </trkpt>
      <trkpt lat="48.04735" lon="6.8098">
        <ele>976.7</ele>
        <time>2024-07-18T13:25:28Z</time>
      </trkpt>
      <trkpt lat="48.04734" lon="6.80979">
        <ele>976.7</ele>
        <time>2024-07-18T13:25:29Z</time>
      </trkpt>
      <trkpt lat="48.04733" lon="6.80977">
        <ele>976.7</ele>
        <time>2024-07-18T13:25:30Z</time>
      </trkpt>
      <trkpt lat="48.04731" lon="6.80962">
        <ele>976.4</ele>
        <time>2024-07-18T13:25:38Z</time>
      </trkpt>
      <trkpt lat="48.04726" lon="6.8095">
        <ele>976.3</ele>
        <time>2024-07-18T13:25:46Z</time>
      </trkpt>
      <trkpt lat="48.04722" lon="6.80935">
        <ele>976.2</ele>
        <time>2024-07-18T13:25:53Z</time>
      </trkpt>
      <trkpt lat="48.0472" lon="6.80921">
        <ele>976.2</ele>
        <time>2024-07-18T13:25:59Z</time>
      </trkpt>
      <trkpt lat="48.0472" lon="6.80907">
        <ele>976.1</ele>
        <time>2024-07-18T13:26:06Z</time>
      </trkpt>
      <trkpt lat="48.04725" lon="6.80894">
        <ele>976</ele>
        <time>2024-07-18T13:26:13Z</time>
      </trkpt>
      <trkpt lat="48.0472" lon="6.8088">
        <ele>975.5</ele>
        <time>2024-07-18T13:26:26Z</time>
      </trkpt>
      <trkpt lat="48.04717" lon="6.80863">
        <ele>974.8</ele>
        <time>2024-07-18T13:26:30Z</time>
      </trkpt>
      <trkpt lat="48.04713" lon="6.80846">
        <ele>974.2</ele>
        <time>2024-07-18T13:26:33Z</time>
      </trkpt>
      <trkpt lat="48.04711" lon="6.80827">
        <ele>973.4</ele>
        <time>2024-07-18T13:26:36Z</time>
      </trkpt>
      <trkpt lat="48.0471" lon="6.80809">
        <ele>972.6</ele>
        <time>2024-07-18T13:26:38Z</time>
      </trkpt>
      <trkpt lat="48.04709" lon="6.80793">
        <ele>971.8</ele>
        <time>2024-07-18T13:26:40Z</time>
      </trkpt>
      <trkpt lat="48.04708" lon="6.80778">
        <ele>971</ele>
        <time>2024-07-18T13:26:43Z</time>
      </trkpt>
      <trkpt lat="48.0471" lon="6.80763">
        <ele>970.2</ele>
        <time>2024-07-18T13:26:47Z</time>
      </trkpt>
      <trkpt lat="48.04712" lon="6.8076">
        <ele>970</ele>
        <time>2024-07-18T13:26:52Z</time>
      </trkpt>
      <trkpt lat="48.04712" lon="6.8076">
        <ele>970</ele>
        <time>2024-07-18T13:26:53Z</time>
      </trkpt>
      <trkpt lat="48.04713" lon="6.80761">
        <ele>969.9</ele>
        <time>2024-07-18T13:26:54Z</time>
      </trkpt>
      <trkpt lat="48.04715" lon="6.80763">
        <ele>969.8</ele>
        <time>2024-07-18T13:26:55Z</time>
      </trkpt>
      <trkpt lat="48.04723" lon="6.80757">
        <ele>969.2</ele>
        <time>2024-07-18T13:27:51Z</time>
      </trkpt>
      <trkpt lat="48.04724" lon="6.80743">
        <ele>968.7</ele>
        <time>2024-07-18T13:28:01Z</time>
      </trkpt>
      <trkpt lat="48.04722" lon="6.8074">
        <ele>968.5</ele>
        <time>2024-07-18T13:28:13Z</time>
      </trkpt>
      <trkpt lat="48.04722" lon="6.8074">
        <ele>968.5</ele>
        <time>2024-07-18T13:28:14Z</time>
      </trkpt>
      <trkpt lat="48.04722" lon="6.80741">
        <ele>968.5</ele>
        <time>2024-07-18T13:28:18Z</time>
      </trkpt>
      <trkpt lat="48.04722" lon="6.80741">
        <ele>968.5</ele>
        <time>2024-07-18T13:28:19Z</time>
      </trkpt>
      <trkpt lat="48.04725" lon="6.80725">
        <ele>967.8</ele>
        <time>2024-07-18T13:28:29Z</time>
      </trkpt>
      <trkpt lat="48.04726" lon="6.80709">
        <ele>967.1</ele>
        <time>2024-07-18T13:28:32Z</time>
      </trkpt>
      <trkpt lat="48.04728" lon="6.80693">
        <ele>966.4</ele>
        <time>2024-07-18T13:28:35Z</time>
      </trkpt>
      <trkpt lat="48.04732" lon="6.80673">
        <ele>965.4</ele>
        <time>2024-07-18T13:28:38Z</time>
      </trkpt>
      <trkpt lat="48.04733" lon="6.80656">
        <ele>964.5</ele>
        <time>2024-07-18T13:28:40Z</time>
      </trkpt>
      <trkpt lat="48.04735" lon="6.80641">
        <ele>963.7</ele>
        <time>2024-07-18T13:28:42Z</time>
      </trkpt>
      <trkpt lat="48.04737" lon="6.80626">
        <ele>963.1</ele>
        <time>2024-07-18T13:28:44Z</time>
      </trkpt>
      <trkpt lat="48.04739" lon="6.80612">
        <ele>962.6</ele>
        <time>2024-07-18T13:28:46Z</time>
      </trkpt>
      <trkpt lat="48.04743" lon="6.80595">
        <ele>962.1</ele>
        <time>2024-07-18T13:28:49Z</time>
      </trkpt>
      <trkpt lat="48.04749" lon="6.80581">
        <ele>961.8</ele>
        <time>2024-07-18T13:28:52Z</time>
      </trkpt>
      <trkpt lat="48.04756" lon="6.80571">
        <ele>961.6</ele>
        <time>2024-07-18T13:28:55Z</time>
      </trkpt>
      <trkpt lat="48.04763" lon="6.8056">
        <ele>961.6</ele>
        <time>2024-07-18T13:28:58Z</time>
      </trkpt>
      <trkpt lat="48.04769" lon="6.80549">
        <ele>961.6</ele>
        <time>2024-07-18T13:29:00Z</time>
      </trkpt>
      <trkpt lat="48.04777" lon="6.80536">
        <ele>961.7</ele>
        <time>2024-07-18T13:29:04Z</time>
      </trkpt>
      <trkpt lat="48.04786" lon="6.80524">
        <ele>961.7</ele>
        <time>2024-07-18T13:29:07Z</time>
      </trkpt>
      <trkpt lat="48.04793" lon="6.80513">
        <ele>961.5</ele>
        <time>2024-07-18T13:29:10Z</time>
      </trkpt>
      <trkpt lat="48.04801" lon="6.80499">
        <ele>961</ele>
        <time>2024-07-18T13:29:14Z</time>
      </trkpt>
      <trkpt lat="48.04804" lon="6.80485">
        <ele>960.4</ele>
        <time>2024-07-18T13:29:16Z</time>
      </trkpt>
      <trkpt lat="48.04805" lon="6.80466">
        <ele>959.3</ele>
        <time>2024-07-18T13:29:19Z</time>
      </trkpt>
      <trkpt lat="48.04812" lon="6.80453">
        <ele>958.2</ele>
        <time>2024-07-18T13:29:22Z</time>
      </trkpt>
      <trkpt lat="48.0482" lon="6.80441">
        <ele>957.2</ele>
        <time>2024-07-18T13:29:26Z</time>
      </trkpt>
      <trkpt lat="48.04828" lon="6.80431">
        <ele>956.2</ele>
        <time>2024-07-18T13:29:30Z</time>
      </trkpt>
      <trkpt lat="48.04832" lon="6.80416">
        <ele>955.1</ele>
        <time>2024-07-18T13:29:33Z</time>
      </trkpt>
      <trkpt lat="48.04836" lon="6.804">
        <ele>953.9</ele>
        <time>2024-07-18T13:29:36Z</time>
      </trkpt>
      <trkpt lat="48.04838" lon="6.80382">
        <ele>952.6</ele>
        <time>2024-07-18T13:29:39Z</time>
      </trkpt>
      <trkpt lat="48.04838" lon="6.80364">
        <ele>951.3</ele>
        <time>2024-07-18T13:29:42Z</time>
      </trkpt>
      <trkpt lat="48.04835" lon="6.80351">
        <ele>950.5</ele>
        <time>2024-07-18T13:29:44Z</time>
      </trkpt>
      <trkpt lat="48.04828" lon="6.80337">
        <ele>949.8</ele>
        <time>2024-07-18T13:29:47Z</time>
      </trkpt>
      <trkpt lat="48.04819" lon="6.80323">
        <ele>949</ele>
        <time>2024-07-18T13:29:50Z</time>
      </trkpt>
      <trkpt lat="48.04813" lon="6.80313">
        <ele>948.2</ele>
        <time>2024-07-18T13:29:52Z</time>
      </trkpt>
      <trkpt lat="48.04806" lon="6.80303">
        <ele>947.5</ele>
        <time>2024-07-18T13:29:54Z</time>
      </trkpt>
      <trkpt lat="48.04799" lon="6.80289">
        <ele>946.6</ele>
        <time>2024-07-18T13:29:56Z</time>
      </trkpt>
      <trkpt lat="48.0479" lon="6.8028">
        <ele>945.6</ele>
        <time>2024-07-18T13:29:58Z</time>
      </trkpt>
      <trkpt lat="48.04781" lon="6.80278">
        <ele>944.8</ele>
        <time>2024-07-18T13:30:01Z</time>
      </trkpt>
      <trkpt lat="48.04771" lon="6.8028">
        <ele>943.8</ele>
        <time>2024-07-18T13:30:04Z</time>
      </trkpt>
      <trkpt lat="48.04762" lon="6.80277">
        <ele>943</ele>
        <time>2024-07-18T13:30:08Z</time>
      </trkpt>
      <trkpt lat="48.04752" lon="6.80275">
        <ele>942.1</ele>
        <time>2024-07-18T13:30:11Z</time>
      </trkpt>
      <trkpt lat="48.04741" lon="6.80275">
        <ele>940.7</ele>
        <time>2024-07-18T13:30:14Z</time>
      </trkpt>
      <trkpt lat="48.04732" lon="6.80271">
        <ele>939.6</ele>
        <time>2024-07-18T13:30:17Z</time>
      </trkpt>
      <trkpt lat="48.04722" lon="6.80269">
        <ele>938.3</ele>
        <time>2024-07-18T13:30:22Z</time>
      </trkpt>
      <trkpt lat="48.04713" lon="6.80265">
        <ele>937.1</ele>
        <time>2024-07-18T13:30:37Z</time>
      </trkpt>
      <trkpt lat="48.04703" lon="6.80264">
        <ele>935.9</ele>
        <time>2024-07-18T13:30:46Z</time>
      </trkpt>
      <trkpt lat="48.04694" lon="6.80266">
        <ele>934.7</ele>
        <time>2024-07-18T13:30:55Z</time>
      </trkpt>
      <trkpt lat="48.04685" lon="6.80263">
        <ele>933.6</ele>
        <time>2024-07-18T13:31:04Z</time>
      </trkpt>
      <trkpt lat="48.04676" lon="6.80258">
        <ele>932.4</ele>
        <time>2024-07-18T13:31:14Z</time>
      </trkpt>
      <trkpt lat="48.04668" lon="6.8025">
        <ele>931.5</ele>
        <time>2024-07-18T13:31:22Z</time>
      </trkpt>
      <trkpt lat="48.04659" lon="6.80243">
        <ele>931.1</ele>
        <time>2024-07-18T13:31:30Z</time>
      </trkpt>
      <trkpt lat="48.04652" lon="6.80233">
        <ele>930.9</ele>
        <time>2024-07-18T13:31:38Z</time>
      </trkpt>
      <trkpt lat="48.04645" lon="6.80223">
        <ele>931</ele>
        <time>2024-07-18T13:31:46Z</time>
      </trkpt>
      <trkpt lat="48.04638" lon="6.80214">
        <ele>931.1</ele>
        <time>2024-07-18T13:31:53Z</time>
      </trkpt>
      <trkpt lat="48.04628" lon="6.80212">
        <ele>931.1</ele>
        <time>2024-07-18T13:32:02Z</time>
      </trkpt>
      <trkpt lat="48.04625" lon="6.80211">
        <ele>931</ele>
        <time>2024-07-18T13:32:15Z</time>
      </trkpt>
      <trkpt lat="48.04625" lon="6.80211">
        <ele>931</ele>
        <time>2024-07-18T13:32:16Z</time>
      </trkpt>
      <trkpt lat="48.04625" lon="6.80211">
        <ele>931</ele>
        <time>2024-07-18T13:32:17Z</time>
      </trkpt>
      <trkpt lat="48.04622" lon="6.80212">
        <ele>931</ele>
        <time>2024-07-18T13:32:43Z</time>
      </trkpt>
      <trkpt lat="48.04621" lon="6.80213">
        <ele>930.9</ele>
        <time>2024-07-18T13:32:44Z</time>
      </trkpt>
      <trkpt lat="48.04621" lon="6.80214">
        <ele>930.9</ele>
        <time>2024-07-18T13:32:45Z</time>
      </trkpt>
      <trkpt lat="48.0462" lon="6.80214">
        <ele>930.9</ele>
        <time>2024-07-18T13:32:51Z</time>
      </trkpt>
      <trkpt lat="48.0462" lon="6.80214">
        <ele>930.9</ele>
        <time>2024-07-18T13:32:52Z</time>
      </trkpt>
      <trkpt lat="48.0462" lon="6.80214">
        <ele>930.9</ele>
        <time>2024-07-18T13:32:53Z</time>
      </trkpt>
      <trkpt lat="48.0462" lon="6.80214">
        <ele>930.9</ele>
        <time>2024-07-18T13:33:18Z</time>
      </trkpt>
      <trkpt lat="48.0462" lon="6.80214">
        <ele>930.9</ele>
        <time>2024-07-18T13:33:19Z</time>
      </trkpt>
      <trkpt lat="48.0462" lon="6.80214">
        <ele>930.9</ele>
        <time>2024-07-18T13:33:20Z</time>
      </trkpt>
      <trkpt lat="48.0462" lon="6.80214">
        <ele>930.9</ele>
        <time>2024-07-18T13:33:21Z</time>
      </trkpt>
      <trkpt lat="48.0462" lon="6.80214">
        <ele>930.9</ele>
        <time>2024-07-18T13:33:22Z</time>
      </trkpt>
      <trkpt lat="48.04621" lon="6.80215">
        <ele>930.8</ele>
        <time>2024-07-18T13:33:46Z</time>
      </trkpt>
      <trkpt lat="48.04621" lon="6.80215">
        <ele>930.8</ele>
        <time>2024-07-18T13:33:47Z</time>
      </trkpt>
      <trkpt lat="48.04621" lon="6.80215">
        <ele>930.8</ele>
        <time>2024-07-18T13:33:48Z</time>
      </trkpt>
      <trkpt lat="48.04621" lon="6.80215">
        <ele>930.8</ele>
        <time>2024-07-18T13:33:49Z</time>
      </trkpt>
      <trkpt lat="48.04621" lon="6.80215">
        <ele>930.8</ele>
        <time>2024-07-18T13:33:53Z</time>
      </trkpt>
      <trkpt lat="48.04621" lon="6.80215">
        <ele>930.8</ele>
        <time>2024-07-18T13:33:54Z</time>
      </trkpt>
      <trkpt lat="48.04619" lon="6.80214">
        <ele>930.8</ele>
        <time>2024-07-18T13:34:05Z</time>
      </trkpt>
      <trkpt lat="48.04619" lon="6.80214">
        <ele>930.8</ele>
        <time>2024-07-18T13:34:06Z</time>
      </trkpt>
      <trkpt lat="48.04619" lon="6.80214">
        <ele>930.8</ele>
        <time>2024-07-18T13:34:07Z</time>
      </trkpt>
      <trkpt lat="48.04619" lon="6.80214">
        <ele>930.8</ele>
        <time>2024-07-18T13:34:08Z</time>
      </trkpt>
      <trkpt lat="48.04619" lon="6.80214">
        <ele>930.8</ele>
        <time>2024-07-18T13:34:09Z</time>
      </trkpt>
      <trkpt lat="48.04619" lon="6.80214">
        <ele>930.8</ele>
        <time>2024-07-18T13:34:10Z</time>
      </trkpt>
      <trkpt lat="48.04619" lon="6.80214">
        <ele>930.8</ele>
        <time>2024-07-18T13:34:11Z</time>
      </trkpt>
      <trkpt lat="48.04619" lon="6.80214">
        <ele>930.8</ele>
        <time>2024-07-18T13:34:12Z</time>
      </trkpt>
      <trkpt lat="48.04619" lon="6.80213">
        <ele>930.7</ele>
        <time>2024-07-18T13:34:13Z</time>
      </trkpt>
      <trkpt lat="48.04619" lon="6.80213">
        <ele>930.7</ele>
        <time>2024-07-18T13:34:14Z</time>
      </trkpt>
      <trkpt lat="48.04618" lon="6.80212">
        <ele>930.7</ele>
        <time>2024-07-18T13:34:15Z</time>
      </trkpt>
      <trkpt lat="48.04613" lon="6.80199">
        <ele>930</ele>
        <time>2024-07-18T13:34:22Z</time>
      </trkpt>
      <trkpt lat="48.04611" lon="6.80186">
        <ele>929.2</ele>
        <time>2024-07-18T13:34:25Z</time>
      </trkpt>
      <trkpt lat="48.04606" lon="6.80173">
        <ele>928.4</ele>
        <time>2024-07-18T13:34:27Z</time>
      </trkpt>
      <trkpt lat="48.04599" lon="6.80159">
        <ele>927.8</ele>
        <time>2024-07-18T13:34:29Z</time>
      </trkpt>
      <trkpt lat="48.04592" lon="6.80144">
        <ele>927.5</ele>
        <time>2024-07-18T13:34:31Z</time>
      </trkpt>
      <trkpt lat="48.04586" lon="6.8013">
        <ele>927.5</ele>
        <time>2024-07-18T13:34:33Z</time>
      </trkpt>
      <trkpt lat="48.04582" lon="6.80118">
        <ele>927.6</ele>
        <time>2024-07-18T13:34:35Z</time>
      </trkpt>
      <trkpt lat="48.04579" lon="6.80102">
        <ele>927.8</ele>
        <time>2024-07-18T13:34:38Z</time>
      </trkpt>
      <trkpt lat="48.04581" lon="6.80088">
        <ele>928.1</ele>
        <time>2024-07-18T13:34:41Z</time>
      </trkpt>
      <trkpt lat="48.04585" lon="6.80072">
        <ele>928.5</ele>
        <time>2024-07-18T13:34:44Z</time>
      </trkpt>
      <trkpt lat="48.04592" lon="6.80063">
        <ele>928.9</ele>
        <time>2024-07-18T13:34:47Z</time>
      </trkpt>
      <trkpt lat="48.04599" lon="6.80054">
        <ele>929.5</ele>
        <time>2024-07-18T13:34:50Z</time>
      </trkpt>
      <trkpt lat="48.04607" lon="6.80044">
        <ele>930.2</ele>
        <time>2024-07-18T13:34:54Z</time>
      </trkpt>
      <trkpt lat="48.04614" lon="6.80034">
        <ele>930.9</ele>
        <time>2024-07-18T13:34:59Z</time>
      </trkpt>
      <trkpt lat="48.04622" lon="6.80026">
        <ele>931.6</ele>
        <time>2024-07-18T13:35:04Z</time>
      </trkpt>
      <trkpt lat="48.04628" lon="6.80013">
        <ele>932.3</ele>
        <time>2024-07-18T13:35:08Z</time>
      </trkpt>
      <trkpt lat="48.04632" lon="6.80001">
        <ele>933</ele>
        <time>2024-07-18T13:35:11Z</time>
      </trkpt>
      <trkpt lat="48.04638" lon="6.79987">
        <ele>933.7</ele>
        <time>2024-07-18T13:35:15Z</time>
      </trkpt>
      <trkpt lat="48.04642" lon="6.79975">
        <ele>934.2</ele>
        <time>2024-07-18T13:36:05Z</time>
      </trkpt>
      <trkpt lat="48.04641" lon="6.79965">
        <ele>934.6</ele>
        <time>2024-07-18T13:36:19Z</time>
      </trkpt>
      <trkpt lat="48.04641" lon="6.79965">
        <ele>934.6</ele>
        <time>2024-07-18T13:36:20Z</time>
      </trkpt>
      <trkpt lat="48.04641" lon="6.79965">
        <ele>934.7</ele>
        <time>2024-07-18T13:36:24Z</time>
      </trkpt>
      <trkpt lat="48.04641" lon="6.79964">
        <ele>934.7</ele>
        <time>2024-07-18T13:36:25Z</time>
      </trkpt>
      <trkpt lat="48.04641" lon="6.79964">
        <ele>934.7</ele>
        <time>2024-07-18T13:36:26Z</time>
      </trkpt>
      <trkpt lat="48.04641" lon="6.79964">
        <ele>934.7</ele>
        <time>2024-07-18T13:36:27Z</time>
      </trkpt>
      <trkpt lat="48.04641" lon="6.79965">
        <ele>934.7</ele>
        <time>2024-07-18T13:36:30Z</time>
      </trkpt>
      <trkpt lat="48.04641" lon="6.79965">
        <ele>934.7</ele>
        <time>2024-07-18T13:36:31Z</time>
      </trkpt>
      <trkpt lat="48.04641" lon="6.79965">
        <ele>934.7</ele>
        <time>2024-07-18T13:36:32Z</time>
      </trkpt>
      <trkpt lat="48.04641" lon="6.79965">
        <ele>934.7</ele>
        <time>2024-07-18T13:36:33Z</time>
      </trkpt>
      <trkpt lat="48.04641" lon="6.79965">
        <ele>934.7</ele>
        <time>2024-07-18T13:36:34Z</time>
      </trkpt>
      <trkpt lat="48.04641" lon="6.79965">
        <ele>934.7</ele>
        <time>2024-07-18T13:36:35Z</time>
      </trkpt>
      <trkpt lat="48.0464" lon="6.79963">
        <ele>934.8</ele>
        <time>2024-07-18T13:36:56Z</time>
      </trkpt>
      <trkpt lat="48.0464" lon="6.79963">
        <ele>934.8</ele>
        <time>2024-07-18T13:36:57Z</time>
      </trkpt>
      <trkpt lat="48.0464" lon="6.79963">
        <ele>934.8</ele>
        <time>2024-07-18T13:36:58Z</time>
      </trkpt>
      <trkpt lat="48.0464" lon="6.79963">
        <ele>934.8</ele>
        <time>2024-07-18T13:36:59Z</time>
      </trkpt>
      <trkpt lat="48.04639" lon="6.79965">
        <ele>934.9</ele>
        <time>2024-07-18T13:37:51Z</time>
      </trkpt>
      <trkpt lat="48.04639" lon="6.79966">
        <ele>935</ele>
        <time>2024-07-18T13:37:52Z</time>
      </trkpt>
      <trkpt lat="48.04639" lon="6.79968">
        <ele>935.1</ele>
        <time>2024-07-18T13:37:58Z</time>
      </trkpt>
      <trkpt lat="48.04639" lon="6.79968">
        <ele>935.1</ele>
        <time>2024-07-18T13:37:59Z</time>
      </trkpt>
      <trkpt lat="48.0464" lon="6.7997">
        <ele>935.2</ele>
        <time>2024-07-18T13:38:05Z</time>
      </trkpt>
      <trkpt lat="48.0464" lon="6.7997">
        <ele>935.2</ele>
        <time>2024-07-18T13:38:06Z</time>
      </trkpt>
      <trkpt lat="48.04641" lon="6.79971">
        <ele>935.3</ele>
        <time>2024-07-18T13:38:07Z</time>
      </trkpt>
      <trkpt lat="48.04649" lon="6.79964">
        <ele>936.1</ele>
        <time>2024-07-18T13:38:23Z</time>
      </trkpt>
      <trkpt lat="48.04655" lon="6.79953">
        <ele>937</ele>
        <time>2024-07-18T13:38:48Z</time>
      </trkpt>
      <trkpt lat="48.04657" lon="6.79947">
        <ele>937.5</ele>
        <time>2024-07-18T13:38:59Z</time>
      </trkpt>
      <trkpt lat="48.04657" lon="6.79947">
        <ele>937.5</ele>
        <time>2024-07-18T13:39:00Z</time>
      </trkpt>
      <trkpt lat="48.04657" lon="6.79948">
        <ele>937.6</ele>
        <time>2024-07-18T13:39:04Z</time>
      </trkpt>
      <trkpt lat="48.04657" lon="6.79948">
        <ele>937.6</ele>
        <time>2024-07-18T13:39:05Z</time>
      </trkpt>
      <trkpt lat="48.04659" lon="6.79951">
        <ele>937.9</ele>
        <time>2024-07-18T13:39:20Z</time>
      </trkpt>
      <trkpt lat="48.04659" lon="6.79951">
        <ele>937.9</ele>
        <time>2024-07-18T13:39:21Z</time>
      </trkpt>
      <trkpt lat="48.04659" lon="6.79951">
        <ele>937.9</ele>
        <time>2024-07-18T13:39:22Z</time>
      </trkpt>
      <trkpt lat="48.04659" lon="6.79951">
        <ele>937.9</ele>
        <time>2024-07-18T13:39:23Z</time>
      </trkpt>
      <trkpt lat="48.04659" lon="6.79951">
        <ele>937.9</ele>
        <time>2024-07-18T13:39:24Z</time>
      </trkpt>
      <trkpt lat="48.04659" lon="6.79951">
        <ele>937.9</ele>
        <time>2024-07-18T13:39:25Z</time>
      </trkpt>
      <trkpt lat="48.04659" lon="6.79951">
        <ele>937.9</ele>
        <time>2024-07-18T13:39:26Z</time>
      </trkpt>
      <trkpt lat="48.04659" lon="6.79951">
        <ele>937.9</ele>
        <time>2024-07-18T13:39:27Z</time>
      </trkpt>
      <trkpt lat="48.04659" lon="6.79952">
        <ele>937.9</ele>
        <time>2024-07-18T13:39:38Z</time>
      </trkpt>
      <trkpt lat="48.04659" lon="6.79952">
        <ele>938</ele>
        <time>2024-07-18T13:39:39Z</time>
      </trkpt>
      <trkpt lat="48.04659" lon="6.79952">
        <ele>938</ele>
        <time>2024-07-18T13:39:40Z</time>
      </trkpt>
      <trkpt lat="48.04659" lon="6.79951">
        <ele>938.1</ele>
        <time>2024-07-18T13:39:49Z</time>
      </trkpt>
      <trkpt lat="48.04659" lon="6.79951">
        <ele>938.1</ele>
        <time>2024-07-18T13:39:50Z</time>
      </trkpt>
      <trkpt lat="48.04659" lon="6.79951">
        <ele>938.1</ele>
        <time>2024-07-18T13:40:11Z</time>
      </trkpt>
      <trkpt lat="48.04659" lon="6.79951">
        <ele>938.1</ele>
        <time>2024-07-18T13:40:12Z</time>
      </trkpt>
      <trkpt lat="48.04659" lon="6.79949">
        <ele>938.3</ele>
        <time>2024-07-18T13:40:18Z</time>
      </trkpt>
      <trkpt lat="48.04659" lon="6.79949">
        <ele>938.3</ele>
        <time>2024-07-18T13:40:19Z</time>
      </trkpt>
      <trkpt lat="48.0466" lon="6.79948">
        <ele>938.3</ele>
        <time>2024-07-18T13:40:20Z</time>
      </trkpt>
      <trkpt lat="48.0466" lon="6.79948">
        <ele>938.3</ele>
        <time>2024-07-18T13:40:24Z</time>
      </trkpt>
      <trkpt lat="48.0466" lon="6.79948">
        <ele>938.3</ele>
        <time>2024-07-18T13:40:25Z</time>
      </trkpt>
      <trkpt lat="48.0466" lon="6.79948">
        <ele>938.3</ele>
        <time>2024-07-18T13:40:26Z</time>
      </trkpt>
      <trkpt lat="48.0466" lon="6.79948">
        <ele>938.3</ele>
        <time>2024-07-18T13:40:27Z</time>
      </trkpt>
      <trkpt lat="48.04655" lon="6.79943">
        <ele>938.9</ele>
        <time>2024-07-18T13:41:41Z</time>
      </trkpt>
      <trkpt lat="48.04655" lon="6.79943">
        <ele>938.9</ele>
        <time>2024-07-18T13:41:42Z</time>
      </trkpt>
      <trkpt lat="48.04655" lon="6.79943">
        <ele>938.9</ele>
        <time>2024-07-18T13:41:43Z</time>
      </trkpt>
      <trkpt lat="48.04655" lon="6.79943">
        <ele>938.9</ele>
        <time>2024-07-18T13:41:44Z</time>
      </trkpt>
      <trkpt lat="48.04655" lon="6.79943">
        <ele>938.9</ele>
        <time>2024-07-18T13:41:45Z</time>
      </trkpt>
      <trkpt lat="48.04655" lon="6.79943">
        <ele>938.9</ele>
        <time>2024-07-18T13:42:16Z</time>
      </trkpt>
      <trkpt lat="48.04655" lon="6.79943">
        <ele>938.9</ele>
        <time>2024-07-18T13:42:17Z</time>
      </trkpt>
      <trkpt lat="48.04655" lon="6.79943">
        <ele>938.9</ele>
        <time>2024-07-18T13:42:18Z</time>
      </trkpt>
      <trkpt lat="48.04655" lon="6.79943">
        <ele>938.9</ele>
        <time>2024-07-18T13:42:19Z</time>
      </trkpt>
      <trkpt lat="48.04655" lon="6.79943">
        <ele>938.9</ele>
        <time>2024-07-18T13:42:20Z</time>
      </trkpt>
      <trkpt lat="48.04655" lon="6.79943">
        <ele>938.9</ele>
        <time>2024-07-18T13:42:56Z</time>
      </trkpt>
      <trkpt lat="48.04655" lon="6.79943">
        <ele>938.9</ele>
        <time>2024-07-18T13:42:57Z</time>
      </trkpt>
      <trkpt lat="48.04655" lon="6.79943">
        <ele>939</ele>
        <time>2024-07-18T13:42:58Z</time>
      </trkpt>
      <trkpt lat="48.04655" lon="6.79943">
        <ele>939</ele>
        <time>2024-07-18T13:43:01Z</time>
      </trkpt>
      <trkpt lat="48.04655" lon="6.79943">
        <ele>939</ele>
        <time>2024-07-18T13:43:02Z</time>
      </trkpt>
      <trkpt lat="48.04655" lon="6.79943">
        <ele>939</ele>
        <time>2024-07-18T13:43:03Z</time>
      </trkpt>
      <trkpt lat="48.04655" lon="6.79944">
        <ele>939</ele>
        <time>2024-07-18T13:44:05Z</time>
      </trkpt>
      <trkpt lat="48.04656" lon="6.79944">
        <ele>939.1</ele>
        <time>2024-07-18T13:44:06Z</time>
      </trkpt>
      <trkpt lat="48.04656" lon="6.79944">
        <ele>939.1</ele>
        <time>2024-07-18T13:44:07Z</time>
      </trkpt>
      <trkpt lat="48.04656" lon="6.79944">
        <ele>939.1</ele>
        <time>2024-07-18T13:44:08Z</time>
      </trkpt>
      <trkpt lat="48.04656" lon="6.79944">
        <ele>939.1</ele>
        <time>2024-07-18T13:44:09Z</time>
      </trkpt>
      <trkpt lat="48.04656" lon="6.79943">
        <ele>939.1</ele>
        <time>2024-07-18T13:51:23Z</time>
      </trkpt>
      <trkpt lat="48.04656" lon="6.79943">
        <ele>939.2</ele>
        <time>2024-07-18T13:51:24Z</time>
      </trkpt>
      <trkpt lat="48.04656" lon="6.79943">
        <ele>939.2</ele>
        <time>2024-07-18T13:51:25Z</time>
      </trkpt>
      <trkpt lat="48.04656" lon="6.79943">
        <ele>939.2</ele>
        <time>2024-07-18T13:51:26Z</time>
      </trkpt>
      <trkpt lat="48.04656" lon="6.79943">
        <ele>939.2</ele>
        <time>2024-07-18T13:51:27Z</time>
      </trkpt>
      <trkpt lat="48.04655" lon="6.79943">
        <ele>939.2</ele>
        <time>2024-07-18T13:53:50Z</time>
      </trkpt>
      <trkpt lat="48.04655" lon="6.79943">
        <ele>939.2</ele>
        <time>2024-07-18T13:53:51Z</time>
      </trkpt>
      <trkpt lat="48.04655" lon="6.79943">
        <ele>939.2</ele>
        <time>2024-07-18T13:53:52Z</time>
      </trkpt>
      <trkpt lat="48.04655" lon="6.79943">
        <ele>939.2</ele>
        <time>2024-07-18T13:53:53Z</time>
      </trkpt>
      <trkpt lat="48.04655" lon="6.79943">
        <ele>939.2</ele>
        <time>2024-07-18T13:53:54Z</time>
      </trkpt>
      <trkpt lat="48.04655" lon="6.79943">
        <ele>939.2</ele>
        <time>2024-07-18T13:53:55Z</time>
      </trkpt>
      <trkpt lat="48.04655" lon="6.79943">
        <ele>939.2</ele>
        <time>2024-07-18T13:55:08Z</time>
      </trkpt>
      <trkpt lat="48.04655" lon="6.79943">
        <ele>939.2</ele>
        <time>2024-07-18T13:55:09Z</time>
      </trkpt>
      <trkpt lat="48.04655" lon="6.79943">
        <ele>939.3</ele>
        <time>2024-07-18T13:55:10Z</time>
      </trkpt>
      <trkpt lat="48.04655" lon="6.79943">
        <ele>939.3</ele>
        <time>2024-07-18T13:55:11Z</time>
      </trkpt>
      <trkpt lat="48.04655" lon="6.79943">
        <ele>939.3</ele>
        <time>2024-07-18T13:55:12Z</time>
      </trkpt>
      <trkpt lat="48.04654" lon="6.79943">
        <ele>939.3</ele>
        <time>2024-07-18T14:04:18Z</time>
      </trkpt>
      <trkpt lat="48.04654" lon="6.79943">
        <ele>939.3</ele>
        <time>2024-07-18T14:04:19Z</time>
      </trkpt>
      <trkpt lat="48.04654" lon="6.79943">
        <ele>939.3</ele>
        <time>2024-07-18T14:04:20Z</time>
      </trkpt>
      <trkpt lat="48.04654" lon="6.79943">
        <ele>939.3</ele>
        <time>2024-07-18T14:04:21Z</time>
      </trkpt>
      <trkpt lat="48.04654" lon="6.79943">
        <ele>939.4</ele>
        <time>2024-07-18T14:04:22Z</time>
      </trkpt>
      <trkpt lat="48.04658" lon="6.79939">
        <ele>939.7</ele>
        <time>2024-07-18T14:05:25Z</time>
      </trkpt>
      <trkpt lat="48.04658" lon="6.79939">
        <ele>939.7</ele>
        <time>2024-07-18T14:05:26Z</time>
      </trkpt>
      <trkpt lat="48.04658" lon="6.79938">
        <ele>939.8</ele>
        <time>2024-07-18T14:05:27Z</time>
      </trkpt>
      <trkpt lat="48.04658" lon="6.79938">
        <ele>939.8</ele>
        <time>2024-07-18T14:05:28Z</time>
      </trkpt>
      <trkpt lat="48.04658" lon="6.79938">
        <ele>939.8</ele>
        <time>2024-07-18T14:05:29Z</time>
      </trkpt>
      <trkpt lat="48.04658" lon="6.79938">
        <ele>939.8</ele>
        <time>2024-07-18T14:05:30Z</time>
      </trkpt>
      <trkpt lat="48.04658" lon="6.79937">
        <ele>939.9</ele>
        <time>2024-07-18T14:09:38Z</time>
      </trkpt>
      <trkpt lat="48.04658" lon="6.79937">
        <ele>939.9</ele>
        <time>2024-07-18T14:09:39Z</time>
      </trkpt>
      <trkpt lat="48.04658" lon="6.79937">
        <ele>939.9</ele>
        <time>2024-07-18T14:09:40Z</time>
      </trkpt>
      <trkpt lat="48.04658" lon="6.79937">
        <ele>939.9</ele>
        <time>2024-07-18T14:09:41Z</time>
      </trkpt>
      <trkpt lat="48.04658" lon="6.79937">
        <ele>939.9</ele>
        <time>2024-07-18T14:09:42Z</time>
      </trkpt>
      <trkpt lat="48.04658" lon="6.79937">
        <ele>939.9</ele>
        <time>2024-07-18T14:10:06Z</time>
      </trkpt>
      <trkpt lat="48.04658" lon="6.79937">
        <ele>939.9</ele>
        <time>2024-07-18T14:10:07Z</time>
      </trkpt>
      <trkpt lat="48.04658" lon="6.79937">
        <ele>939.9</ele>
        <time>2024-07-18T14:10:08Z</time>
      </trkpt>
      <trkpt lat="48.04658" lon="6.79937">
        <ele>939.9</ele>
        <time>2024-07-18T14:10:09Z</time>
      </trkpt>
      <trkpt lat="48.04657" lon="6.79938">
        <ele>939.9</ele>
        <time>2024-07-18T14:11:58Z</time>
      </trkpt>
      <trkpt lat="48.04657" lon="6.79937">
        <ele>939.9</ele>
        <time>2024-07-18T14:11:59Z</time>
      </trkpt>
      <trkpt lat="48.04657" lon="6.79937">
        <ele>939.9</ele>
        <time>2024-07-18T14:12:00Z</time>
      </trkpt>
      <trkpt lat="48.04657" lon="6.79937">
        <ele>939.9</ele>
        <time>2024-07-18T14:12:01Z</time>
      </trkpt>
      <trkpt lat="48.04657" lon="6.79937">
        <ele>939.9</ele>
        <time>2024-07-18T14:12:02Z</time>
      </trkpt>
      <trkpt lat="48.04657" lon="6.79934">
        <ele>940.1</ele>
        <time>2024-07-18T14:13:18Z</time>
      </trkpt>
      <trkpt lat="48.04657" lon="6.79934">
        <ele>940.1</ele>
        <time>2024-07-18T14:13:19Z</time>
      </trkpt>
      <trkpt lat="48.04657" lon="6.79934">
        <ele>940.1</ele>
        <time>2024-07-18T14:13:20Z</time>
      </trkpt>
      <trkpt lat="48.04657" lon="6.79935">
        <ele>940.1</ele>
        <time>2024-07-18T14:14:23Z</time>
      </trkpt>
      <trkpt lat="48.04657" lon="6.79935">
        <ele>940.1</ele>
        <time>2024-07-18T14:14:30Z</time>
      </trkpt>
      <trkpt lat="48.04657" lon="6.79935">
        <ele>940.1</ele>
        <time>2024-07-18T14:14:31Z</time>
      </trkpt>
      <trkpt lat="48.04657" lon="6.79935">
        <ele>940.1</ele>
        <time>2024-07-18T14:14:32Z</time>
      </trkpt>
      <trkpt lat="48.04656" lon="6.79936">
        <ele>940.2</ele>
        <time>2024-07-18T14:14:36Z</time>
      </trkpt>
      <trkpt lat="48.04653" lon="6.79923">
        <ele>940.6</ele>
        <time>2024-07-18T14:15:01Z</time>
      </trkpt>
      <trkpt lat="48.04655" lon="6.7991">
        <ele>940.9</ele>
        <time>2024-07-18T14:15:20Z</time>
      </trkpt>
      <trkpt lat="48.04659" lon="6.79896">
        <ele>941</ele>
        <time>2024-07-18T14:16:16Z</time>
      </trkpt>
      <trkpt lat="48.04663" lon="6.79884">
        <ele>941</ele>
        <time>2024-07-18T14:16:22Z</time>
      </trkpt>
      <trkpt lat="48.04669" lon="6.79873">
        <ele>940.9</ele>
        <time>2024-07-18T14:16:29Z</time>
      </trkpt>
      <trkpt lat="48.04676" lon="6.79863">
        <ele>940.6</ele>
        <time>2024-07-18T14:16:36Z</time>
      </trkpt>
      <trkpt lat="48.04684" lon="6.79855">
        <ele>940.3</ele>
        <time>2024-07-18T14:16:45Z</time>
      </trkpt>
      <trkpt lat="48.0469" lon="6.79844">
        <ele>940</ele>
        <time>2024-07-18T14:16:53Z</time>
      </trkpt>
      <trkpt lat="48.04697" lon="6.79833">
        <ele>939.8</ele>
        <time>2024-07-18T14:17:01Z</time>
      </trkpt>
      <trkpt lat="48.04702" lon="6.7982">
        <ele>939.8</ele>
        <time>2024-07-18T14:17:08Z</time>
      </trkpt>
      <trkpt lat="48.04706" lon="6.79808">
        <ele>939.8</ele>
        <time>2024-07-18T14:17:15Z</time>
      </trkpt>
      <trkpt lat="48.04711" lon="6.79795">
        <ele>939.9</ele>
        <time>2024-07-18T14:17:23Z</time>
      </trkpt>
      <trkpt lat="48.04719" lon="6.79788">
        <ele>940.1</ele>
        <time>2024-07-18T14:17:37Z</time>
      </trkpt>
      <trkpt lat="48.04723" lon="6.79775">
        <ele>940.3</ele>
        <time>2024-07-18T14:17:54Z</time>
      </trkpt>
      <trkpt lat="48.04732" lon="6.79766">
        <ele>940.6</ele>
        <time>2024-07-18T14:18:04Z</time>
      </trkpt>
      <trkpt lat="48.0474" lon="6.79757">
        <ele>940.9</ele>
        <time>2024-07-18T14:18:11Z</time>
      </trkpt>
      <trkpt lat="48.04747" lon="6.79747">
        <ele>941.3</ele>
        <time>2024-07-18T14:18:19Z</time>
      </trkpt>
      <trkpt lat="48.04756" lon="6.79739">
        <ele>941.7</ele>
        <time>2024-07-18T14:18:27Z</time>
      </trkpt>
      <trkpt lat="48.04763" lon="6.79728">
        <ele>942.3</ele>
        <time>2024-07-18T14:18:39Z</time>
      </trkpt>
      <trkpt lat="48.0477" lon="6.79717">
        <ele>942.9</ele>
        <time>2024-07-18T14:18:47Z</time>
      </trkpt>
      <trkpt lat="48.04773" lon="6.79703">
        <ele>943.5</ele>
        <time>2024-07-18T14:18:55Z</time>
      </trkpt>
      <trkpt lat="48.04775" lon="6.7969">
        <ele>944</ele>
        <time>2024-07-18T14:19:02Z</time>
      </trkpt>
      <trkpt lat="48.04773" lon="6.79675">
        <ele>944.5</ele>
        <time>2024-07-18T14:19:10Z</time>
      </trkpt>
      <trkpt lat="48.04768" lon="6.79662">
        <ele>945</ele>
        <time>2024-07-18T14:19:18Z</time>
      </trkpt>
      <trkpt lat="48.04762" lon="6.7965">
        <ele>945.6</ele>
        <time>2024-07-18T14:19:24Z</time>
      </trkpt>
      <trkpt lat="48.04757" lon="6.79639">
        <ele>946.1</ele>
        <time>2024-07-18T14:19:31Z</time>
      </trkpt>
      <trkpt lat="48.04749" lon="6.79629">
        <ele>946.6</ele>
        <time>2024-07-18T14:19:38Z</time>
      </trkpt>
      <trkpt lat="48.0474" lon="6.79624">
        <ele>947</ele>
        <time>2024-07-18T14:19:44Z</time>
      </trkpt>
      <trkpt lat="48.04731" lon="6.79618">
        <ele>947.3</ele>
        <time>2024-07-18T14:19:51Z</time>
      </trkpt>
      <trkpt lat="48.04721" lon="6.79614">
        <ele>947.4</ele>
        <time>2024-07-18T14:19:59Z</time>
      </trkpt>
      <trkpt lat="48.04712" lon="6.79611">
        <ele>947.5</ele>
        <time>2024-07-18T14:20:10Z</time>
      </trkpt>
      <trkpt lat="48.047" lon="6.79609">
        <ele>947.6</ele>
        <time>2024-07-18T14:20:14Z</time>
      </trkpt>
      <trkpt lat="48.04689" lon="6.79615">
        <ele>947.7</ele>
        <time>2024-07-18T14:20:17Z</time>
      </trkpt>
      <trkpt lat="48.04678" lon="6.79621">
        <ele>947.8</ele>
        <time>2024-07-18T14:20:20Z</time>
      </trkpt>
      <trkpt lat="48.04667" lon="6.79624">
        <ele>947.8</ele>
        <time>2024-07-18T14:20:24Z</time>
      </trkpt>
      <trkpt lat="48.04656" lon="6.79621">
        <ele>947.7</ele>
        <time>2024-07-18T14:20:27Z</time>
      </trkpt>
      <trkpt lat="48.04647" lon="6.79618">
        <ele>947.6</ele>
        <time>2024-07-18T14:20:29Z</time>
      </trkpt>
      <trkpt lat="48.04638" lon="6.79618">
        <ele>947.4</ele>
        <time>2024-07-18T14:20:31Z</time>
      </trkpt>
      <trkpt lat="48.04628" lon="6.7962">
        <ele>947.3</ele>
        <time>2024-07-18T14:20:34Z</time>
      </trkpt>
      <trkpt lat="48.04617" lon="6.79623">
        <ele>947.2</ele>
        <time>2024-07-18T14:20:38Z</time>
      </trkpt>
      <trkpt lat="48.04607" lon="6.79628">
        <ele>947.1</ele>
        <time>2024-07-18T14:20:41Z</time>
      </trkpt>
      <trkpt lat="48.04594" lon="6.79631">
        <ele>947</ele>
        <time>2024-07-18T14:20:44Z</time>
      </trkpt>
      <trkpt lat="48.04581" lon="6.79631">
        <ele>947</ele>
        <time>2024-07-18T14:20:48Z</time>
      </trkpt>
      <trkpt lat="48.04569" lon="6.79628">
        <ele>947.1</ele>
        <time>2024-07-18T14:20:51Z</time>
      </trkpt>
      <trkpt lat="48.04558" lon="6.79627">
        <ele>947.2</ele>
        <time>2024-07-18T14:20:54Z</time>
      </trkpt>
      <trkpt lat="48.04547" lon="6.79631">
        <ele>947.3</ele>
        <time>2024-07-18T14:20:57Z</time>
      </trkpt>
      <trkpt lat="48.04536" lon="6.7963">
        <ele>947.2</ele>
        <time>2024-07-18T14:21:00Z</time>
      </trkpt>
      <trkpt lat="48.04525" lon="6.79626">
        <ele>946.7</ele>
        <time>2024-07-18T14:21:04Z</time>
      </trkpt>
      <trkpt lat="48.04514" lon="6.79616">
        <ele>946.2</ele>
        <time>2024-07-18T14:21:07Z</time>
      </trkpt>
      <trkpt lat="48.04507" lon="6.79608">
        <ele>945.9</ele>
        <time>2024-07-18T14:21:09Z</time>
      </trkpt>
      <trkpt lat="48.04499" lon="6.79598">
        <ele>945.6</ele>
        <time>2024-07-18T14:21:11Z</time>
      </trkpt>
      <trkpt lat="48.0449" lon="6.79591">
        <ele>945.3</ele>
        <time>2024-07-18T14:21:13Z</time>
      </trkpt>
      <trkpt lat="48.04481" lon="6.79582">
        <ele>945</ele>
        <time>2024-07-18T14:21:15Z</time>
      </trkpt>
      <trkpt lat="48.04475" lon="6.79572">
        <ele>944.8</ele>
        <time>2024-07-18T14:21:17Z</time>
      </trkpt>
      <trkpt lat="48.04468" lon="6.79563">
        <ele>944.5</ele>
        <time>2024-07-18T14:21:19Z</time>
      </trkpt>
      <trkpt lat="48.04458" lon="6.79553">
        <ele>944.3</ele>
        <time>2024-07-18T14:21:22Z</time>
      </trkpt>
      <trkpt lat="48.0445" lon="6.79543">
        <ele>944.3</ele>
        <time>2024-07-18T14:21:25Z</time>
      </trkpt>
      <trkpt lat="48.0444" lon="6.79535">
        <ele>944.3</ele>
        <time>2024-07-18T14:21:28Z</time>
      </trkpt>
      <trkpt lat="48.04431" lon="6.79524">
        <ele>944.2</ele>
        <time>2024-07-18T14:21:31Z</time>
      </trkpt>
      <trkpt lat="48.04423" lon="6.79515">
        <ele>944.1</ele>
        <time>2024-07-18T14:21:34Z</time>
      </trkpt>
      <trkpt lat="48.04415" lon="6.79504">
        <ele>943.9</ele>
        <time>2024-07-18T14:21:38Z</time>
      </trkpt>
      <trkpt lat="48.04409" lon="6.79488">
        <ele>943.5</ele>
        <time>2024-07-18T14:21:41Z</time>
      </trkpt>
      <trkpt lat="48.04401" lon="6.79473">
        <ele>943.1</ele>
        <time>2024-07-18T14:21:44Z</time>
      </trkpt>
      <trkpt lat="48.04393" lon="6.79463">
        <ele>942.7</ele>
        <time>2024-07-18T14:21:46Z</time>
      </trkpt>
      <trkpt lat="48.04386" lon="6.79453">
        <ele>942.3</ele>
        <time>2024-07-18T14:21:48Z</time>
      </trkpt>
      <trkpt lat="48.04382" lon="6.79442">
        <ele>941.9</ele>
        <time>2024-07-18T14:21:50Z</time>
      </trkpt>
      <trkpt lat="48.0438" lon="6.79427">
        <ele>941.4</ele>
        <time>2024-07-18T14:21:52Z</time>
      </trkpt>
      <trkpt lat="48.04379" lon="6.79407">
        <ele>940.7</ele>
        <time>2024-07-18T14:21:55Z</time>
      </trkpt>
      <trkpt lat="48.04379" lon="6.79392">
        <ele>940</ele>
        <time>2024-07-18T14:21:57Z</time>
      </trkpt>
      <trkpt lat="48.04378" lon="6.79375">
        <ele>939.5</ele>
        <time>2024-07-18T14:21:59Z</time>
      </trkpt>
      <trkpt lat="48.04376" lon="6.79357">
        <ele>938.9</ele>
        <time>2024-07-18T14:22:01Z</time>
      </trkpt>
      <trkpt lat="48.04375" lon="6.79341">
        <ele>938.4</ele>
        <time>2024-07-18T14:22:03Z</time>
      </trkpt>
      <trkpt lat="48.04373" lon="6.79321">
        <ele>937.9</ele>
        <time>2024-07-18T14:22:05Z</time>
      </trkpt>
      <trkpt lat="48.04371" lon="6.79302">
        <ele>937.5</ele>
        <time>2024-07-18T14:22:07Z</time>
      </trkpt>
      <trkpt lat="48.04367" lon="6.79287">
        <ele>937.2</ele>
        <time>2024-07-18T14:22:09Z</time>
      </trkpt>
      <trkpt lat="48.04363" lon="6.79272">
        <ele>937</ele>
        <time>2024-07-18T14:22:11Z</time>
      </trkpt>
      <trkpt lat="48.04359" lon="6.79257">
        <ele>936.9</ele>
        <time>2024-07-18T14:22:13Z</time>
      </trkpt>
      <trkpt lat="48.04355" lon="6.79243">
        <ele>936.9</ele>
        <time>2024-07-18T14:22:15Z</time>
      </trkpt>
      <trkpt lat="48.04351" lon="6.79228">
        <ele>936.8</ele>
        <time>2024-07-18T14:22:18Z</time>
      </trkpt>
      <trkpt lat="48.04348" lon="6.79213">
        <ele>936.7</ele>
        <time>2024-07-18T14:22:21Z</time>
      </trkpt>
      <trkpt lat="48.04343" lon="6.79199">
        <ele>936.3</ele>
        <time>2024-07-18T14:22:24Z</time>
      </trkpt>
      <trkpt lat="48.04337" lon="6.79183">
        <ele>935.5</ele>
        <time>2024-07-18T14:22:27Z</time>
      </trkpt>
      <trkpt lat="48.04332" lon="6.79169">
        <ele>934.5</ele>
        <time>2024-07-18T14:22:29Z</time>
      </trkpt>
      <trkpt lat="48.04326" lon="6.79159">
        <ele>933.5</ele>
        <time>2024-07-18T14:22:31Z</time>
      </trkpt>
      <trkpt lat="48.04322" lon="6.79145">
        <ele>932.4</ele>
        <time>2024-07-18T14:22:33Z</time>
      </trkpt>
      <trkpt lat="48.04317" lon="6.7913">
        <ele>931.1</ele>
        <time>2024-07-18T14:22:35Z</time>
      </trkpt>
      <trkpt lat="48.04314" lon="6.79117">
        <ele>929.9</ele>
        <time>2024-07-18T14:22:37Z</time>
      </trkpt>
      <trkpt lat="48.04308" lon="6.791">
        <ele>928.3</ele>
        <time>2024-07-18T14:22:40Z</time>
      </trkpt>
      <trkpt lat="48.04305" lon="6.79083">
        <ele>926.7</ele>
        <time>2024-07-18T14:22:43Z</time>
      </trkpt>
      <trkpt lat="48.04301" lon="6.79068">
        <ele>925.5</ele>
        <time>2024-07-18T14:22:45Z</time>
      </trkpt>
      <trkpt lat="48.04295" lon="6.79053">
        <ele>924.2</ele>
        <time>2024-07-18T14:22:47Z</time>
      </trkpt>
      <trkpt lat="48.04289" lon="6.79032">
        <ele>923</ele>
        <time>2024-07-18T14:22:49Z</time>
      </trkpt>
      <trkpt lat="48.04284" lon="6.79013">
        <ele>922.3</ele>
        <time>2024-07-18T14:22:51Z</time>
      </trkpt>
      <trkpt lat="48.0428" lon="6.78995">
        <ele>921.9</ele>
        <time>2024-07-18T14:22:53Z</time>
      </trkpt>
      <trkpt lat="48.04273" lon="6.7898">
        <ele>921.5</ele>
        <time>2024-07-18T14:22:55Z</time>
      </trkpt>
      <trkpt lat="48.04268" lon="6.78964">
        <ele>921.3</ele>
        <time>2024-07-18T14:22:58Z</time>
      </trkpt>
      <trkpt lat="48.04264" lon="6.78951">
        <ele>921.2</ele>
        <time>2024-07-18T14:23:01Z</time>
      </trkpt>
      <trkpt lat="48.04262" lon="6.78937">
        <ele>921.1</ele>
        <time>2024-07-18T14:23:04Z</time>
      </trkpt>
      <trkpt lat="48.0426" lon="6.7892">
        <ele>921.1</ele>
        <time>2024-07-18T14:23:08Z</time>
      </trkpt>
      <trkpt lat="48.04258" lon="6.78905">
        <ele>921.2</ele>
        <time>2024-07-18T14:23:12Z</time>
      </trkpt>
      <trkpt lat="48.04257" lon="6.78891">
        <ele>921.2</ele>
        <time>2024-07-18T14:23:15Z</time>
      </trkpt>
      <trkpt lat="48.04257" lon="6.78877">
        <ele>921.4</ele>
        <time>2024-07-18T14:23:18Z</time>
      </trkpt>
      <trkpt lat="48.04261" lon="6.78865">
        <ele>921.6</ele>
        <time>2024-07-18T14:23:21Z</time>
      </trkpt>
      <trkpt lat="48.04267" lon="6.78853">
        <ele>921.8</ele>
        <time>2024-07-18T14:23:24Z</time>
      </trkpt>
      <trkpt lat="48.04275" lon="6.78841">
        <ele>922.2</ele>
        <time>2024-07-18T14:23:27Z</time>
      </trkpt>
      <trkpt lat="48.0428" lon="6.78827">
        <ele>922.5</ele>
        <time>2024-07-18T14:23:30Z</time>
      </trkpt>
      <trkpt lat="48.04284" lon="6.78812">
        <ele>923</ele>
        <time>2024-07-18T14:23:34Z</time>
      </trkpt>
      <trkpt lat="48.04282" lon="6.78797">
        <ele>923.4</ele>
        <time>2024-07-18T14:23:37Z</time>
      </trkpt>
      <trkpt lat="48.04277" lon="6.78783">
        <ele>923.8</ele>
        <time>2024-07-18T14:23:40Z</time>
      </trkpt>
      <trkpt lat="48.04271" lon="6.78768">
        <ele>924.2</ele>
        <time>2024-07-18T14:23:43Z</time>
      </trkpt>
      <trkpt lat="48.04266" lon="6.78755">
        <ele>924.7</ele>
        <time>2024-07-18T14:23:46Z</time>
      </trkpt>
      <trkpt lat="48.04257" lon="6.78746">
        <ele>925.1</ele>
        <time>2024-07-18T14:23:49Z</time>
      </trkpt>
      <trkpt lat="48.04248" lon="6.78739">
        <ele>925.6</ele>
        <time>2024-07-18T14:23:53Z</time>
      </trkpt>
      <trkpt lat="48.04235" lon="6.78735">
        <ele>926.1</ele>
        <time>2024-07-18T14:23:58Z</time>
      </trkpt>
      <trkpt lat="48.04225" lon="6.78732">
        <ele>926.6</ele>
        <time>2024-07-18T14:24:02Z</time>
      </trkpt>
      <trkpt lat="48.04214" lon="6.78729">
        <ele>927.1</ele>
        <time>2024-07-18T14:24:07Z</time>
      </trkpt>
      <trkpt lat="48.04205" lon="6.78728">
        <ele>927.4</ele>
        <time>2024-07-18T14:24:12Z</time>
      </trkpt>
      <trkpt lat="48.04195" lon="6.78729">
        <ele>927.6</ele>
        <time>2024-07-18T14:24:16Z</time>
      </trkpt>
      <trkpt lat="48.04183" lon="6.7873">
        <ele>927.8</ele>
        <time>2024-07-18T14:24:20Z</time>
      </trkpt>
      <trkpt lat="48.04174" lon="6.78732">
        <ele>928</ele>
        <time>2024-07-18T14:24:23Z</time>
      </trkpt>
      <trkpt lat="48.04165" lon="6.78727">
        <ele>928.1</ele>
        <time>2024-07-18T14:24:27Z</time>
      </trkpt>
      <trkpt lat="48.04155" lon="6.78723">
        <ele>928.3</ele>
        <time>2024-07-18T14:24:31Z</time>
      </trkpt>
      <trkpt lat="48.04146" lon="6.7872">
        <ele>928.4</ele>
        <time>2024-07-18T14:24:34Z</time>
      </trkpt>
      <trkpt lat="48.04137" lon="6.78718">
        <ele>928.5</ele>
        <time>2024-07-18T14:24:38Z</time>
      </trkpt>
      <trkpt lat="48.04128" lon="6.78715">
        <ele>928.4</ele>
        <time>2024-07-18T14:24:42Z</time>
      </trkpt>
      <trkpt lat="48.04118" lon="6.78712">
        <ele>928</ele>
        <time>2024-07-18T14:24:46Z</time>
      </trkpt>
      <trkpt lat="48.04107" lon="6.78709">
        <ele>927.5</ele>
        <time>2024-07-18T14:24:49Z</time>
      </trkpt>
      <trkpt lat="48.04096" lon="6.78707">
        <ele>927</ele>
        <time>2024-07-18T14:24:51Z</time>
      </trkpt>
      <trkpt lat="48.04084" lon="6.78702">
        <ele>926.5</ele>
        <time>2024-07-18T14:24:53Z</time>
      </trkpt>
      <trkpt lat="48.04072" lon="6.78699">
        <ele>926.1</ele>
        <time>2024-07-18T14:24:55Z</time>
      </trkpt>
      <trkpt lat="48.04062" lon="6.78694">
        <ele>925.8</ele>
        <time>2024-07-18T14:24:57Z</time>
      </trkpt>
      <trkpt lat="48.04053" lon="6.78689">
        <ele>925.7</ele>
        <time>2024-07-18T14:24:59Z</time>
      </trkpt>
      <trkpt lat="48.04041" lon="6.78684">
        <ele>925.5</ele>
        <time>2024-07-18T14:25:02Z</time>
      </trkpt>
      <trkpt lat="48.04031" lon="6.78679">
        <ele>925.4</ele>
        <time>2024-07-18T14:25:05Z</time>
      </trkpt>
      <trkpt lat="48.04021" lon="6.78672">
        <ele>925.2</ele>
        <time>2024-07-18T14:25:08Z</time>
      </trkpt>
      <trkpt lat="48.04014" lon="6.78663">
        <ele>924.9</ele>
        <time>2024-07-18T14:25:11Z</time>
      </trkpt>
      <trkpt lat="48.04007" lon="6.78654">
        <ele>924.7</ele>
        <time>2024-07-18T14:25:14Z</time>
      </trkpt>
      <trkpt lat="48.03999" lon="6.78644">
        <ele>924.2</ele>
        <time>2024-07-18T14:25:17Z</time>
      </trkpt>
      <trkpt lat="48.03992" lon="6.78635">
        <ele>923.6</ele>
        <time>2024-07-18T14:25:20Z</time>
      </trkpt>
      <trkpt lat="48.03988" lon="6.78623">
        <ele>923</ele>
        <time>2024-07-18T14:25:25Z</time>
      </trkpt>
      <trkpt lat="48.03986" lon="6.78607">
        <ele>922.4</ele>
        <time>2024-07-18T14:25:29Z</time>
      </trkpt>
      <trkpt lat="48.03977" lon="6.78615">
        <ele>921.9</ele>
        <time>2024-07-18T14:25:41Z</time>
      </trkpt>
      <trkpt lat="48.03967" lon="6.78613">
        <ele>920.8</ele>
        <time>2024-07-18T14:25:44Z</time>
      </trkpt>
      <trkpt lat="48.0396" lon="6.78601">
        <ele>919.6</ele>
        <time>2024-07-18T14:25:46Z</time>
      </trkpt>
      <trkpt lat="48.03952" lon="6.78584">
        <ele>918</ele>
        <time>2024-07-18T14:25:48Z</time>
      </trkpt>
      <trkpt lat="48.03945" lon="6.78564">
        <ele>916.6</ele>
        <time>2024-07-18T14:25:50Z</time>
      </trkpt>
      <trkpt lat="48.03938" lon="6.78542">
        <ele>915.3</ele>
        <time>2024-07-18T14:25:52Z</time>
      </trkpt>
      <trkpt lat="48.03932" lon="6.78518">
        <ele>914</ele>
        <time>2024-07-18T14:25:54Z</time>
      </trkpt>
      <trkpt lat="48.03926" lon="6.78493">
        <ele>912.9</ele>
        <time>2024-07-18T14:25:56Z</time>
      </trkpt>
      <trkpt lat="48.03921" lon="6.78468">
        <ele>911.6</ele>
        <time>2024-07-18T14:25:58Z</time>
      </trkpt>
      <trkpt lat="48.03918" lon="6.78455">
        <ele>911</ele>
        <time>2024-07-18T14:25:59Z</time>
      </trkpt>
      <trkpt lat="48.03914" lon="6.78441">
        <ele>910.4</ele>
        <time>2024-07-18T14:26:00Z</time>
      </trkpt>
      <trkpt lat="48.03912" lon="6.78428">
        <ele>909.8</ele>
        <time>2024-07-18T14:26:01Z</time>
      </trkpt>
      <trkpt lat="48.03909" lon="6.78414">
        <ele>909</ele>
        <time>2024-07-18T14:26:02Z</time>
      </trkpt>
      <trkpt lat="48.03906" lon="6.784">
        <ele>908.3</ele>
        <time>2024-07-18T14:26:03Z</time>
      </trkpt>
      <trkpt lat="48.03904" lon="6.78387">
        <ele>907.6</ele>
        <time>2024-07-18T14:26:04Z</time>
      </trkpt>
      <trkpt lat="48.03902" lon="6.78372">
        <ele>906.8</ele>
        <time>2024-07-18T14:26:05Z</time>
      </trkpt>
      <trkpt lat="48.039" lon="6.78358">
        <ele>906.1</ele>
        <time>2024-07-18T14:26:06Z</time>
      </trkpt>
      <trkpt lat="48.03898" lon="6.78343">
        <ele>905.3</ele>
        <time>2024-07-18T14:26:07Z</time>
      </trkpt>
      <trkpt lat="48.03896" lon="6.78328">
        <ele>904.5</ele>
        <time>2024-07-18T14:26:08Z</time>
      </trkpt>
      <trkpt lat="48.03894" lon="6.78314">
        <ele>903.8</ele>
        <time>2024-07-18T14:26:09Z</time>
      </trkpt>
      <trkpt lat="48.03892" lon="6.783">
        <ele>903</ele>
        <time>2024-07-18T14:26:10Z</time>
      </trkpt>
      <trkpt lat="48.0389" lon="6.78277">
        <ele>901.5</ele>
        <time>2024-07-18T14:26:12Z</time>
      </trkpt>
      <trkpt lat="48.0389" lon="6.78255">
        <ele>899.9</ele>
        <time>2024-07-18T14:26:14Z</time>
      </trkpt>
      <trkpt lat="48.03892" lon="6.78229">
        <ele>898.3</ele>
        <time>2024-07-18T14:26:16Z</time>
      </trkpt>
      <trkpt lat="48.03894" lon="6.78215">
        <ele>897.7</ele>
        <time>2024-07-18T14:26:17Z</time>
      </trkpt>
      <trkpt lat="48.03896" lon="6.78202">
        <ele>897.3</ele>
        <time>2024-07-18T14:26:18Z</time>
      </trkpt>
      <trkpt lat="48.03898" lon="6.78188">
        <ele>896.8</ele>
        <time>2024-07-18T14:26:19Z</time>
      </trkpt>
      <trkpt lat="48.03903" lon="6.78163">
        <ele>895.8</ele>
        <time>2024-07-18T14:26:21Z</time>
      </trkpt>
      <trkpt lat="48.03905" lon="6.78149">
        <ele>895.3</ele>
        <time>2024-07-18T14:26:22Z</time>
      </trkpt>
      <trkpt lat="48.03906" lon="6.78136">
        <ele>894.9</ele>
        <time>2024-07-18T14:26:23Z</time>
      </trkpt>
      <trkpt lat="48.03908" lon="6.78122">
        <ele>894.6</ele>
        <time>2024-07-18T14:26:24Z</time>
      </trkpt>
      <trkpt lat="48.03911" lon="6.78096">
        <ele>893.8</ele>
        <time>2024-07-18T14:26:26Z</time>
      </trkpt>
      <trkpt lat="48.03913" lon="6.78083">
        <ele>893.4</ele>
        <time>2024-07-18T14:26:27Z</time>
      </trkpt>
      <trkpt lat="48.03914" lon="6.78069">
        <ele>893</ele>
        <time>2024-07-18T14:26:28Z</time>
      </trkpt>
      <trkpt lat="48.03916" lon="6.78056">
        <ele>892.6</ele>
        <time>2024-07-18T14:26:29Z</time>
      </trkpt>
      <trkpt lat="48.03918" lon="6.78042">
        <ele>892.1</ele>
        <time>2024-07-18T14:26:30Z</time>
      </trkpt>
      <trkpt lat="48.03922" lon="6.78029">
        <ele>891.6</ele>
        <time>2024-07-18T14:26:31Z</time>
      </trkpt>
      <trkpt lat="48.03925" lon="6.78016">
        <ele>891.3</ele>
        <time>2024-07-18T14:26:32Z</time>
      </trkpt>
      <trkpt lat="48.03929" lon="6.78003">
        <ele>890.9</ele>
        <time>2024-07-18T14:26:33Z</time>
      </trkpt>
      <trkpt lat="48.03933" lon="6.7799">
        <ele>890.6</ele>
        <time>2024-07-18T14:26:34Z</time>
      </trkpt>
      <trkpt lat="48.03937" lon="6.77977">
        <ele>890.2</ele>
        <time>2024-07-18T14:26:35Z</time>
      </trkpt>
      <trkpt lat="48.03942" lon="6.77965">
        <ele>889.8</ele>
        <time>2024-07-18T14:26:36Z</time>
      </trkpt>
      <trkpt lat="48.03947" lon="6.77953">
        <ele>889.4</ele>
        <time>2024-07-18T14:26:37Z</time>
      </trkpt>
      <trkpt lat="48.03952" lon="6.7794">
        <ele>889</ele>
        <time>2024-07-18T14:26:38Z</time>
      </trkpt>
      <trkpt lat="48.03956" lon="6.77928">
        <ele>888.6</ele>
        <time>2024-07-18T14:26:39Z</time>
      </trkpt>
      <trkpt lat="48.0396" lon="6.77916">
        <ele>888.3</ele>
        <time>2024-07-18T14:26:40Z</time>
      </trkpt>
      <trkpt lat="48.03964" lon="6.77904">
        <ele>888</ele>
        <time>2024-07-18T14:26:41Z</time>
      </trkpt>
      <trkpt lat="48.03968" lon="6.77891">
        <ele>887.8</ele>
        <time>2024-07-18T14:26:42Z</time>
      </trkpt>
      <trkpt lat="48.03977" lon="6.7787">
        <ele>887.3</ele>
        <time>2024-07-18T14:26:44Z</time>
      </trkpt>
      <trkpt lat="48.03989" lon="6.77851">
        <ele>886.7</ele>
        <time>2024-07-18T14:26:46Z</time>
      </trkpt>
      <trkpt lat="48.04002" lon="6.77833">
        <ele>886.2</ele>
        <time>2024-07-18T14:26:48Z</time>
      </trkpt>
      <trkpt lat="48.04015" lon="6.77815">
        <ele>885.6</ele>
        <time>2024-07-18T14:26:50Z</time>
      </trkpt>
      <trkpt lat="48.04026" lon="6.77796">
        <ele>884.9</ele>
        <time>2024-07-18T14:26:52Z</time>
      </trkpt>
      <trkpt lat="48.04035" lon="6.77774">
        <ele>884.4</ele>
        <time>2024-07-18T14:26:54Z</time>
      </trkpt>
      <trkpt lat="48.04042" lon="6.77751">
        <ele>883.8</ele>
        <time>2024-07-18T14:26:56Z</time>
      </trkpt>
      <trkpt lat="48.04049" lon="6.77729">
        <ele>883.2</ele>
        <time>2024-07-18T14:26:58Z</time>
      </trkpt>
      <trkpt lat="48.04056" lon="6.77706">
        <ele>882.7</ele>
        <time>2024-07-18T14:27:00Z</time>
      </trkpt>
      <trkpt lat="48.04063" lon="6.77684">
        <ele>882.2</ele>
        <time>2024-07-18T14:27:02Z</time>
      </trkpt>
      <trkpt lat="48.04068" lon="6.7766">
        <ele>881.7</ele>
        <time>2024-07-18T14:27:04Z</time>
      </trkpt>
      <trkpt lat="48.04072" lon="6.77636">
        <ele>881.2</ele>
        <time>2024-07-18T14:27:06Z</time>
      </trkpt>
      <trkpt lat="48.04076" lon="6.77612">
        <ele>880.6</ele>
        <time>2024-07-18T14:27:08Z</time>
      </trkpt>
      <trkpt lat="48.0408" lon="6.77588">
        <ele>879.5</ele>
        <time>2024-07-18T14:27:10Z</time>
      </trkpt>
      <trkpt lat="48.04085" lon="6.77565">
        <ele>878.7</ele>
        <time>2024-07-18T14:27:12Z</time>
      </trkpt>
      <trkpt lat="48.0409" lon="6.77541">
        <ele>878</ele>
        <time>2024-07-18T14:27:14Z</time>
      </trkpt>
      <trkpt lat="48.04097" lon="6.7752">
        <ele>877.2</ele>
        <time>2024-07-18T14:27:16Z</time>
      </trkpt>
      <trkpt lat="48.04103" lon="6.77497">
        <ele>876.1</ele>
        <time>2024-07-18T14:27:18Z</time>
      </trkpt>
      <trkpt lat="48.04107" lon="6.77473">
        <ele>874.8</ele>
        <time>2024-07-18T14:27:20Z</time>
      </trkpt>
      <trkpt lat="48.04113" lon="6.77448">
        <ele>873.2</ele>
        <time>2024-07-18T14:27:22Z</time>
      </trkpt>
      <trkpt lat="48.04116" lon="6.77435">
        <ele>872.4</ele>
        <time>2024-07-18T14:27:23Z</time>
      </trkpt>
      <trkpt lat="48.04119" lon="6.7742">
        <ele>871.6</ele>
        <time>2024-07-18T14:27:24Z</time>
      </trkpt>
      <trkpt lat="48.04122" lon="6.77405">
        <ele>870.8</ele>
        <time>2024-07-18T14:27:25Z</time>
      </trkpt>
      <trkpt lat="48.04124" lon="6.7739">
        <ele>869.9</ele>
        <time>2024-07-18T14:27:26Z</time>
      </trkpt>
      <trkpt lat="48.04126" lon="6.77376">
        <ele>869</ele>
        <time>2024-07-18T14:27:27Z</time>
      </trkpt>
      <trkpt lat="48.04127" lon="6.77353">
        <ele>867.4</ele>
        <time>2024-07-18T14:27:29Z</time>
      </trkpt>
      <trkpt lat="48.04128" lon="6.77339">
        <ele>866.4</ele>
        <time>2024-07-18T14:27:31Z</time>
      </trkpt>
      <trkpt lat="48.04128" lon="6.77322">
        <ele>865.7</ele>
        <time>2024-07-18T14:27:34Z</time>
      </trkpt>
      <trkpt lat="48.04128" lon="6.77308">
        <ele>865.5</ele>
        <time>2024-07-18T14:27:37Z</time>
      </trkpt>
      <trkpt lat="48.04128" lon="6.77299">
        <ele>865.4</ele>
        <time>2024-07-18T14:27:48Z</time>
      </trkpt>
      <trkpt lat="48.04128" lon="6.77299">
        <ele>865.4</ele>
        <time>2024-07-18T14:27:49Z</time>
      </trkpt>
      <trkpt lat="48.04128" lon="6.77297">
        <ele>865.4</ele>
        <time>2024-07-18T14:28:00Z</time>
      </trkpt>
      <trkpt lat="48.04128" lon="6.77294">
        <ele>865.4</ele>
        <time>2024-07-18T14:28:01Z</time>
      </trkpt>
      <trkpt lat="48.04128" lon="6.77291">
        <ele>865.4</ele>
        <time>2024-07-18T14:28:02Z</time>
      </trkpt>
      <trkpt lat="48.04128" lon="6.77277">
        <ele>865.3</ele>
        <time>2024-07-18T14:28:05Z</time>
      </trkpt>
      <trkpt lat="48.04126" lon="6.77262">
        <ele>865.2</ele>
        <time>2024-07-18T14:28:08Z</time>
      </trkpt>
      <trkpt lat="48.04122" lon="6.77248">
        <ele>865</ele>
        <time>2024-07-18T14:28:11Z</time>
      </trkpt>
      <trkpt lat="48.04116" lon="6.77232">
        <ele>864.6</ele>
        <time>2024-07-18T14:28:14Z</time>
      </trkpt>
      <trkpt lat="48.04111" lon="6.77215">
        <ele>864.1</ele>
        <time>2024-07-18T14:28:17Z</time>
      </trkpt>
      <trkpt lat="48.04105" lon="6.772">
        <ele>863.6</ele>
        <time>2024-07-18T14:28:20Z</time>
      </trkpt>
      <trkpt lat="48.041" lon="6.77183">
        <ele>863</ele>
        <time>2024-07-18T14:28:23Z</time>
      </trkpt>
      <trkpt lat="48.04096" lon="6.7717">
        <ele>862.4</ele>
        <time>2024-07-18T14:28:25Z</time>
      </trkpt>
      <trkpt lat="48.04092" lon="6.77155">
        <ele>861.8</ele>
        <time>2024-07-18T14:28:27Z</time>
      </trkpt>
      <trkpt lat="48.0409" lon="6.77139">
        <ele>861.2</ele>
        <time>2024-07-18T14:28:29Z</time>
      </trkpt>
      <trkpt lat="48.04088" lon="6.77122">
        <ele>860.6</ele>
        <time>2024-07-18T14:28:31Z</time>
      </trkpt>
      <trkpt lat="48.04087" lon="6.77103">
        <ele>859.8</ele>
        <time>2024-07-18T14:28:33Z</time>
      </trkpt>
      <trkpt lat="48.04089" lon="6.77083">
        <ele>859.1</ele>
        <time>2024-07-18T14:28:35Z</time>
      </trkpt>
      <trkpt lat="48.04091" lon="6.77064">
        <ele>858.3</ele>
        <time>2024-07-18T14:28:37Z</time>
      </trkpt>
      <trkpt lat="48.04095" lon="6.77043">
        <ele>857.4</ele>
        <time>2024-07-18T14:28:39Z</time>
      </trkpt>
      <trkpt lat="48.04099" lon="6.77021">
        <ele>856.6</ele>
        <time>2024-07-18T14:28:41Z</time>
      </trkpt>
      <trkpt lat="48.04104" lon="6.76999">
        <ele>855.8</ele>
        <time>2024-07-18T14:28:43Z</time>
      </trkpt>
      <trkpt lat="48.0411" lon="6.76977">
        <ele>854.9</ele>
        <time>2024-07-18T14:28:45Z</time>
      </trkpt>
      <trkpt lat="48.04117" lon="6.76955">
        <ele>853.9</ele>
        <time>2024-07-18T14:28:47Z</time>
      </trkpt>
      <trkpt lat="48.04124" lon="6.76932">
        <ele>852.9</ele>
        <time>2024-07-18T14:28:49Z</time>
      </trkpt>
      <trkpt lat="48.04132" lon="6.76908">
        <ele>851.8</ele>
        <time>2024-07-18T14:28:51Z</time>
      </trkpt>
      <trkpt lat="48.04139" lon="6.76883">
        <ele>850.8</ele>
        <time>2024-07-18T14:28:53Z</time>
      </trkpt>
      <trkpt lat="48.04143" lon="6.7687">
        <ele>850.2</ele>
        <time>2024-07-18T14:28:54Z</time>
      </trkpt>
      <trkpt lat="48.04146" lon="6.76857">
        <ele>849.7</ele>
        <time>2024-07-18T14:28:55Z</time>
      </trkpt>
      <trkpt lat="48.04149" lon="6.76844">
        <ele>849.2</ele>
        <time>2024-07-18T14:28:56Z</time>
      </trkpt>
      <trkpt lat="48.04153" lon="6.7683">
        <ele>848.6</ele>
        <time>2024-07-18T14:28:57Z</time>
      </trkpt>
      <trkpt lat="48.04156" lon="6.76817">
        <ele>848.1</ele>
        <time>2024-07-18T14:28:58Z</time>
      </trkpt>
      <trkpt lat="48.04159" lon="6.76803">
        <ele>847.5</ele>
        <time>2024-07-18T14:28:59Z</time>
      </trkpt>
      <trkpt lat="48.04162" lon="6.7679">
        <ele>847</ele>
        <time>2024-07-18T14:29:00Z</time>
      </trkpt>
      <trkpt lat="48.04166" lon="6.76765">
        <ele>846.2</ele>
        <time>2024-07-18T14:29:02Z</time>
      </trkpt>
      <trkpt lat="48.0417" lon="6.76746">
        <ele>845.7</ele>
        <time>2024-07-18T14:29:04Z</time>
      </trkpt>
      <trkpt lat="48.04171" lon="6.76733">
        <ele>845.2</ele>
        <time>2024-07-18T14:29:06Z</time>
      </trkpt>
      <trkpt lat="48.04172" lon="6.76718">
        <ele>844.7</ele>
        <time>2024-07-18T14:29:08Z</time>
      </trkpt>
      <trkpt lat="48.04172" lon="6.76703">
        <ele>844.2</ele>
        <time>2024-07-18T14:29:10Z</time>
      </trkpt>
      <trkpt lat="48.04173" lon="6.76687">
        <ele>843.6</ele>
        <time>2024-07-18T14:29:12Z</time>
      </trkpt>
      <trkpt lat="48.04173" lon="6.76669">
        <ele>842.9</ele>
        <time>2024-07-18T14:29:14Z</time>
      </trkpt>
      <trkpt lat="48.04174" lon="6.7665">
        <ele>842.1</ele>
        <time>2024-07-18T14:29:16Z</time>
      </trkpt>
      <trkpt lat="48.04175" lon="6.7663">
        <ele>841.2</ele>
        <time>2024-07-18T14:29:18Z</time>
      </trkpt>
      <trkpt lat="48.04176" lon="6.76609">
        <ele>840.2</ele>
        <time>2024-07-18T14:29:20Z</time>
      </trkpt>
      <trkpt lat="48.04176" lon="6.76585">
        <ele>838.9</ele>
        <time>2024-07-18T14:29:22Z</time>
      </trkpt>
      <trkpt lat="48.04177" lon="6.7656">
        <ele>837.5</ele>
        <time>2024-07-18T14:29:24Z</time>
      </trkpt>
      <trkpt lat="48.04177" lon="6.76534">
        <ele>835.9</ele>
        <time>2024-07-18T14:29:26Z</time>
      </trkpt>
      <trkpt lat="48.04178" lon="6.7652">
        <ele>835</ele>
        <time>2024-07-18T14:29:27Z</time>
      </trkpt>
      <trkpt lat="48.04178" lon="6.76506">
        <ele>834</ele>
        <time>2024-07-18T14:29:28Z</time>
      </trkpt>
      <trkpt lat="48.04179" lon="6.76492">
        <ele>833.1</ele>
        <time>2024-07-18T14:29:29Z</time>
      </trkpt>
      <trkpt lat="48.04179" lon="6.76478">
        <ele>832.3</ele>
        <time>2024-07-18T14:29:30Z</time>
      </trkpt>
      <trkpt lat="48.04179" lon="6.76455">
        <ele>831.1</ele>
        <time>2024-07-18T14:29:32Z</time>
      </trkpt>
      <trkpt lat="48.04179" lon="6.76441">
        <ele>830.5</ele>
        <time>2024-07-18T14:29:34Z</time>
      </trkpt>
      <trkpt lat="48.04178" lon="6.76424">
        <ele>829.9</ele>
        <time>2024-07-18T14:29:38Z</time>
      </trkpt>
      <trkpt lat="48.04176" lon="6.76407">
        <ele>829.4</ele>
        <time>2024-07-18T14:29:43Z</time>
      </trkpt>
      <trkpt lat="48.04174" lon="6.76393">
        <ele>829</ele>
        <time>2024-07-18T14:29:48Z</time>
      </trkpt>
      <trkpt lat="48.04172" lon="6.7638">
        <ele>828.7</ele>
        <time>2024-07-18T14:29:53Z</time>
      </trkpt>
      <trkpt lat="48.04168" lon="6.76367">
        <ele>828.6</ele>
        <time>2024-07-18T14:29:56Z</time>
      </trkpt>
      <trkpt lat="48.04163" lon="6.76352">
        <ele>828.2</ele>
        <time>2024-07-18T14:29:59Z</time>
      </trkpt>
      <trkpt lat="48.04159" lon="6.76335">
        <ele>827.6</ele>
        <time>2024-07-18T14:30:02Z</time>
      </trkpt>
      <trkpt lat="48.04156" lon="6.76316">
        <ele>826.8</ele>
        <time>2024-07-18T14:30:05Z</time>
      </trkpt>
      <trkpt lat="48.04154" lon="6.76302">
        <ele>826.2</ele>
        <time>2024-07-18T14:30:07Z</time>
      </trkpt>
      <trkpt lat="48.04151" lon="6.76287">
        <ele>825.6</ele>
        <time>2024-07-18T14:30:09Z</time>
      </trkpt>
      <trkpt lat="48.04149" lon="6.76269">
        <ele>824.8</ele>
        <time>2024-07-18T14:30:11Z</time>
      </trkpt>
      <trkpt lat="48.04146" lon="6.76249">
        <ele>824</ele>
        <time>2024-07-18T14:30:13Z</time>
      </trkpt>
      <trkpt lat="48.04142" lon="6.76229">
        <ele>823.1</ele>
        <time>2024-07-18T14:30:15Z</time>
      </trkpt>
      <trkpt lat="48.0414" lon="6.76206">
        <ele>822.2</ele>
        <time>2024-07-18T14:30:17Z</time>
      </trkpt>
      <trkpt lat="48.04138" lon="6.76183">
        <ele>821</ele>
        <time>2024-07-18T14:30:19Z</time>
      </trkpt>
      <trkpt lat="48.04136" lon="6.76158">
        <ele>819.7</ele>
        <time>2024-07-18T14:30:21Z</time>
      </trkpt>
      <trkpt lat="48.04138" lon="6.76132">
        <ele>818.3</ele>
        <time>2024-07-18T14:30:23Z</time>
      </trkpt>
      <trkpt lat="48.04143" lon="6.76106">
        <ele>816.8</ele>
        <time>2024-07-18T14:30:25Z</time>
      </trkpt>
      <trkpt lat="48.04146" lon="6.76093">
        <ele>816</ele>
        <time>2024-07-18T14:30:26Z</time>
      </trkpt>
      <trkpt lat="48.0415" lon="6.7608">
        <ele>815.2</ele>
        <time>2024-07-18T14:30:27Z</time>
      </trkpt>
      <trkpt lat="48.04154" lon="6.76067">
        <ele>814.3</ele>
        <time>2024-07-18T14:30:28Z</time>
      </trkpt>
      <trkpt lat="48.0416" lon="6.76055">
        <ele>813.5</ele>
        <time>2024-07-18T14:30:29Z</time>
      </trkpt>
      <trkpt lat="48.04165" lon="6.76042">
        <ele>812.7</ele>
        <time>2024-07-18T14:30:30Z</time>
      </trkpt>
      <trkpt lat="48.04171" lon="6.76029">
        <ele>811.9</ele>
        <time>2024-07-18T14:30:31Z</time>
      </trkpt>
      <trkpt lat="48.04176" lon="6.76015">
        <ele>811.1</ele>
        <time>2024-07-18T14:30:32Z</time>
      </trkpt>
      <trkpt lat="48.04182" lon="6.76003">
        <ele>810.4</ele>
        <time>2024-07-18T14:30:33Z</time>
      </trkpt>
      <trkpt lat="48.04189" lon="6.75985">
        <ele>809.4</ele>
        <time>2024-07-18T14:30:35Z</time>
      </trkpt>
      <trkpt lat="48.04191" lon="6.7598">
        <ele>809.2</ele>
        <time>2024-07-18T14:30:44Z</time>
      </trkpt>
      <trkpt lat="48.04191" lon="6.7598">
        <ele>809.2</ele>
        <time>2024-07-18T14:30:45Z</time>
      </trkpt>
      <trkpt lat="48.04191" lon="6.7598">
        <ele>809.2</ele>
        <time>2024-07-18T14:30:46Z</time>
      </trkpt>
      <trkpt lat="48.04191" lon="6.7598">
        <ele>809.2</ele>
        <time>2024-07-18T14:30:47Z</time>
      </trkpt>
      <trkpt lat="48.04185" lon="6.75992">
        <ele>808.5</ele>
        <time>2024-07-18T14:31:01Z</time>
      </trkpt>
      <trkpt lat="48.0418" lon="6.76004">
        <ele>808</ele>
        <time>2024-07-18T14:31:08Z</time>
      </trkpt>
      <trkpt lat="48.04174" lon="6.76016">
        <ele>807.3</ele>
        <time>2024-07-18T14:31:18Z</time>
      </trkpt>
      <trkpt lat="48.0418" lon="6.76005">
        <ele>806.8</ele>
        <time>2024-07-18T14:31:29Z</time>
      </trkpt>
      <trkpt lat="48.04185" lon="6.75993">
        <ele>806.2</ele>
        <time>2024-07-18T14:31:38Z</time>
      </trkpt>
      <trkpt lat="48.04186" lon="6.75988">
        <ele>806</ele>
        <time>2024-07-18T14:31:50Z</time>
      </trkpt>
      <trkpt lat="48.04186" lon="6.75988">
        <ele>806</ele>
        <time>2024-07-18T14:31:51Z</time>
      </trkpt>
      <trkpt lat="48.04186" lon="6.75988">
        <ele>806</ele>
        <time>2024-07-18T14:31:52Z</time>
      </trkpt>
      <trkpt lat="48.04186" lon="6.75987">
        <ele>805.9</ele>
        <time>2024-07-18T14:32:03Z</time>
      </trkpt>
      <trkpt lat="48.04186" lon="6.75986">
        <ele>805.9</ele>
        <time>2024-07-18T14:32:04Z</time>
      </trkpt>
      <trkpt lat="48.04186" lon="6.75986">
        <ele>805.9</ele>
        <time>2024-07-18T14:32:05Z</time>
      </trkpt>
      <trkpt lat="48.04188" lon="6.75989">
        <ele>805.7</ele>
        <time>2024-07-18T14:32:15Z</time>
      </trkpt>
      <trkpt lat="48.04188" lon="6.75989">
        <ele>805.7</ele>
        <time>2024-07-18T14:32:16Z</time>
      </trkpt>
      <trkpt lat="48.04189" lon="6.75989">
        <ele>805.7</ele>
        <time>2024-07-18T14:32:17Z</time>
      </trkpt>
      <trkpt lat="48.0419" lon="6.75987">
        <ele>805.6</ele>
        <time>2024-07-18T14:32:18Z</time>
      </trkpt>
      <trkpt lat="48.04191" lon="6.75985">
        <ele>805.5</ele>
        <time>2024-07-18T14:32:19Z</time>
      </trkpt>
      <trkpt lat="48.04192" lon="6.75982">
        <ele>805.3</ele>
        <time>2024-07-18T14:32:20Z</time>
      </trkpt>
      <trkpt lat="48.042" lon="6.75972">
        <ele>804.7</ele>
        <time>2024-07-18T14:32:23Z</time>
      </trkpt>
      <trkpt lat="48.04205" lon="6.75961">
        <ele>804.2</ele>
        <time>2024-07-18T14:32:25Z</time>
      </trkpt>
      <trkpt lat="48.04213" lon="6.75948">
        <ele>803.5</ele>
        <time>2024-07-18T14:32:27Z</time>
      </trkpt>
      <trkpt lat="48.04222" lon="6.75934">
        <ele>802.7</ele>
        <time>2024-07-18T14:32:29Z</time>
      </trkpt>
      <trkpt lat="48.04233" lon="6.75919">
        <ele>801.8</ele>
        <time>2024-07-18T14:32:31Z</time>
      </trkpt>
      <trkpt lat="48.04246" lon="6.75905">
        <ele>800.9</ele>
        <time>2024-07-18T14:32:33Z</time>
      </trkpt>
      <trkpt lat="48.0426" lon="6.75889">
        <ele>799.9</ele>
        <time>2024-07-18T14:32:35Z</time>
      </trkpt>
      <trkpt lat="48.04267" lon="6.75881">
        <ele>799.5</ele>
        <time>2024-07-18T14:32:36Z</time>
      </trkpt>
      <trkpt lat="48.04274" lon="6.75873">
        <ele>799</ele>
        <time>2024-07-18T14:32:37Z</time>
      </trkpt>
      <trkpt lat="48.04282" lon="6.75864">
        <ele>798.6</ele>
        <time>2024-07-18T14:32:38Z</time>
      </trkpt>
      <trkpt lat="48.04289" lon="6.75854">
        <ele>798.1</ele>
        <time>2024-07-18T14:32:39Z</time>
      </trkpt>
      <trkpt lat="48.04296" lon="6.75843">
        <ele>797.6</ele>
        <time>2024-07-18T14:32:40Z</time>
      </trkpt>
      <trkpt lat="48.04302" lon="6.75831">
        <ele>797.1</ele>
        <time>2024-07-18T14:32:41Z</time>
      </trkpt>
      <trkpt lat="48.04311" lon="6.7581">
        <ele>796.3</ele>
        <time>2024-07-18T14:32:43Z</time>
      </trkpt>
      <trkpt lat="48.04318" lon="6.75792">
        <ele>795.5</ele>
        <time>2024-07-18T14:32:45Z</time>
      </trkpt>
      <trkpt lat="48.04327" lon="6.75776">
        <ele>794.8</ele>
        <time>2024-07-18T14:32:47Z</time>
      </trkpt>
      <trkpt lat="48.04337" lon="6.75759">
        <ele>793.9</ele>
        <time>2024-07-18T14:32:49Z</time>
      </trkpt>
      <trkpt lat="48.04349" lon="6.75744">
        <ele>793</ele>
        <time>2024-07-18T14:32:51Z</time>
      </trkpt>
      <trkpt lat="48.04358" lon="6.75732">
        <ele>792.1</ele>
        <time>2024-07-18T14:32:53Z</time>
      </trkpt>
      <trkpt lat="48.04362" lon="6.75719">
        <ele>791.3</ele>
        <time>2024-07-18T14:32:56Z</time>
      </trkpt>
      <trkpt lat="48.04363" lon="6.75705">
        <ele>791.2</ele>
        <time>2024-07-18T14:33:02Z</time>
      </trkpt>
      <trkpt lat="48.04373" lon="6.75699">
        <ele>791.4</ele>
        <time>2024-07-18T14:33:08Z</time>
      </trkpt>
      <trkpt lat="48.04382" lon="6.75692">
        <ele>791.6</ele>
        <time>2024-07-18T14:33:11Z</time>
      </trkpt>
      <trkpt lat="48.04394" lon="6.75686">
        <ele>792.1</ele>
        <time>2024-07-18T14:33:14Z</time>
      </trkpt>
      <trkpt lat="48.04405" lon="6.75677">
        <ele>792.6</ele>
        <time>2024-07-18T14:33:17Z</time>
      </trkpt>
      <trkpt lat="48.04415" lon="6.75667">
        <ele>793.2</ele>
        <time>2024-07-18T14:33:20Z</time>
      </trkpt>
      <trkpt lat="48.04424" lon="6.75657">
        <ele>793.6</ele>
        <time>2024-07-18T14:33:23Z</time>
      </trkpt>
      <trkpt lat="48.04434" lon="6.75647">
        <ele>793.8</ele>
        <time>2024-07-18T14:33:26Z</time>
      </trkpt>
      <trkpt lat="48.04444" lon="6.75636">
        <ele>794</ele>
        <time>2024-07-18T14:33:29Z</time>
      </trkpt>
      <trkpt lat="48.04453" lon="6.75624">
        <ele>794</ele>
        <time>2024-07-18T14:33:32Z</time>
      </trkpt>
      <trkpt lat="48.04463" lon="6.75613">
        <ele>793.8</ele>
        <time>2024-07-18T14:33:35Z</time>
      </trkpt>
      <trkpt lat="48.04472" lon="6.75598">
        <ele>793.3</ele>
        <time>2024-07-18T14:33:38Z</time>
      </trkpt>
      <trkpt lat="48.04478" lon="6.75587">
        <ele>793</ele>
        <time>2024-07-18T14:33:40Z</time>
      </trkpt>
      <trkpt lat="48.04485" lon="6.75577">
        <ele>792.8</ele>
        <time>2024-07-18T14:33:42Z</time>
      </trkpt>
      <trkpt lat="48.04493" lon="6.75563">
        <ele>792.5</ele>
        <time>2024-07-18T14:33:45Z</time>
      </trkpt>
      <trkpt lat="48.045" lon="6.75553">
        <ele>792.2</ele>
        <time>2024-07-18T14:33:47Z</time>
      </trkpt>
      <trkpt lat="48.04509" lon="6.75539">
        <ele>791.7</ele>
        <time>2024-07-18T14:33:50Z</time>
      </trkpt>
      <trkpt lat="48.04516" lon="6.7553">
        <ele>791.3</ele>
        <time>2024-07-18T14:33:52Z</time>
      </trkpt>
      <trkpt lat="48.04524" lon="6.7552">
        <ele>790.9</ele>
        <time>2024-07-18T14:33:54Z</time>
      </trkpt>
      <trkpt lat="48.04532" lon="6.7551">
        <ele>790.5</ele>
        <time>2024-07-18T14:33:56Z</time>
      </trkpt>
      <trkpt lat="48.04541" lon="6.75499">
        <ele>790.2</ele>
        <time>2024-07-18T14:33:58Z</time>
      </trkpt>
      <trkpt lat="48.0455" lon="6.75488">
        <ele>789.8</ele>
        <time>2024-07-18T14:34:00Z</time>
      </trkpt>
      <trkpt lat="48.04559" lon="6.75476">
        <ele>789.4</ele>
        <time>2024-07-18T14:34:02Z</time>
      </trkpt>
      <trkpt lat="48.04568" lon="6.75463">
        <ele>788.9</ele>
        <time>2024-07-18T14:34:04Z</time>
      </trkpt>
      <trkpt lat="48.04575" lon="6.75449">
        <ele>788.5</ele>
        <time>2024-07-18T14:34:06Z</time>
      </trkpt>
      <trkpt lat="48.04583" lon="6.75435">
        <ele>788.1</ele>
        <time>2024-07-18T14:34:08Z</time>
      </trkpt>
      <trkpt lat="48.04591" lon="6.75422">
        <ele>787.7</ele>
        <time>2024-07-18T14:34:10Z</time>
      </trkpt>
      <trkpt lat="48.04599" lon="6.7541">
        <ele>787.4</ele>
        <time>2024-07-18T14:34:12Z</time>
      </trkpt>
      <trkpt lat="48.04607" lon="6.75397">
        <ele>787</ele>
        <time>2024-07-18T14:34:14Z</time>
      </trkpt>
      <trkpt lat="48.04616" lon="6.75386">
        <ele>786.6</ele>
        <time>2024-07-18T14:34:16Z</time>
      </trkpt>
      <trkpt lat="48.04626" lon="6.75376">
        <ele>785.9</ele>
        <time>2024-07-18T14:34:18Z</time>
      </trkpt>
      <trkpt lat="48.04634" lon="6.75366">
        <ele>785.1</ele>
        <time>2024-07-18T14:34:20Z</time>
      </trkpt>
      <trkpt lat="48.04641" lon="6.75353">
        <ele>784.2</ele>
        <time>2024-07-18T14:34:22Z</time>
      </trkpt>
      <trkpt lat="48.04646" lon="6.75334">
        <ele>782.9</ele>
        <time>2024-07-18T14:34:24Z</time>
      </trkpt>
      <trkpt lat="48.0465" lon="6.75316">
        <ele>781.5</ele>
        <time>2024-07-18T14:34:26Z</time>
      </trkpt>
      <trkpt lat="48.04656" lon="6.75295">
        <ele>779.7</ele>
        <time>2024-07-18T14:34:28Z</time>
      </trkpt>
      <trkpt lat="48.04664" lon="6.75275">
        <ele>778.3</ele>
        <time>2024-07-18T14:34:30Z</time>
      </trkpt>
      <trkpt lat="48.04673" lon="6.75257">
        <ele>777.6</ele>
        <time>2024-07-18T14:34:32Z</time>
      </trkpt>
      <trkpt lat="48.0468" lon="6.75242">
        <ele>777.3</ele>
        <time>2024-07-18T14:34:34Z</time>
      </trkpt>
      <trkpt lat="48.04687" lon="6.75228">
        <ele>777.1</ele>
        <time>2024-07-18T14:34:37Z</time>
      </trkpt>
      <trkpt lat="48.04695" lon="6.75215">
        <ele>777</ele>
        <time>2024-07-18T14:34:40Z</time>
      </trkpt>
      <trkpt lat="48.04703" lon="6.75204">
        <ele>776.9</ele>
        <time>2024-07-18T14:34:42Z</time>
      </trkpt>
      <trkpt lat="48.0471" lon="6.7519">
        <ele>777</ele>
        <time>2024-07-18T14:34:44Z</time>
      </trkpt>
      <trkpt lat="48.04716" lon="6.75173">
        <ele>777</ele>
        <time>2024-07-18T14:34:46Z</time>
      </trkpt>
      <trkpt lat="48.04724" lon="6.75164">
        <ele>777.1</ele>
        <time>2024-07-18T14:34:48Z</time>
      </trkpt>
      <trkpt lat="48.04733" lon="6.75153">
        <ele>777.1</ele>
        <time>2024-07-18T14:34:51Z</time>
      </trkpt>
      <trkpt lat="48.04724" lon="6.75159">
        <ele>777.1</ele>
        <time>2024-07-18T14:35:05Z</time>
      </trkpt>
      <trkpt lat="48.04716" lon="6.75167">
        <ele>777.1</ele>
        <time>2024-07-18T14:35:09Z</time>
      </trkpt>
      <trkpt lat="48.04708" lon="6.75179">
        <ele>777.1</ele>
        <time>2024-07-18T14:35:13Z</time>
      </trkpt>
      <trkpt lat="48.04704" lon="6.75191">
        <ele>777.1</ele>
        <time>2024-07-18T14:35:17Z</time>
      </trkpt>
      <trkpt lat="48.04705" lon="6.75199">
        <ele>777.1</ele>
        <time>2024-07-18T14:35:28Z</time>
      </trkpt>
      <trkpt lat="48.04706" lon="6.75198">
        <ele>777.1</ele>
        <time>2024-07-18T14:35:29Z</time>
      </trkpt>
      <trkpt lat="48.04708" lon="6.75197">
        <ele>777.1</ele>
        <time>2024-07-18T14:35:30Z</time>
      </trkpt>
      <trkpt lat="48.04708" lon="6.75195">
        <ele>777</ele>
        <time>2024-07-18T14:35:31Z</time>
      </trkpt>
      <trkpt lat="48.04709" lon="6.75193">
        <ele>777</ele>
        <time>2024-07-18T14:35:32Z</time>
      </trkpt>
      <trkpt lat="48.04714" lon="6.75181">
        <ele>776.9</ele>
        <time>2024-07-18T14:35:39Z</time>
      </trkpt>
      <trkpt lat="48.04722" lon="6.75171">
        <ele>776.7</ele>
        <time>2024-07-18T14:35:47Z</time>
      </trkpt>
      <trkpt lat="48.04727" lon="6.7516">
        <ele>776.4</ele>
        <time>2024-07-18T14:35:55Z</time>
      </trkpt>
      <trkpt lat="48.04731" lon="6.75148">
        <ele>776.2</ele>
        <time>2024-07-18T14:36:04Z</time>
      </trkpt>
      <trkpt lat="48.04731" lon="6.75147">
        <ele>776.2</ele>
        <time>2024-07-18T14:36:08Z</time>
      </trkpt>
      <trkpt lat="48.04731" lon="6.75147">
        <ele>776.2</ele>
        <time>2024-07-18T14:36:09Z</time>
      </trkpt>
      <trkpt lat="48.04731" lon="6.75146">
        <ele>776.2</ele>
        <time>2024-07-18T14:36:10Z</time>
      </trkpt>
      <trkpt lat="48.0473" lon="6.75146">
        <ele>776.2</ele>
        <time>2024-07-18T14:36:15Z</time>
      </trkpt>
      <trkpt lat="48.0473" lon="6.75147">
        <ele>776.2</ele>
        <time>2024-07-18T14:36:16Z</time>
      </trkpt>
      <trkpt lat="48.0473" lon="6.75146">
        <ele>776.1</ele>
        <time>2024-07-18T14:36:17Z</time>
      </trkpt>
      <trkpt lat="48.0473" lon="6.75145">
        <ele>776.1</ele>
        <time>2024-07-18T14:36:18Z</time>
      </trkpt>
      <trkpt lat="48.0473" lon="6.75146">
        <ele>776.1</ele>
        <time>2024-07-18T14:36:19Z</time>
      </trkpt>
      <trkpt lat="48.0473" lon="6.75146">
        <ele>776.1</ele>
        <time>2024-07-18T14:36:20Z</time>
      </trkpt>
      <trkpt lat="48.04731" lon="6.75145">
        <ele>776.1</ele>
        <time>2024-07-18T14:36:26Z</time>
      </trkpt>
      <trkpt lat="48.04731" lon="6.75145">
        <ele>776.1</ele>
        <time>2024-07-18T14:36:27Z</time>
      </trkpt>
      <trkpt lat="48.04731" lon="6.75145">
        <ele>776.1</ele>
        <time>2024-07-18T14:36:28Z</time>
      </trkpt>
      <trkpt lat="48.0473" lon="6.75146">
        <ele>776.1</ele>
        <time>2024-07-18T14:36:46Z</time>
      </trkpt>
      <trkpt lat="48.0473" lon="6.75146">
        <ele>776.1</ele>
        <time>2024-07-18T14:36:47Z</time>
      </trkpt>
      <trkpt lat="48.0473" lon="6.75146">
        <ele>776.1</ele>
        <time>2024-07-18T14:36:50Z</time>
      </trkpt>
      <trkpt lat="48.0473" lon="6.75146">
        <ele>776.1</ele>
        <time>2024-07-18T14:36:51Z</time>
      </trkpt>
      <trkpt lat="48.0473" lon="6.75146">
        <ele>776.1</ele>
        <time>2024-07-18T14:36:52Z</time>
      </trkpt>
      <trkpt lat="48.0473" lon="6.75145">
        <ele>776.1</ele>
        <time>2024-07-18T14:36:58Z</time>
      </trkpt>
      <trkpt lat="48.0473" lon="6.75144">
        <ele>776.1</ele>
        <time>2024-07-18T14:36:59Z</time>
      </trkpt>
      <trkpt lat="48.04731" lon="6.75147">
        <ele>776</ele>
        <time>2024-07-18T14:37:15Z</time>
      </trkpt>
      <trkpt lat="48.04731" lon="6.75147">
        <ele>776</ele>
        <time>2024-07-18T14:37:16Z</time>
      </trkpt>
      <trkpt lat="48.04731" lon="6.75147">
        <ele>776</ele>
        <time>2024-07-18T14:37:17Z</time>
      </trkpt>
      <trkpt lat="48.04731" lon="6.75149">
        <ele>776</ele>
        <time>2024-07-18T14:37:48Z</time>
      </trkpt>
      <trkpt lat="48.04731" lon="6.75149">
        <ele>776</ele>
        <time>2024-07-18T14:37:49Z</time>
      </trkpt>
      <trkpt lat="48.04731" lon="6.75149">
        <ele>776</ele>
        <time>2024-07-18T14:37:50Z</time>
      </trkpt>
      <trkpt lat="48.04731" lon="6.75149">
        <ele>776</ele>
        <time>2024-07-18T14:37:51Z</time>
      </trkpt>
      <trkpt lat="48.0473" lon="6.75149">
        <ele>776</ele>
        <time>2024-07-18T14:37:52Z</time>
      </trkpt>
      <trkpt lat="48.0473" lon="6.75149">
        <ele>776</ele>
        <time>2024-07-18T14:37:53Z</time>
      </trkpt>
      <trkpt lat="48.0473" lon="6.75149">
        <ele>776</ele>
        <time>2024-07-18T14:38:18Z</time>
      </trkpt>
      <trkpt lat="48.0473" lon="6.75149">
        <ele>776</ele>
        <time>2024-07-18T14:38:19Z</time>
      </trkpt>
      <trkpt lat="48.0473" lon="6.7515">
        <ele>776</ele>
        <time>2024-07-18T14:38:20Z</time>
      </trkpt>
      <trkpt lat="48.0473" lon="6.7515">
        <ele>776</ele>
        <time>2024-07-18T14:38:23Z</time>
      </trkpt>
      <trkpt lat="48.0473" lon="6.7515">
        <ele>776</ele>
        <time>2024-07-18T14:38:24Z</time>
      </trkpt>
      <trkpt lat="48.0473" lon="6.75149">
        <ele>776</ele>
        <time>2024-07-18T14:44:48Z</time>
      </trkpt>
      <trkpt lat="48.0473" lon="6.75149">
        <ele>776</ele>
        <time>2024-07-18T14:44:49Z</time>
      </trkpt>
      <trkpt lat="48.04737" lon="6.75141">
        <ele>776</ele>
        <time>2024-07-18T14:45:07Z</time>
      </trkpt>
      <trkpt lat="48.04746" lon="6.75135">
        <ele>776</ele>
        <time>2024-07-18T14:45:14Z</time>
      </trkpt>
      <trkpt lat="48.04756" lon="6.75133">
        <ele>776</ele>
        <time>2024-07-18T14:45:21Z</time>
      </trkpt>
      <trkpt lat="48.04766" lon="6.75131">
        <ele>775.9</ele>
        <time>2024-07-18T14:45:30Z</time>
      </trkpt>
      <trkpt lat="48.04775" lon="6.75137">
        <ele>775.8</ele>
        <time>2024-07-18T14:45:40Z</time>
      </trkpt>
      <trkpt lat="48.04782" lon="6.75126">
        <ele>775.6</ele>
        <time>2024-07-18T14:45:55Z</time>
      </trkpt>
      <trkpt lat="48.04789" lon="6.75118">
        <ele>775.4</ele>
        <time>2024-07-18T14:45:59Z</time>
      </trkpt>
      <trkpt lat="48.04798" lon="6.75108">
        <ele>775.3</ele>
        <time>2024-07-18T14:46:03Z</time>
      </trkpt>
      <trkpt lat="48.04808" lon="6.75101">
        <ele>775.3</ele>
        <time>2024-07-18T14:46:08Z</time>
      </trkpt>
      <trkpt lat="48.04815" lon="6.75089">
        <ele>775.3</ele>
        <time>2024-07-18T14:46:12Z</time>
      </trkpt>
      <trkpt lat="48.04821" lon="6.75079">
        <ele>775.3</ele>
        <time>2024-07-18T14:46:16Z</time>
      </trkpt>
      <trkpt lat="48.04827" lon="6.75069">
        <ele>775.3</ele>
        <time>2024-07-18T14:46:20Z</time>
      </trkpt>
      <trkpt lat="48.04835" lon="6.7506">
        <ele>775.3</ele>
        <time>2024-07-18T14:46:23Z</time>
      </trkpt>
      <trkpt lat="48.04846" lon="6.75049">
        <ele>775.4</ele>
        <time>2024-07-18T14:46:26Z</time>
      </trkpt>
      <trkpt lat="48.04854" lon="6.75039">
        <ele>775.4</ele>
        <time>2024-07-18T14:46:29Z</time>
      </trkpt>
      <trkpt lat="48.04864" lon="6.75028">
        <ele>775.3</ele>
        <time>2024-07-18T14:46:32Z</time>
      </trkpt>
      <trkpt lat="48.04871" lon="6.75018">
        <ele>775.2</ele>
        <time>2024-07-18T14:46:34Z</time>
      </trkpt>
      <trkpt lat="48.04879" lon="6.75007">
        <ele>775</ele>
        <time>2024-07-18T14:46:37Z</time>
      </trkpt>
      <trkpt lat="48.04888" lon="6.74999">
        <ele>774.6</ele>
        <time>2024-07-18T14:46:41Z</time>
      </trkpt>
      <trkpt lat="48.04896" lon="6.74991">
        <ele>774.2</ele>
        <time>2024-07-18T14:46:45Z</time>
      </trkpt>
      <trkpt lat="48.04903" lon="6.74978">
        <ele>773.6</ele>
        <time>2024-07-18T14:46:49Z</time>
      </trkpt>
      <trkpt lat="48.04911" lon="6.74967">
        <ele>773.1</ele>
        <time>2024-07-18T14:46:53Z</time>
      </trkpt>
      <trkpt lat="48.04917" lon="6.74954">
        <ele>772.6</ele>
        <time>2024-07-18T14:46:56Z</time>
      </trkpt>
      <trkpt lat="48.04922" lon="6.74939">
        <ele>772.2</ele>
        <time>2024-07-18T14:46:59Z</time>
      </trkpt>
      <trkpt lat="48.04926" lon="6.74921">
        <ele>772</ele>
        <time>2024-07-18T14:47:02Z</time>
      </trkpt>
      <trkpt lat="48.04929" lon="6.74908">
        <ele>772</ele>
        <time>2024-07-18T14:47:04Z</time>
      </trkpt>
      <trkpt lat="48.04934" lon="6.74892">
        <ele>771.9</ele>
        <time>2024-07-18T14:47:07Z</time>
      </trkpt>
      <trkpt lat="48.0494" lon="6.7488">
        <ele>771.9</ele>
        <time>2024-07-18T14:47:11Z</time>
      </trkpt>
      <trkpt lat="48.04947" lon="6.74869">
        <ele>772</ele>
        <time>2024-07-18T14:47:15Z</time>
      </trkpt>
      <trkpt lat="48.04954" lon="6.74859">
        <ele>772.2</ele>
        <time>2024-07-18T14:47:19Z</time>
      </trkpt>
      <trkpt lat="48.04961" lon="6.74849">
        <ele>772.4</ele>
        <time>2024-07-18T14:47:23Z</time>
      </trkpt>
      <trkpt lat="48.04969" lon="6.7484">
        <ele>772.7</ele>
        <time>2024-07-18T14:47:27Z</time>
      </trkpt>
      <trkpt lat="48.04978" lon="6.74831">
        <ele>773</ele>
        <time>2024-07-18T14:47:31Z</time>
      </trkpt>
      <trkpt lat="48.04987" lon="6.74825">
        <ele>773.1</ele>
        <time>2024-07-18T14:47:35Z</time>
      </trkpt>
      <trkpt lat="48.04996" lon="6.74816">
        <ele>772.8</ele>
        <time>2024-07-18T14:47:41Z</time>
      </trkpt>
      <trkpt lat="48.05003" lon="6.74806">
        <ele>772.6</ele>
        <time>2024-07-18T14:47:48Z</time>
      </trkpt>
      <trkpt lat="48.05012" lon="6.74794">
        <ele>772.4</ele>
        <time>2024-07-18T14:47:52Z</time>
      </trkpt>
      <trkpt lat="48.05019" lon="6.74786">
        <ele>772</ele>
        <time>2024-07-18T14:47:55Z</time>
      </trkpt>
      <trkpt lat="48.05027" lon="6.74779">
        <ele>771.6</ele>
        <time>2024-07-18T14:47:59Z</time>
      </trkpt>
      <trkpt lat="48.05032" lon="6.74767">
        <ele>771.1</ele>
        <time>2024-07-18T14:48:08Z</time>
      </trkpt>
      <trkpt lat="48.05035" lon="6.74754">
        <ele>769.7</ele>
        <time>2024-07-18T14:48:20Z</time>
      </trkpt>
      <trkpt lat="48.05033" lon="6.7474">
        <ele>767.3</ele>
        <time>2024-07-18T14:48:52Z</time>
      </trkpt>
      <trkpt lat="48.05029" lon="6.74727">
        <ele>764.2</ele>
        <time>2024-07-18T14:49:06Z</time>
      </trkpt>
      <trkpt lat="48.05024" lon="6.74716">
        <ele>761.1</ele>
        <time>2024-07-18T14:49:25Z</time>
      </trkpt>
      <trkpt lat="48.05029" lon="6.74703">
        <ele>758.1</ele>
        <time>2024-07-18T14:49:37Z</time>
      </trkpt>
      <trkpt lat="48.05031" lon="6.7469">
        <ele>755.6</ele>
        <time>2024-07-18T14:49:51Z</time>
      </trkpt>
      <trkpt lat="48.05035" lon="6.74678">
        <ele>753.3</ele>
        <time>2024-07-18T14:50:06Z</time>
      </trkpt>
      <trkpt lat="48.05036" lon="6.74676">
        <ele>753</ele>
        <time>2024-07-18T14:50:08Z</time>
      </trkpt>
      <trkpt lat="48.05037" lon="6.74676">
        <ele>752.8</ele>
        <time>2024-07-18T14:50:09Z</time>
      </trkpt>
      <trkpt lat="48.05036" lon="6.74674">
        <ele>752.4</ele>
        <time>2024-07-18T14:50:13Z</time>
      </trkpt>
      <trkpt lat="48.05036" lon="6.74674">
        <ele>752.4</ele>
        <time>2024-07-18T14:50:14Z</time>
      </trkpt>
      <trkpt lat="48.05035" lon="6.74673">
        <ele>752.2</ele>
        <time>2024-07-18T14:50:15Z</time>
      </trkpt>
      <trkpt lat="48.05042" lon="6.74664">
        <ele>750</ele>
        <time>2024-07-18T14:50:36Z</time>
      </trkpt>
      <trkpt lat="48.05046" lon="6.74651">
        <ele>747.7</ele>
        <time>2024-07-18T14:50:50Z</time>
      </trkpt>
      <trkpt lat="48.05047" lon="6.74636">
        <ele>745.2</ele>
        <time>2024-07-18T14:50:59Z</time>
      </trkpt>
      <trkpt lat="48.05046" lon="6.74634">
        <ele>744.8</ele>
        <time>2024-07-18T14:51:08Z</time>
      </trkpt>
      <trkpt lat="48.05045" lon="6.74632">
        <ele>744.4</ele>
        <time>2024-07-18T14:51:25Z</time>
      </trkpt>
      <trkpt lat="48.05045" lon="6.74631">
        <ele>744.1</ele>
        <time>2024-07-18T14:51:56Z</time>
      </trkpt>
      <trkpt lat="48.05044" lon="6.74629">
        <ele>743.7</ele>
        <time>2024-07-18T14:52:14Z</time>
      </trkpt>
      <trkpt lat="48.05043" lon="6.74627">
        <ele>743.3</ele>
        <time>2024-07-18T14:52:18Z</time>
      </trkpt>
      <trkpt lat="48.05042" lon="6.74625">
        <ele>742.9</ele>
        <time>2024-07-18T14:52:19Z</time>
      </trkpt>
      <trkpt lat="48.05041" lon="6.74623">
        <ele>742.5</ele>
        <time>2024-07-18T14:52:20Z</time>
      </trkpt>
      <trkpt lat="48.0504" lon="6.74621">
        <ele>742.2</ele>
        <time>2024-07-18T14:52:21Z</time>
      </trkpt>
      <trkpt lat="48.05039" lon="6.74619">
        <ele>741.8</ele>
        <time>2024-07-18T14:52:22Z</time>
      </trkpt>
      <trkpt lat="48.05039" lon="6.74617">
        <ele>741.4</ele>
        <time>2024-07-18T14:52:23Z</time>
      </trkpt>
      <trkpt lat="48.05038" lon="6.74615">
        <ele>741</ele>
        <time>2024-07-18T14:52:44Z</time>
      </trkpt>
      <trkpt lat="48.05037" lon="6.74613">
        <ele>740.6</ele>
        <time>2024-07-18T14:52:45Z</time>
      </trkpt>
      <trkpt lat="48.05036" lon="6.74611">
        <ele>740.2</ele>
        <time>2024-07-18T14:52:46Z</time>
      </trkpt>
      <trkpt lat="48.05035" lon="6.74609">
        <ele>739.8</ele>
        <time>2024-07-18T14:52:47Z</time>
      </trkpt>
      <trkpt lat="48.05034" lon="6.74607">
        <ele>739.4</ele>
        <time>2024-07-18T14:53:01Z</time>
      </trkpt>
      <trkpt lat="48.05033" lon="6.74605">
        <ele>739</ele>
        <time>2024-07-18T14:53:09Z</time>
      </trkpt>
      <trkpt lat="48.05033" lon="6.74604">
        <ele>738.6</ele>
        <time>2024-07-18T14:53:19Z</time>
      </trkpt>
      <trkpt lat="48.05032" lon="6.74602">
        <ele>738.2</ele>
        <time>2024-07-18T14:53:20Z</time>
      </trkpt>
      <trkpt lat="48.05031" lon="6.746">
        <ele>737.8</ele>
        <time>2024-07-18T14:53:31Z</time>
      </trkpt>
      <trkpt lat="48.0503" lon="6.74598">
        <ele>737.4</ele>
        <time>2024-07-18T14:53:32Z</time>
      </trkpt>
      <trkpt lat="48.05029" lon="6.74596">
        <ele>737</ele>
        <time>2024-07-18T14:53:38Z</time>
      </trkpt>
      <trkpt lat="48.05028" lon="6.74594">
        <ele>736.6</ele>
        <time>2024-07-18T14:53:44Z</time>
      </trkpt>
      <trkpt lat="48.05027" lon="6.74592">
        <ele>736.2</ele>
        <time>2024-07-18T14:53:51Z</time>
      </trkpt>
      <trkpt lat="48.05027" lon="6.7459">
        <ele>735.8</ele>
        <time>2024-07-18T14:54:22Z</time>
      </trkpt>
      <trkpt lat="48.05026" lon="6.74588">
        <ele>735.4</ele>
        <time>2024-07-18T14:54:33Z</time>
      </trkpt>
      <trkpt lat="48.05025" lon="6.74586">
        <ele>735</ele>
        <time>2024-07-18T14:54:34Z</time>
      </trkpt>
      <trkpt lat="48.05024" lon="6.74584">
        <ele>734.6</ele>
        <time>2024-07-18T14:54:35Z</time>
      </trkpt>
      <trkpt lat="48.05023" lon="6.74582">
        <ele>734.1</ele>
        <time>2024-07-18T14:56:48Z</time>
      </trkpt>
      <trkpt lat="48.05022" lon="6.7458">
        <ele>733.7</ele>
        <time>2024-07-18T14:56:49Z</time>
      </trkpt>
      <trkpt lat="48.05021" lon="6.74579">
        <ele>733.3</ele>
        <time>2024-07-18T14:57:04Z</time>
      </trkpt>
      <trkpt lat="48.05021" lon="6.74577">
        <ele>732.9</ele>
        <time>2024-07-18T14:57:05Z</time>
      </trkpt>
      <trkpt lat="48.0502" lon="6.74575">
        <ele>732.5</ele>
        <time>2024-07-18T14:57:08Z</time>
      </trkpt>
      <trkpt lat="48.05019" lon="6.74573">
        <ele>732.1</ele>
        <time>2024-07-18T14:57:09Z</time>
      </trkpt>
      <trkpt lat="48.05018" lon="6.74571">
        <ele>731.7</ele>
        <time>2024-07-18T14:57:10Z</time>
      </trkpt>
      <trkpt lat="48.05017" lon="6.74569">
        <ele>731.3</ele>
        <time>2024-07-18T14:57:11Z</time>
      </trkpt>
      <trkpt lat="48.05016" lon="6.74567">
        <ele>730.9</ele>
        <time>2024-07-18T14:57:12Z</time>
      </trkpt>
      <trkpt lat="48.05015" lon="6.74565">
        <ele>730.6</ele>
        <time>2024-07-18T14:57:18Z</time>
      </trkpt>
      <trkpt lat="48.05015" lon="6.74563">
        <ele>730.2</ele>
        <time>2024-07-18T14:57:18Z</time>
      </trkpt>
      <trkpt lat="48.05014" lon="6.74561">
        <ele>729.9</ele>
        <time>2024-07-18T14:57:18Z</time>
      </trkpt>
      <trkpt lat="48.05013" lon="6.74559">
        <ele>729.5</ele>
        <time>2024-07-18T14:57:18Z</time>
      </trkpt>
    </trkseg>
  </trk>
</gpx>